Wetterdaten: Samstag, 19.01.2019
Datum Zeit Temp. A. Pool Temp. Temp. 5cm Feuchte A. Luftdruck Regen Wind Richtung Richtung Sonnenschein ET UV Solar Taupunkt Windchill Windben Empfang
19.01.2019 00:00 -3,6 C 3,9 C -7,2 C 91 % 1020,6 hPa 0,0 l/m 4,3 km/h (1 Bft) O-NO 78 0 min 0,000 mm 0,0 UV-I 0 W/m -4,8 C -3,6 C 6,4 km/h (2 Bft) 100,00 %
19.01.2019 00:02 -3,6 C 3,9 C -6,7 C 91 % 1020,6 hPa 0,0 l/m 4,4 km/h (1 Bft) O-NO 78 0 min 0,000 mm 0,0 UV-I 0 W/m -4,8 C -3,6 C 6,4 km/h (2 Bft) 5,88 %
19.01.2019 00:04 -3,7 C 3,9 C -6,7 C 91 % 1020,7 hPa 0,0 l/m 5,9 km/h (2 Bft) O-NO 78 0 min 0,000 mm 0,0 UV-I 0 W/m -4,9 C -3,7 C 8,0 km/h (2 Bft) 69,23 %
19.01.2019 00:06 -3,7 C 3,9 C -6,1 C 91 % 1020,7 hPa 0,0 l/m 6,1 km/h (2 Bft) O-NO 78 0 min 0,000 mm 0,0 UV-I 0 W/m -4,9 C -3,7 C 8,0 km/h (2 Bft) 100,00 %
19.01.2019 00:08 -3,7 C 3,9 C -6,7 C 92 % 1020,6 hPa 0,0 l/m 6,3 km/h (2 Bft) O-NO 78 0 min 0,000 mm 0,0 UV-I 0 W/m -4,8 C -3,7 C 8,0 km/h (2 Bft) 98,04 %
19.01.2019 00:10 -3,7 C 3,9 C -6,7 C 92 % 1020,6 hPa 0,0 l/m 5,6 km/h (1 Bft) O-NO 78 0 min 0,000 mm 0,0 UV-I 0 W/m -4,8 C -3,7 C 6,4 km/h (2 Bft) 97,87 %
19.01.2019 00:12 -3,8 C 3,9 C -6,7 C 92 % 1020,6 hPa 0,0 l/m 5,6 km/h (1 Bft) O-NO 78 0 min 0,000 mm 0,0 UV-I 0 W/m -4,9 C -3,8 C 8,0 km/h (2 Bft) 98,04 %
19.01.2019 00:14 -3,8 C 3,9 C -6,7 C 92 % 1020,6 hPa 0,0 l/m 5,2 km/h (1 Bft) O-NO 78 0 min 0,000 mm 0,0 UV-I 0 W/m -4,9 C -3,8 C 6,4 km/h (2 Bft) 100,00 %
19.01.2019 00:16 -3,8 C 3,9 C -6,7 C 92 % 1020,6 hPa 0,0 l/m 4,5 km/h (1 Bft) O 80 0 min 0,000 mm 0,0 UV-I 0 W/m -4,9 C -3,8 C 6,4 km/h (2 Bft) 100,00 %
19.01.2019 00:18 -3,8 C 3,9 C -6,7 C 92 % 1020,5 hPa 0,0 l/m 3,6 km/h (1 Bft) O 86 0 min 0,000 mm 0,0 UV-I 0 W/m -4,9 C -3,8 C 4,8 km/h (1 Bft) 97,73 %
19.01.2019 00:20 -3,8 C 3,9 C -6,7 C 92 % 1020,5 hPa 0,0 l/m 3,6 km/h (1 Bft) O 86 0 min 0,000 mm 0,0 UV-I 0 W/m -4,9 C -3,8 C 4,8 km/h (1 Bft) 100,00 %
19.01.2019 00:22 -3,8 C 3,9 C -7,2 C 92 % 1020,5 hPa 0,0 l/m 3,2 km/h (1 Bft) O 86 0 min 0,000 mm 0,0 UV-I 0 W/m -4,9 C -3,8 C 4,8 km/h (1 Bft) 96,08 %
19.01.2019 00:24 -3,8 C 3,9 C -7,2 C 92 % 1020,5 hPa 0,0 l/m 3,2 km/h (1 Bft) O 86 0 min 0,000 mm 0,0 UV-I 0 W/m -4,9 C -3,8 C 4,8 km/h (1 Bft) 95,74 %
19.01.2019 00:26 -3,9 C 3,9 C -7,8 C 92 % 1020,5 hPa 0,0 l/m 3,3 km/h (1 Bft) O 86 0 min 0,000 mm 0,0 UV-I 0 W/m -5,0 C -3,9 C 4,8 km/h (1 Bft) 96,23 %
19.01.2019 00:28 -3,9 C 3,9 C -7,8 C 92 % 1020,5 hPa 0,0 l/m 3,1 km/h (1 Bft) O 86 0 min 0,000 mm 0,0 UV-I 0 W/m -5,0 C -3,9 C 4,8 km/h (1 Bft) 97,37 %
19.01.2019 00:30 -3,9 C 3,9 C -7,8 C 92 % 1020,5 hPa 0,0 l/m 4,7 km/h (1 Bft) O 85 0 min 0,000 mm 0,0 UV-I 0 W/m -5,0 C -3,9 C 6,4 km/h (2 Bft) 95,74 %
19.01.2019 00:32 -3,8 C 3,9 C -7,8 C 92 % 1020,4 hPa 0,0 l/m 4,1 km/h (1 Bft) O 85 0 min 0,000 mm 0,0 UV-I 0 W/m -4,9 C -3,8 C 6,4 km/h (2 Bft) 96,00 %
19.01.2019 00:34 -3,8 C 3,9 C -7,8 C 92 % 1020,4 hPa 0,0 l/m 5,2 km/h (1 Bft) O 89 0 min 0,000 mm 0,0 UV-I 0 W/m -4,9 C -3,8 C 6,4 km/h (2 Bft) 96,00 %
19.01.2019 00:36 -3,8 C 3,9 C -7,8 C 92 % 1020,4 hPa 0,0 l/m 5,2 km/h (1 Bft) O 95 0 min 0,000 mm 0,0 UV-I 0 W/m -4,9 C -3,8 C 6,4 km/h (2 Bft) 97,56 %
19.01.2019 00:38 -3,8 C 3,9 C -7,8 C 92 % 1020,3 hPa 0,0 l/m 5,0 km/h (1 Bft) O 98 0 min 0,000 mm 0,0 UV-I 0 W/m -4,9 C -3,8 C 6,4 km/h (2 Bft) 97,37 %
19.01.2019 00:40 -3,7 C 3,9 C -7,2 C 92 % 1020,3 hPa 0,0 l/m 4,3 km/h (1 Bft) O 98 0 min 0,000 mm 0,0 UV-I 0 W/m -4,8 C -3,7 C 6,4 km/h (2 Bft) 98,21 %
19.01.2019 00:42 -3,7 C 3,9 C -7,2 C 92 % 1020,3 hPa 0,0 l/m 4,8 km/h (1 Bft) O-SO 107 0 min 0,000 mm 0,0 UV-I 0 W/m -4,8 C -3,7 C 6,4 km/h (2 Bft) 98,00 %
19.01.2019 00:44 -3,7 C 3,9 C -6,7 C 92 % 1020,2 hPa 0,0 l/m 5,0 km/h (1 Bft) O 100 0 min 0,000 mm 0,0 UV-I 0 W/m -4,8 C -3,7 C 6,4 km/h (2 Bft) 95,74 %
19.01.2019 00:46 -3,6 C 3,9 C -6,7 C 91 % 1020,2 hPa 0,0 l/m 5,0 km/h (1 Bft) O 100 0 min 0,000 mm 0,0 UV-I 0 W/m -4,8 C -3,6 C 9,7 km/h (2 Bft) 97,73 %
19.01.2019 00:48 -3,6 C 3,9 C -6,7 C 91 % 1020,2 hPa 0,0 l/m 4,3 km/h (1 Bft) O 100 0 min 0,000 mm 0,0 UV-I 0 W/m -4,8 C -3,6 C 6,4 km/h (2 Bft) 96,00 %
19.01.2019 00:50 -3,6 C 3,9 C -6,7 C 91 % 1020,2 hPa 0,0 l/m 4,5 km/h (1 Bft) O 100 0 min 0,000 mm 0,0 UV-I 0 W/m -4,8 C -3,6 C 6,4 km/h (2 Bft) 96,00 %
19.01.2019 00:52 -3,6 C 3,9 C -6,7 C 91 % 1020,2 hPa 0,0 l/m 4,2 km/h (1 Bft) O-NO 76 0 min 0,000 mm 0,0 UV-I 0 W/m -4,8 C -3,6 C 6,4 km/h (2 Bft) 95,12 %
19.01.2019 00:54 -3,7 C 3,9 C -6,7 C 91 % 1020,1 hPa 0,0 l/m 4,2 km/h (1 Bft) O 81 0 min 0,000 mm 0,0 UV-I 0 W/m -4,9 C -3,7 C 6,4 km/h (2 Bft) 98,11 %
19.01.2019 00:56 -3,8 C 3,9 C -7,2 C 91 % 1020,1 hPa 0,0 l/m 4,6 km/h (1 Bft) O 92 0 min 0,000 mm 0,0 UV-I 0 W/m -5,0 C -3,8 C 6,4 km/h (2 Bft) 97,73 %
19.01.2019 00:58 -3,8 C 3,9 C -6,7 C 91 % 1020,1 hPa 0,0 l/m 5,3 km/h (1 Bft) O 91 0 min 0,000 mm 0,0 UV-I 0 W/m -5,0 C -3,8 C 6,4 km/h (2 Bft) 98,00 %
19.01.2019 01:00 -3,8 C 3,9 C -6,7 C 91 % 1020,1 hPa 0,0 l/m 5,4 km/h (1 Bft) O 88 0 min 0,000 mm 0,0 UV-I 0 W/m -5,0 C -3,8 C 8,0 km/h (2 Bft) 97,44 %
19.01.2019 01:02 -3,8 C 3,9 C -6,7 C 91 % 1020,1 hPa 0,0 l/m 6,4 km/h (2 Bft) O-NO 77 0 min 0,000 mm 0,0 UV-I 0 W/m -5,0 C -3,7 C 9,7 km/h (2 Bft) 98,00 %
19.01.2019 01:04 -3,8 C 3,9 C -6,7 C 91 % 1020,1 hPa 0,0 l/m 7,0 km/h (2 Bft) O-NO 72 0 min 0,000 mm 0,0 UV-I 0 W/m -5,0 C -4,5 C 8,0 km/h (2 Bft) 95,74 %
19.01.2019 01:06 -3,8 C 3,9 C -6,1 C 91 % 1020,0 hPa 0,0 l/m 6,8 km/h (2 Bft) O 82 0 min 0,000 mm 0,0 UV-I 0 W/m -5,0 C -4,2 C 8,0 km/h (2 Bft) 94,74 %
19.01.2019 01:08 -3,8 C 3,9 C -6,1 C 91 % 1020,0 hPa 0,0 l/m 5,9 km/h (2 Bft) O 80 0 min 0,000 mm 0,0 UV-I 0 W/m -5,0 C -3,8 C 8,0 km/h (2 Bft) 96,61 %
19.01.2019 01:10 -3,9 C 3,9 C -6,1 C 91 % 1020,0 hPa 0,0 l/m 6,3 km/h (2 Bft) O 89 0 min 0,000 mm 0,0 UV-I 0 W/m -5,1 C -3,9 C 9,7 km/h (2 Bft) 97,56 %
19.01.2019 01:12 -3,9 C 3,9 C -6,1 C 91 % 1020,0 hPa 0,0 l/m 5,3 km/h (1 Bft) O-SO 103 0 min 0,000 mm 0,0 UV-I 0 W/m -5,1 C -3,9 C 6,4 km/h (2 Bft) 96,00 %
19.01.2019 01:14 -3,9 C 3,9 C -6,7 C 91 % 1020,0 hPa 0,0 l/m 4,7 km/h (1 Bft) O-SO 103 0 min 0,000 mm 0,0 UV-I 0 W/m -5,1 C -3,9 C 6,4 km/h (2 Bft) 95,74 %
19.01.2019 01:16 -4,0 C 3,9 C -6,7 C 92 % 1020,0 hPa 0,0 l/m 4,9 km/h (1 Bft) O 101 0 min 0,000 mm 0,0 UV-I 0 W/m -5,1 C -4,0 C 6,4 km/h (2 Bft) 94,74 %
19.01.2019 01:18 -4,0 C 3,9 C -6,7 C 92 % 1020,0 hPa 0,0 l/m 4,2 km/h (1 Bft) O 101 0 min 0,000 mm 0,0 UV-I 0 W/m -5,1 C -4,0 C 6,4 km/h (2 Bft) 96,23 %
19.01.2019 01:20 -4,0 C 3,9 C -6,7 C 92 % 1020,0 hPa 0,0 l/m 5,0 km/h (1 Bft) O 101 0 min 0,000 mm 0,0 UV-I 0 W/m -5,1 C -4,0 C 6,4 km/h (2 Bft) 94,34 %
19.01.2019 01:22 -4,0 C 3,9 C -6,7 C 92 % 1020,0 hPa 0,0 l/m 5,6 km/h (1 Bft) O 88 0 min 0,000 mm 0,0 UV-I 0 W/m -5,1 C -4,0 C 9,7 km/h (2 Bft) 94,74 %
19.01.2019 01:24 -4,0 C 3,9 C -6,7 C 92 % 1020,0 hPa 0,0 l/m 6,9 km/h (2 Bft) O 96 0 min 0,000 mm 0,0 UV-I 0 W/m -5,1 C -4,6 C 9,7 km/h (2 Bft) 96,00 %
19.01.2019 01:26 -4,1 C 3,9 C -6,1 C 92 % 1020,0 hPa 0,0 l/m 6,4 km/h (2 Bft) O-SO 105 0 min 0,000 mm 0,0 UV-I 0 W/m -5,2 C -4,0 C 9,7 km/h (2 Bft) 92,45 %
19.01.2019 01:28 -4,1 C 3,9 C -6,1 C 92 % 1020,0 hPa 0,0 l/m 6,5 km/h (2 Bft) O-NO 78 0 min 0,000 mm 0,0 UV-I 0 W/m -5,2 C -4,2 C 8,0 km/h (2 Bft) 94,29 %
19.01.2019 01:30 -4,1 C 3,9 C -6,1 C 93 % 1019,9 hPa 0,0 l/m 7,2 km/h (2 Bft) O-NO 77 0 min 0,000 mm 0,0 UV-I 0 W/m -5,1 C -5,0 C 11,3 km/h (2 Bft) 93,62 %
19.01.2019 01:32 -4,1 C 3,9 C -6,1 C 92 % 1020,0 hPa 0,0 l/m 7,7 km/h (2 Bft) O-NO 75 0 min 0,000 mm 0,0 UV-I 0 W/m -5,2 C -5,6 C 11,3 km/h (2 Bft) 94,64 %
19.01.2019 01:34 -4,0 C 3,9 C -6,1 C 93 % 1020,0 hPa 0,0 l/m 8,8 km/h (2 Bft) O-NO 62 0 min 0,000 mm 0,0 UV-I 0 W/m -5,0 C -6,7 C 12,9 km/h (3 Bft) 95,12 %
19.01.2019 01:36 -3,9 C 3,9 C -5,6 C 93 % 1019,9 hPa 0,0 l/m 10,0 km/h (2 Bft) O 96 0 min 0,000 mm 0,0 UV-I 0 W/m -4,9 C -7,8 C 14,5 km/h (3 Bft) 95,56 %
19.01.2019 01:38 -3,9 C 3,9 C -5,6 C 93 % 1019,9 hPa 0,0 l/m 10,1 km/h (2 Bft) O 99 0 min 0,000 mm 0,0 UV-I 0 W/m -4,9 C -7,9 C 16,1 km/h (3 Bft) 96,36 %
19.01.2019 01:40 -3,9 C 3,9 C -6,1 C 93 % 1019,9 hPa 0,0 l/m 9,2 km/h (2 Bft) O 90 0 min 0,000 mm 0,0 UV-I 0 W/m -4,9 C -7,0 C 14,5 km/h (3 Bft) 95,24 %
19.01.2019 01:42 -3,9 C 3,9 C -6,1 C 93 % 1019,8 hPa 0,0 l/m 9,3 km/h (2 Bft) O 87 0 min 0,000 mm 0,0 UV-I 0 W/m -4,9 C -7,1 C 11,3 km/h (2 Bft) 90,38 %
19.01.2019 01:44 -3,8 C 3,9 C -6,1 C 93 % 1019,9 hPa 0,0 l/m 10,0 km/h (2 Bft) O-NO 69 0 min 0,000 mm 0,0 UV-I 0 W/m -4,8 C -7,6 C 12,9 km/h (3 Bft) 97,44 %
19.01.2019 01:46 -3,8 C 3,9 C -5,6 C 93 % 1019,8 hPa 0,0 l/m 12,1 km/h (2 Bft) O-NO 71 0 min 0,000 mm 0,0 UV-I 0 W/m -4,8 C -9,5 C 16,1 km/h (3 Bft) 94,74 %
19.01.2019 01:48 -3,8 C 3,9 C -5,6 C 93 % 1019,7 hPa 0,0 l/m 11,5 km/h (2 Bft) O 80 0 min 0,000 mm 0,0 UV-I 0 W/m -4,8 C -9,0 C 14,5 km/h (3 Bft) 97,56 %
19.01.2019 01:50 -3,8 C 3,9 C -5,6 C 93 % 1019,7 hPa 0,0 l/m 8,0 km/h (2 Bft) NO 44 0 min 0,000 mm 0,0 UV-I 0 W/m -4,8 C -5,6 C 12,9 km/h (3 Bft) 97,06 %
19.01.2019 01:52 -3,8 C 3,9 C -5,6 C 93 % 1019,7 hPa 0,0 l/m 8,8 km/h (2 Bft) NO 42 0 min 0,000 mm 0,0 UV-I 0 W/m -4,8 C -6,5 C 12,9 km/h (3 Bft) 96,00 %
19.01.2019 01:54 -3,8 C 3,9 C -5,6 C 93 % 1019,7 hPa 0,0 l/m 9,4 km/h (2 Bft) O-NO 71 0 min 0,000 mm 0,0 UV-I 0 W/m -4,8 C -7,1 C 16,1 km/h (3 Bft) 97,56 %
19.01.2019 01:56 -3,7 C 3,9 C -5,0 C 93 % 1019,7 hPa 0,0 l/m 12,5 km/h (3 Bft) O-NO 62 0 min 0,000 mm 0,0 UV-I 0 W/m -4,7 C -9,7 C 17,7 km/h (3 Bft) 100,00 %
19.01.2019 01:58 -3,7 C 3,9 C -5,0 C 94 % 1019,7 hPa 0,0 l/m 13,4 km/h (3 Bft) O 80 0 min 0,000 mm 0,0 UV-I 0 W/m -4,5 C -10,3 C 16,1 km/h (3 Bft) 93,62 %
19.01.2019 02:00 -3,7 C 3,9 C -5,0 C 94 % 1019,7 hPa 0,0 l/m 13,9 km/h (3 Bft) O 96 0 min 0,000 mm 0,0 UV-I 0 W/m -4,5 C -10,7 C 20,9 km/h (4 Bft) 96,00 %
19.01.2019 02:02 -3,6 C 3,9 C -5,0 C 94 % 1019,7 hPa 0,0 l/m 13,8 km/h (3 Bft) O-NO 71 0 min 0,000 mm 0,0 UV-I 0 W/m -4,4 C -10,5 C 20,9 km/h (4 Bft) 98,11 %
19.01.2019 02:04 -3,7 C 3,9 C -5,0 C 94 % 1019,7 hPa 0,0 l/m 13,5 km/h (3 Bft) O-NO 65 0 min 0,000 mm 0,0 UV-I 0 W/m -4,5 C -10,4 C 20,9 km/h (4 Bft) 97,37 %
19.01.2019 02:06 -3,7 C 3,9 C -5,0 C 94 % 1019,7 hPa 0,0 l/m 14,0 km/h (3 Bft) O 88 0 min 0,000 mm 0,0 UV-I 0 W/m -4,5 C -10,8 C 17,7 km/h (3 Bft) 98,00 %
19.01.2019 02:08 -3,7 C 3,9 C -5,0 C 93 % 1019,6 hPa 0,0 l/m 14,5 km/h (3 Bft) O-NO 73 0 min 0,000 mm 0,0 UV-I 0 W/m -4,7 C -11,1 C 17,7 km/h (3 Bft) 100,00 %
19.01.2019 02:10 -3,7 C 3,9 C -5,0 C 93 % 1019,6 hPa 0,0 l/m 14,2 km/h (3 Bft) O-NO 66 0 min 0,000 mm 0,0 UV-I 0 W/m -4,7 C -10,9 C 19,3 km/h (3 Bft) 100,00 %
19.01.2019 02:12 -3,8 C 3,9 C -5,0 C 94 % 1019,6 hPa 0,0 l/m 12,1 km/h (2 Bft) O-NO 65 0 min 0,000 mm 0,0 UV-I 0 W/m -4,6 C -9,5 C 16,1 km/h (3 Bft) 100,00 %
19.01.2019 02:14 -3,8 C 3,9 C -5,0 C 94 % 1019,6 hPa 0,0 l/m 12,7 km/h (3 Bft) O-NO 66 0 min 0,000 mm 0,0 UV-I 0 W/m -4,6 C -9,9 C 17,7 km/h (3 Bft) 100,00 %
19.01.2019 02:16 -3,8 C 3,9 C -5,0 C 94 % 1019,6 hPa 0,0 l/m 13,9 km/h (3 Bft) O 83 0 min 0,000 mm 0,0 UV-I 0 W/m -4,6 C -10,8 C 19,3 km/h (3 Bft) 100,00 %
19.01.2019 02:18 -3,8 C 3,9 C -5,0 C 94 % 1019,5 hPa 0,0 l/m 14,1 km/h (3 Bft) O-NO 73 0 min 0,000 mm 0,0 UV-I 0 W/m -4,6 C -11,0 C 19,3 km/h (3 Bft) 100,00 %
19.01.2019 02:20 -3,8 C 3,9 C -5,0 C 94 % 1019,5 hPa 0,0 l/m 14,3 km/h (3 Bft) O 79 0 min 0,000 mm 0,0 UV-I 0 W/m -4,6 C -11,1 C 19,3 km/h (3 Bft) 100,00 %
19.01.2019 02:22 -3,7 C 3,9 C -5,0 C 94 % 1019,4 hPa 0,0 l/m 13,0 km/h (3 Bft) O-NO 71 0 min 0,000 mm 0,0 UV-I 0 W/m -4,5 C -10,0 C 16,1 km/h (3 Bft) 100,00 %
19.01.2019 02:25 -3,7 C 3,9 C -5,0 C 94 % 1019,5 hPa 0,0 l/m 12,9 km/h (3 Bft) O 82 0 min 0,000 mm 0,0 UV-I 0 W/m -4,5 C -10,0 C 17,7 km/h (3 Bft) 100,00 %
19.01.2019 02:26 -3,7 C 3,9 C -5,0 C 94 % 1019,4 hPa 0,0 l/m 15,5 km/h (3 Bft) NO 54 0 min 0,000 mm 0,0 UV-I 0 W/m -4,5 C -11,8 C 19,3 km/h (3 Bft) 91,67 %
19.01.2019 02:28 -3,7 C 3,3 C -5,0 C 94 % 1019,4 hPa 0,0 l/m 16,0 km/h (3 Bft) O 86 0 min 0,000 mm 0,0 UV-I 0 W/m -4,5 C -12,1 C 20,9 km/h (4 Bft) 100,00 %
19.01.2019 02:30 -3,7 C 3,3 C -5,0 C 94 % 1019,3 hPa 0,0 l/m 14,2 km/h (3 Bft) O 82 0 min 0,000 mm 0,0 UV-I 0 W/m -4,5 C -10,9 C 22,5 km/h (4 Bft) 100,00 %
19.01.2019 02:32 -3,6 C 3,9 C -5,0 C 94 % 1019,3 hPa 0,0 l/m 13,7 km/h (3 Bft) NO 43 0 min 0,000 mm 0,0 UV-I 0 W/m -4,4 C -10,4 C 19,3 km/h (3 Bft) 100,00 %
19.01.2019 02:34 -3,6 C 3,9 C -5,0 C 94 % 1019,4 hPa 0,0 l/m 14,0 km/h (3 Bft) O-NO 76 0 min 0,000 mm 0,0 UV-I 0 W/m -4,4 C -10,7 C 19,3 km/h (3 Bft) 96,00 %
19.01.2019 02:36 -3,6 C 3,9 C -5,0 C 94 % 1019,3 hPa 0,0 l/m 16,2 km/h (3 Bft) O 80 0 min 0,000 mm 0,0 UV-I 0 W/m -4,4 C -12,1 C 22,5 km/h (4 Bft) 100,00 %
19.01.2019 02:38 -3,6 C 3,9 C -5,0 C 94 % 1019,3 hPa 0,0 l/m 14,8 km/h (3 Bft) O 81 0 min 0,000 mm 0,0 UV-I 0 W/m -4,4 C -11,2 C 19,3 km/h (3 Bft) 95,74 %
19.01.2019 02:40 -3,6 C 3,9 C -5,0 C 94 % 1019,3 hPa 0,0 l/m 14,4 km/h (3 Bft) O 84 0 min 0,000 mm 0,0 UV-I 0 W/m -4,4 C -10,9 C 19,3 km/h (3 Bft) 98,00 %
19.01.2019 02:42 -3,6 C 3,9 C -5,0 C 94 % 1019,3 hPa 0,0 l/m 15,6 km/h (3 Bft) O 79 0 min 0,000 mm 0,0 UV-I 0 W/m -4,4 C -11,7 C 22,5 km/h (4 Bft) 97,56 %
19.01.2019 02:44 -3,6 C 3,9 C -5,0 C 93 % 1019,2 hPa 0,0 l/m 15,5 km/h (3 Bft) O-NO 67 0 min 0,000 mm 0,0 UV-I 0 W/m -4,6 C -11,7 C 22,5 km/h (4 Bft) 96,23 %
19.01.2019 02:46 -3,6 C 3,9 C -5,0 C 93 % 1019,3 hPa 0,0 l/m 16,8 km/h (3 Bft) O-NO 59 0 min 0,000 mm 0,0 UV-I 0 W/m -4,6 C -12,5 C 22,5 km/h (4 Bft) 95,74 %
19.01.2019 02:48 -3,7 C 3,9 C -5,0 C 93 % 1019,3 hPa 0,0 l/m 15,9 km/h (3 Bft) O-NO 76 0 min 0,000 mm 0,0 UV-I 0 W/m -4,7 C -12,1 C 19,3 km/h (3 Bft) 96,23 %
19.01.2019 02:50 -3,7 C 3,3 C -5,0 C 93 % 1019,2 hPa 0,0 l/m 14,7 km/h (3 Bft) O-NO 75 0 min 0,000 mm 0,0 UV-I 0 W/m -4,7 C -11,3 C 19,3 km/h (3 Bft) 97,37 %
19.01.2019 02:52 -3,7 C 3,3 C -5,0 C 93 % 1019,2 hPa 0,0 l/m 15,2 km/h (3 Bft) O-NO 71 0 min 0,000 mm 0,0 UV-I 0 W/m -4,7 C -11,6 C 19,3 km/h (3 Bft) 94,34 %
19.01.2019 02:54 -3,7 C 3,3 C -5,0 C 93 % 1019,2 hPa 0,0 l/m 12,4 km/h (3 Bft) O 83 0 min 0,000 mm 0,0 UV-I 0 W/m -4,7 C -9,6 C 17,7 km/h (3 Bft) 95,45 %
19.01.2019 02:56 -3,7 C 3,3 C -5,6 C 93 % 1019,2 hPa 0,0 l/m 13,1 km/h (3 Bft) O-NO 65 0 min 0,000 mm 0,0 UV-I 0 W/m -4,7 C -10,1 C 16,1 km/h (3 Bft) 96,23 %
19.01.2019 02:58 -3,8 C 3,3 C -5,6 C 93 % 1019,1 hPa 0,0 l/m 13,8 km/h (3 Bft) NO 54 0 min 0,000 mm 0,0 UV-I 0 W/m -4,8 C -10,7 C 19,3 km/h (3 Bft) 97,44 %
19.01.2019 03:00 -3,8 C 3,9 C -5,6 C 93 % 1019,1 hPa 0,0 l/m 16,0 km/h (3 Bft) O-NO 69 0 min 0,000 mm 0,0 UV-I 0 W/m -4,8 C -12,2 C 20,9 km/h (4 Bft) 93,62 %
19.01.2019 03:02 -3,8 C 3,9 C -5,6 C 93 % 1019,0 hPa 0,0 l/m 16,0 km/h (3 Bft) NO 50 0 min 0,000 mm 0,0 UV-I 0 W/m -4,8 C -12,2 C 20,9 km/h (4 Bft) 98,00 %
19.01.2019 03:04 -3,8 C 3,9 C -5,6 C 93 % 1019,1 hPa 0,0 l/m 13,0 km/h (3 Bft) O-NO 74 0 min 0,000 mm 0,0 UV-I 0 W/m -4,8 C -10,2 C 17,7 km/h (3 Bft) 96,15 %
19.01.2019 03:06 -3,8 C 3,3 C -5,6 C 93 % 1019,0 hPa 0,0 l/m 15,6 km/h (3 Bft) O-NO 72 0 min 0,000 mm 0,0 UV-I 0 W/m -4,8 C -12,0 C 19,3 km/h (3 Bft) 96,92 %
19.01.2019 03:08 -3,8 C 3,3 C -5,6 C 93 % 1019,0 hPa 0,0 l/m 13,8 km/h (3 Bft) O-NO 67 0 min 0,000 mm 0,0 UV-I 0 W/m -4,8 C -10,7 C 20,9 km/h (4 Bft) 97,56 %
19.01.2019 03:10 -3,8 C 3,9 C -5,6 C 93 % 1019,0 hPa 0,0 l/m 14,0 km/h (3 Bft) O-NO 61 0 min 0,000 mm 0,0 UV-I 0 W/m -4,8 C -10,9 C 19,3 km/h (3 Bft) 96,00 %
19.01.2019 03:12 -3,8 C 3,9 C -5,6 C 93 % 1019,0 hPa 0,0 l/m 15,7 km/h (3 Bft) NO 48 0 min 0,000 mm 0,0 UV-I 0 W/m -4,8 C -12,0 C 19,3 km/h (3 Bft) 97,73 %
19.01.2019 03:14 -3,9 C 3,9 C -5,6 C 93 % 1018,9 hPa 0,0 l/m 13,6 km/h (3 Bft) N-NO 32 0 min 0,000 mm 0,0 UV-I 0 W/m -4,9 C -10,7 C 20,9 km/h (4 Bft) 96,43 %
19.01.2019 03:16 -3,9 C 3,3 C -5,6 C 93 % 1018,9 hPa 0,0 l/m 13,5 km/h (3 Bft) O-NO 68 0 min 0,000 mm 0,0 UV-I 0 W/m -4,9 C -10,6 C 17,7 km/h (3 Bft) 97,87 %
19.01.2019 03:18 -3,9 C 3,3 C -5,6 C 93 % 1018,9 hPa 0,0 l/m 12,3 km/h (3 Bft) O 80 0 min 0,000 mm 0,0 UV-I 0 W/m -4,9 C -9,7 C 16,1 km/h (3 Bft) 97,87 %
19.01.2019 03:20 -3,9 C 3,3 C -5,6 C 93 % 1018,9 hPa 0,0 l/m 12,3 km/h (3 Bft) O-NO 74 0 min 0,000 mm 0,0 UV-I 0 W/m -4,9 C -9,7 C 16,1 km/h (3 Bft) 93,75 %
19.01.2019 03:21 -3,9 C 3,9 C -5,6 C 93 % 1018,9 hPa 0,0 l/m 15,4 km/h (3 Bft) O-NO 70 0 min 0,000 mm 0,0 UV-I 0 W/m -4,9 C -12,0 C 22,5 km/h (4 Bft) 93,33 %
19.01.2019 03:22 -3,9 C 3,3 C -5,6 C 93 % 1018,9 hPa 0,0 l/m 11,9 km/h (2 Bft) NO 51 0 min 0,000 mm 0,0 UV-I 0 W/m -4,9 C -9,4 C 14,5 km/h (3 Bft) 100,00 %
19.01.2019 03:24 -3,9 C 3,3 C -5,6 C 93 % 1018,8 hPa 0,0 l/m 12,1 km/h (2 Bft) NO 56 0 min 0,000 mm 0,0 UV-I 0 W/m -4,9 C -9,6 C 20,9 km/h (4 Bft) 97,56 %
19.01.2019 03:26 -3,9 C 3,9 C -5,6 C 93 % 1018,8 hPa 0,0 l/m 11,4 km/h (2 Bft) O 82 0 min 0,000 mm 0,0 UV-I 0 W/m -4,9 C -9,0 C 19,3 km/h (3 Bft) 95,74 %
19.01.2019 03:28 -3,9 C 3,9 C -5,6 C 93 % 1018,8 hPa 0,0 l/m 12,7 km/h (3 Bft) O-NO 57 0 min 0,000 mm 0,0 UV-I 0 W/m -4,9 C -10,0 C 19,3 km/h (3 Bft) 100,00 %
19.01.2019 03:30 -3,9 C 3,3 C -5,6 C 93 % 1018,8 hPa 0,0 l/m 13,4 km/h (3 Bft) O 92 0 min 0,000 mm 0,0 UV-I 0 W/m -4,9 C -10,6 C 19,3 km/h (3 Bft) 100,00 %
19.01.2019 03:32 -3,9 C 3,3 C -5,6 C 93 % 1018,8 hPa 0,0 l/m 7,9 km/h (2 Bft) O-NO 74 0 min 0,000 mm 0,0 UV-I 0 W/m -4,9 C -5,6 C 14,5 km/h (3 Bft) 97,22 %
19.01.2019 03:34 -3,9 C 3,9 C -5,6 C 93 % 1018,7 hPa 0,0 l/m 12,8 km/h (3 Bft) O 84 0 min 0,000 mm 0,0 UV-I 0 W/m -4,9 C -10,1 C 17,7 km/h (3 Bft) 100,00 %
19.01.2019 03:36 -3,9 C 3,3 C -5,6 C 93 % 1018,7 hPa 0,0 l/m 12,2 km/h (2 Bft) NO 50 0 min 0,000 mm 0,0 UV-I 0 W/m -4,9 C -9,7 C 16,1 km/h (3 Bft) 100,00 %
19.01.2019 03:38 -3,8 C 3,3 C -5,6 C 93 % 1018,7 hPa 0,0 l/m 8,9 km/h (2 Bft) O-NO 61 0 min 0,000 mm 0,0 UV-I 0 W/m -4,8 C -6,6 C 16,1 km/h (3 Bft) 100,00 %
19.01.2019 03:40 -3,8 C 3,3 C -5,6 C 93 % 1018,7 hPa 0,0 l/m 8,4 km/h (2 Bft) NO 38 0 min 0,000 mm 0,0 UV-I 0 W/m -4,8 C -6,1 C 12,9 km/h (3 Bft) 98,00 %
19.01.2019 03:42 -3,8 C 3,3 C -5,0 C 93 % 1018,7 hPa 0,0 l/m 11,6 km/h (2 Bft) O-NO 59 0 min 0,000 mm 0,0 UV-I 0 W/m -4,8 C -9,1 C 19,3 km/h (3 Bft) 100,00 %
19.01.2019 03:44 -3,8 C 3,3 C -5,6 C 93 % 1018,7 hPa 0,0 l/m 9,4 km/h (2 Bft) O 90 0 min 0,000 mm 0,0 UV-I 0 W/m -4,8 C -7,1 C 14,5 km/h (3 Bft) 100,00 %
19.01.2019 03:46 -3,8 C 3,3 C -5,0 C 93 % 1018,6 hPa 0,0 l/m 10,3 km/h (2 Bft) O 87 0 min 0,000 mm 0,0 UV-I 0 W/m -4,8 C -7,9 C 16,1 km/h (3 Bft) 95,74 %
19.01.2019 03:48 -3,8 C 3,3 C -5,0 C 93 % 1018,6 hPa 0,0 l/m 11,5 km/h (2 Bft) O 90 0 min 0,000 mm 0,0 UV-I 0 W/m -4,8 C -9,0 C 16,1 km/h (3 Bft) 97,37 %
19.01.2019 03:50 -3,8 C 3,3 C -5,0 C 93 % 1018,6 hPa 0,0 l/m 11,2 km/h (2 Bft) NO 52 0 min 0,000 mm 0,0 UV-I 0 W/m -4,8 C -8,7 C 16,1 km/h (3 Bft) 98,11 %
19.01.2019 03:52 -3,8 C 3,3 C -5,6 C 93 % 1018,5 hPa 0,0 l/m 9,9 km/h (2 Bft) O-NO 74 0 min 0,000 mm 0,0 UV-I 0 W/m -4,8 C -7,6 C 16,1 km/h (3 Bft) 98,00 %
19.01.2019 03:54 -3,8 C 3,9 C -5,6 C 93 % 1018,5 hPa 0,0 l/m 9,1 km/h (2 Bft) NO 52 0 min 0,000 mm 0,0 UV-I 0 W/m -4,8 C -6,8 C 12,9 km/h (3 Bft) 94,74 %
19.01.2019 03:56 -3,8 C 3,9 C -5,6 C 93 % 1018,5 hPa 0,0 l/m 11,8 km/h (2 Bft) NO 53 0 min 0,000 mm 0,0 UV-I 0 W/m -4,8 C -9,2 C 17,7 km/h (3 Bft) 96,23 %
19.01.2019 03:58 -3,8 C 3,9 C -5,0 C 93 % 1018,5 hPa 0,0 l/m 10,9 km/h (2 Bft) O-NO 58 0 min 0,000 mm 0,0 UV-I 0 W/m -4,8 C -8,5 C 16,1 km/h (3 Bft) 100,00 %
19.01.2019 04:00 -3,8 C 3,9 C -5,6 C 93 % 1018,5 hPa 0,0 l/m 9,9 km/h (2 Bft) NO 54 0 min 0,000 mm 0,0 UV-I 0 W/m -4,8 C -7,6 C 16,1 km/h (3 Bft) 96,00 %
19.01.2019 04:02 -3,8 C 3,9 C -5,6 C 93 % 1018,4 hPa 0,0 l/m 11,4 km/h (2 Bft) O-NO 65 0 min 0,000 mm 0,0 UV-I 0 W/m -4,8 C -8,9 C 16,1 km/h (3 Bft) 100,00 %
19.01.2019 04:04 -3,8 C 3,9 C -5,0 C 93 % 1018,4 hPa 0,0 l/m 11,5 km/h (2 Bft) NO 35 0 min 0,000 mm 0,0 UV-I 0 W/m -4,8 C -9,0 C 17,7 km/h (3 Bft) 98,11 %
19.01.2019 04:06 -3,8 C 3,9 C -5,6 C 93 % 1018,4 hPa 0,0 l/m 11,4 km/h (2 Bft) O-NO 78 0 min 0,000 mm 0,0 UV-I 0 W/m -4,8 C -8,9 C 16,1 km/h (3 Bft) 100,00 %
19.01.2019 04:08 -3,8 C 3,9 C -5,6 C 93 % 1018,4 hPa 0,0 l/m 10,6 km/h (2 Bft) NO 36 0 min 0,000 mm 0,0 UV-I 0 W/m -4,8 C -8,2 C 16,1 km/h (3 Bft) 97,56 %
19.01.2019 04:10 -3,8 C 3,9 C -5,6 C 93 % 1018,4 hPa 0,0 l/m 10,7 km/h (2 Bft) O-NO 69 0 min 0,000 mm 0,0 UV-I 0 W/m -4,8 C -8,3 C 17,7 km/h (3 Bft) 100,00 %
19.01.2019 04:12 -3,8 C 3,9 C -5,6 C 93 % 1018,4 hPa 0,0 l/m 10,8 km/h (2 Bft) O-NO 77 0 min 0,000 mm 0,0 UV-I 0 W/m -4,8 C -8,4 C 16,1 km/h (3 Bft) 100,00 %
19.01.2019 04:14 -3,9 C 3,9 C -5,6 C 93 % 1018,4 hPa 0,0 l/m 13,0 km/h (3 Bft) NO 56 0 min 0,000 mm 0,0 UV-I 0 W/m -4,9 C -10,3 C 20,9 km/h (4 Bft) 100,00 %
19.01.2019 04:16 -3,9 C 3,9 C -5,6 C 93 % 1018,4 hPa 0,0 l/m 11,9 km/h (2 Bft) O-NO 69 0 min 0,000 mm 0,0 UV-I 0 W/m -4,9 C -9,4 C 17,7 km/h (3 Bft) 100,00 %
19.01.2019 04:18 -3,9 C 3,3 C -5,6 C 93 % 1018,4 hPa 0,0 l/m 13,7 km/h (3 Bft) NO 54 0 min 0,000 mm 0,0 UV-I 0 W/m -4,9 C -10,8 C 17,7 km/h (3 Bft) 97,37 %
19.01.2019 04:20 -3,9 C 3,3 C -5,6 C 93 % 1018,4 hPa 0,0 l/m 9,5 km/h (2 Bft) O 80 0 min 0,000 mm 0,0 UV-I 0 W/m -4,9 C -7,3 C 12,9 km/h (3 Bft) 98,31 %
19.01.2019 04:22 -3,9 C 3,9 C -5,6 C 93 % 1018,4 hPa 0,0 l/m 12,2 km/h (2 Bft) O-NO 70 0 min 0,000 mm 0,0 UV-I 0 W/m -4,9 C -9,7 C 16,1 km/h (3 Bft) 97,37 %
19.01.2019 04:24 -3,9 C 3,9 C -5,6 C 92 % 1018,4 hPa 0,0 l/m 10,1 km/h (2 Bft) NO 48 0 min 0,000 mm 0,0 UV-I 0 W/m -5,0 C -7,9 C 14,5 km/h (3 Bft) 98,21 %
19.01.2019 04:26 -3,9 C 3,9 C -5,6 C 92 % 1018,4 hPa 0,0 l/m 9,9 km/h (2 Bft) O 96 0 min 0,000 mm 0,0 UV-I 0 W/m -5,0 C -7,7 C 17,7 km/h (3 Bft) 100,00 %
19.01.2019 04:28 -3,9 C 3,9 C -5,6 C 92 % 1018,4 hPa 0,0 l/m 10,6 km/h (2 Bft) O-NO 69 0 min 0,000 mm 0,0 UV-I 0 W/m -5,0 C -8,3 C 14,5 km/h (3 Bft) 100,00 %
19.01.2019 04:30 -3,9 C 3,9 C -5,6 C 92 % 1018,4 hPa 0,0 l/m 9,5 km/h (2 Bft) O-NO 71 0 min 0,000 mm 0,0 UV-I 0 W/m -5,0 C -7,3 C 17,7 km/h (3 Bft) 100,00 %
19.01.2019 04:32 -3,9 C 3,9 C -6,1 C 92 % 1018,4 hPa 0,0 l/m 9,9 km/h (2 Bft) NO 47 0 min 0,000 mm 0,0 UV-I 0 W/m -5,0 C -7,7 C 16,1 km/h (3 Bft) 100,00 %
19.01.2019 04:34 -3,9 C 3,9 C -6,1 C 92 % 1018,4 hPa 0,0 l/m 7,9 km/h (2 Bft) NO 42 0 min 0,000 mm 0,0 UV-I 0 W/m -5,0 C -5,6 C 12,9 km/h (3 Bft) 98,11 %
19.01.2019 04:36 -3,9 C 3,9 C -6,1 C 92 % 1018,4 hPa 0,0 l/m 10,8 km/h (2 Bft) O-NO 63 0 min 0,000 mm 0,0 UV-I 0 W/m -5,0 C -8,5 C 20,9 km/h (4 Bft) 100,00 %
19.01.2019 04:38 -4,0 C 3,9 C -6,1 C 91 % 1018,3 hPa 0,0 l/m 11,9 km/h (2 Bft) NO 46 0 min 0,000 mm 0,0 UV-I 0 W/m -5,2 C -9,5 C 17,7 km/h (3 Bft) 95,74 %
19.01.2019 04:40 -3,9 C 3,3 C -6,1 C 91 % 1018,3 hPa 0,0 l/m 10,9 km/h (2 Bft) NO 51 0 min 0,000 mm 0,0 UV-I 0 W/m -5,1 C -8,6 C 19,3 km/h (3 Bft) 96,23 %
19.01.2019 04:42 -4,0 C 3,9 C -6,1 C 91 % 1018,3 hPa 0,0 l/m 12,6 km/h (3 Bft) O-NO 69 0 min 0,000 mm 0,0 UV-I 0 W/m -5,2 C -10,1 C 20,9 km/h (4 Bft) 97,37 %
19.01.2019 04:45 -4,0 C 3,9 C -5,6 C 91 % 1018,3 hPa 0,0 l/m 11,7 km/h (2 Bft) O-NO 63 0 min 0,000 mm 0,0 UV-I 0 W/m -5,2 C -9,4 C 17,7 km/h (3 Bft) 98,80 %
19.01.2019 04:46 -4,0 C 3,9 C -6,1 C 91 % 1018,3 hPa 0,0 l/m 11,6 km/h (2 Bft) O-NO 74 0 min 0,000 mm 0,0 UV-I 0 W/m -5,2 C -9,3 C 16,1 km/h (3 Bft) 92,86 %
19.01.2019 04:48 -4,0 C 3,9 C -6,1 C 91 % 1018,3 hPa 0,0 l/m 10,9 km/h (2 Bft) O-NO 78 0 min 0,000 mm 0,0 UV-I 0 W/m -5,2 C -8,7 C 17,7 km/h (3 Bft) 97,44 %
19.01.2019 04:50 -4,0 C 3,3 C -6,1 C 91 % 1018,3 hPa 0,0 l/m 10,1 km/h (2 Bft) O-NO 76 0 min 0,000 mm 0,0 UV-I 0 W/m -5,2 C -8,0 C 16,1 km/h (3 Bft) 98,28 %
19.01.2019 04:52 -4,1 C 3,3 C -6,1 C 91 % 1018,2 hPa 0,0 l/m 11,9 km/h (2 Bft) O-NO 72 0 min 0,000 mm 0,0 UV-I 0 W/m -5,3 C -9,6 C 17,7 km/h (3 Bft) 97,44 %
19.01.2019 04:54 -4,1 C 3,9 C -6,1 C 91 % 1018,2 hPa 0,0 l/m 9,9 km/h (2 Bft) O-NO 72 0 min 0,000 mm 0,0 UV-I 0 W/m -5,3 C -7,9 C 16,1 km/h (3 Bft) 92,86 %
19.01.2019 04:56 -4,1 C 3,9 C -6,1 C 91 % 1018,3 hPa 0,0 l/m 12,4 km/h (3 Bft) O-NO 68 0 min 0,000 mm 0,0 UV-I 0 W/m -5,3 C -10,0 C 16,1 km/h (3 Bft) 90,24 %
19.01.2019 04:58 -4,1 C 3,9 C -6,1 C 91 % 1018,2 hPa 0,0 l/m 10,4 km/h (2 Bft) O 80 0 min 0,000 mm 0,0 UV-I 0 W/m -5,3 C -8,3 C 14,5 km/h (3 Bft) 94,00 %
19.01.2019 05:00 -4,1 C 3,9 C -6,1 C 91 % 1018,2 hPa 0,0 l/m 11,7 km/h (2 Bft) O 82 0 min 0,000 mm 0,0 UV-I 0 W/m -5,3 C -9,5 C 17,7 km/h (3 Bft) 93,62 %
19.01.2019 05:02 -4,1 C 3,9 C -6,1 C 91 % 1018,2 hPa 0,0 l/m 12,8 km/h (3 Bft) O 91 0 min 0,000 mm 0,0 UV-I 0 W/m -5,3 C -10,4 C 17,7 km/h (3 Bft) 91,43 %
19.01.2019 05:04 -4,1 C 3,9 C -6,1 C 91 % 1018,2 hPa 0,0 l/m 11,8 km/h (2 Bft) O-NO 67 0 min 0,000 mm 0,0 UV-I 0 W/m -5,3 C -9,6 C 17,7 km/h (3 Bft) 93,33 %
19.01.2019 05:06 -4,1 C 3,9 C -6,1 C 90 % 1018,2 hPa 0,0 l/m 13,2 km/h (3 Bft) O 79 0 min 0,000 mm 0,0 UV-I 0 W/m -5,5 C -10,7 C 17,7 km/h (3 Bft) 93,18 %
19.01.2019 05:08 -4,1 C 3,9 C -6,1 C 90 % 1018,2 hPa 0,0 l/m 10,7 km/h (2 Bft) O 80 0 min 0,000 mm 0,0 UV-I 0 W/m -5,5 C -8,6 C 17,7 km/h (3 Bft) 92,68 %
19.01.2019 05:10 -4,1 C 3,9 C -6,1 C 90 % 1018,2 hPa 0,0 l/m 12,1 km/h (2 Bft) O-NO 72 0 min 0,000 mm 0,0 UV-I 0 W/m -5,5 C -9,8 C 16,1 km/h (3 Bft) 95,12 %
19.01.2019 05:12 -4,1 C 3,9 C -6,1 C 90 % 1018,2 hPa 0,0 l/m 12,8 km/h (3 Bft) O-NO 69 0 min 0,000 mm 0,0 UV-I 0 W/m -5,5 C -10,4 C 17,7 km/h (3 Bft) 89,83 %
19.01.2019 05:14 -4,1 C 3,9 C -6,1 C 90 % 1018,0 hPa 0,0 l/m 14,0 km/h (3 Bft) NO 44 0 min 0,000 mm 0,0 UV-I 0 W/m -5,5 C -11,3 C 19,3 km/h (3 Bft) 95,12 %
19.01.2019 05:16 -4,1 C 3,9 C -6,1 C 90 % 1018,1 hPa 0,0 l/m 10,6 km/h (2 Bft) O-NO 74 0 min 0,000 mm 0,0 UV-I 0 W/m -5,5 C -8,5 C 14,5 km/h (3 Bft) 96,00 %
19.01.2019 05:18 -4,1 C 3,3 C -5,6 C 90 % 1018,1 hPa 0,0 l/m 11,7 km/h (2 Bft) O-NO 67 0 min 0,000 mm 0,0 UV-I 0 W/m -5,5 C -9,5 C 17,7 km/h (3 Bft) 92,11 %
19.01.2019 05:20 -4,1 C 3,3 C -5,6 C 90 % 1018,2 hPa 0,0 l/m 12,7 km/h (3 Bft) O-NO 64 0 min 0,000 mm 0,0 UV-I 0 W/m -5,5 C -10,3 C 14,5 km/h (3 Bft) 95,74 %
19.01.2019 05:22 -4,1 C 3,9 C -5,6 C 90 % 1018,2 hPa 0,0 l/m 12,3 km/h (3 Bft) O-NO 65 0 min 0,000 mm 0,0 UV-I 0 W/m -5,5 C -10,0 C 16,1 km/h (3 Bft) 96,43 %
19.01.2019 05:24 -4,1 C 3,9 C -6,1 C 90 % 1018,1 hPa 0,0 l/m 13,2 km/h (3 Bft) O 90 0 min 0,000 mm 0,0 UV-I 0 W/m -5,5 C -10,7 C 17,7 km/h (3 Bft) 94,87 %
19.01.2019 05:26 -4,1 C 3,3 C -5,6 C 90 % 1018,1 hPa 0,0 l/m 13,5 km/h (3 Bft) NO 54 0 min 0,000 mm 0,0 UV-I 0 W/m -5,5 C -10,9 C 20,9 km/h (4 Bft) 94,55 %
19.01.2019 05:28 -4,1 C 3,3 C -5,6 C 90 % 1018,1 hPa 0,0 l/m 12,8 km/h (3 Bft) O-NO 74 0 min 0,000 mm 0,0 UV-I 0 W/m -5,5 C -10,4 C 19,3 km/h (3 Bft) 94,34 %
19.01.2019 05:30 -4,1 C 3,3 C -5,6 C 90 % 1018,1 hPa 0,0 l/m 15,6 km/h (3 Bft) O 88 0 min 0,000 mm 0,0 UV-I 0 W/m -5,5 C -12,3 C 20,9 km/h (4 Bft) 97,87 %
19.01.2019 05:32 -4,1 C 3,3 C -5,6 C 90 % 1018,1 hPa 0,0 l/m 15,1 km/h (3 Bft) O-NO 63 0 min 0,000 mm 0,0 UV-I 0 W/m -5,5 C -12,0 C 19,3 km/h (3 Bft) 97,62 %
19.01.2019 05:34 -4,0 C 3,3 C -5,6 C 90 % 1018,1 hPa 0,0 l/m 11,7 km/h (2 Bft) O 80 0 min 0,000 mm 0,0 UV-I 0 W/m -5,4 C -9,4 C 17,7 km/h (3 Bft) 97,56 %
19.01.2019 05:36 -4,0 C 3,3 C -5,6 C 90 % 1018,0 hPa 0,0 l/m 14,3 km/h (3 Bft) O-NO 69 0 min 0,000 mm 0,0 UV-I 0 W/m -5,4 C -11,3 C 20,9 km/h (4 Bft) 100,00 %
19.01.2019 05:38 -4,0 C 3,3 C -5,6 C 90 % 1018,0 hPa 0,0 l/m 12,3 km/h (3 Bft) O-NO 63 0 min 0,000 mm 0,0 UV-I 0 W/m -5,4 C -9,8 C 16,1 km/h (3 Bft) 100,00 %
19.01.2019 05:40 -4,1 C 3,3 C -5,6 C 90 % 1018,0 hPa 0,0 l/m 14,2 km/h (3 Bft) O-NO 69 0 min 0,000 mm 0,0 UV-I 0 W/m -5,5 C -11,4 C 20,9 km/h (4 Bft) 100,00 %
19.01.2019 05:42 -4,1 C 3,9 C -6,1 C 90 % 1018,0 hPa 0,0 l/m 13,3 km/h (3 Bft) O 88 0 min 0,000 mm 0,0 UV-I 0 W/m -5,5 C -10,7 C 17,7 km/h (3 Bft) 100,00 %
19.01.2019 05:44 -4,1 C 3,9 C -6,1 C 90 % 1018,0 hPa 0,0 l/m 12,7 km/h (3 Bft) O 80 0 min 0,000 mm 0,0 UV-I 0 W/m -5,5 C -10,3 C 17,7 km/h (3 Bft) 95,12 %
19.01.2019 05:46 -4,1 C 3,3 C -6,1 C 90 % 1018,0 hPa 0,0 l/m 13,0 km/h (3 Bft) O-NO 71 0 min 0,000 mm 0,0 UV-I 0 W/m -5,5 C -10,5 C 17,7 km/h (3 Bft) 100,00 %
19.01.2019 05:48 -4,1 C 3,3 C -5,6 C 90 % 1018,0 hPa 0,0 l/m 12,6 km/h (3 Bft) O-NO 78 0 min 0,000 mm 0,0 UV-I 0 W/m -5,5 C -10,2 C 16,1 km/h (3 Bft) 100,00 %
19.01.2019 05:50 -4,1 C 3,3 C -5,6 C 90 % 1018,1 hPa 0,0 l/m 12,4 km/h (3 Bft) O 92 0 min 0,000 mm 0,0 UV-I 0 W/m -5,5 C -10,0 C 17,7 km/h (3 Bft) 100,00 %
19.01.2019 05:52 -4,1 C 3,3 C -5,6 C 90 % 1018,0 hPa 0,0 l/m 13,8 km/h (3 Bft) O-NO 68 0 min 0,000 mm 0,0 UV-I 0 W/m -5,5 C -11,1 C 19,3 km/h (3 Bft) 94,64 %
19.01.2019 05:54 -4,1 C 3,3 C -5,6 C 90 % 1018,0 hPa 0,0 l/m 16,5 km/h (3 Bft) O-NO 73 0 min 0,000 mm 0,0 UV-I 0 W/m -5,5 C -12,9 C 20,9 km/h (4 Bft) 98,00 %
19.01.2019 05:56 -4,1 C 3,3 C -5,6 C 90 % 1018,0 hPa 0,0 l/m 15,0 km/h (3 Bft) O-NO 69 0 min 0,000 mm 0,0 UV-I 0 W/m -5,5 C -11,9 C 20,9 km/h (4 Bft) 100,00 %
19.01.2019 05:58 -4,0 C 3,9 C -5,6 C 90 % 1017,9 hPa 0,0 l/m 13,1 km/h (3 Bft) O 84 0 min 0,000 mm 0,0 UV-I 0 W/m -5,4 C -10,5 C 19,3 km/h (3 Bft) 100,00 %
19.01.2019 06:00 -4,0 C 3,9 C -5,6 C 90 % 1018,0 hPa 0,0 l/m 12,3 km/h (3 Bft) O 84 0 min 0,000 mm 0,0 UV-I 0 W/m -5,4 C -9,8 C 20,9 km/h (4 Bft) 100,00 %
19.01.2019 06:02 -3,9 C 3,3 C -5,6 C 90 % 1017,9 hPa 0,0 l/m 16,3 km/h (3 Bft) O-NO 72 0 min 0,000 mm 0,0 UV-I 0 W/m -5,3 C -12,6 C 22,5 km/h (4 Bft) 98,11 %
19.01.2019 06:04 -3,9 C 3,3 C -5,6 C 89 % 1017,9 hPa 0,0 l/m 17,3 km/h (3 Bft) O 92 0 min 0,000 mm 0,0 UV-I 0 W/m -5,4 C -13,2 C 25,7 km/h (4 Bft) 98,11 %
19.01.2019 06:06 -3,9 C 3,3 C -5,6 C 89 % 1017,9 hPa 0,0 l/m 15,8 km/h (3 Bft) O-NO 58 0 min 0,000 mm 0,0 UV-I 0 W/m -5,4 C -12,2 C 22,5 km/h (4 Bft) 97,56 %
19.01.2019 06:08 -3,9 C 3,9 C -5,6 C 89 % 1017,9 hPa 0,0 l/m 16,4 km/h (3 Bft) O-NO 61 0 min 0,000 mm 0,0 UV-I 0 W/m -5,4 C -12,6 C 22,5 km/h (4 Bft) 98,00 %
19.01.2019 06:10 -3,9 C 3,3 C -5,6 C 89 % 1017,9 hPa 0,0 l/m 14,6 km/h (3 Bft) O-NO 59 0 min 0,000 mm 0,0 UV-I 0 W/m -5,4 C -11,4 C 20,9 km/h (4 Bft) 95,74 %
19.01.2019 06:12 -3,9 C 3,3 C -5,6 C 89 % 1017,9 hPa 0,0 l/m 14,8 km/h (3 Bft) O 84 0 min 0,000 mm 0,0 UV-I 0 W/m -5,4 C -11,6 C 20,9 km/h (4 Bft) 93,33 %
19.01.2019 06:14 -3,9 C 3,3 C -5,6 C 89 % 1017,9 hPa 0,0 l/m 18,2 km/h (3 Bft) O-NO 74 0 min 0,000 mm 0,0 UV-I 0 W/m -5,4 C -13,7 C 25,7 km/h (4 Bft) 98,11 %
19.01.2019 06:16 -3,8 C 3,3 C -5,6 C 89 % 1017,9 hPa 0,0 l/m 18,8 km/h (3 Bft) O-NO 62 0 min 0,000 mm 0,0 UV-I 0 W/m -5,3 C -13,9 C 22,5 km/h (4 Bft) 97,67 %
19.01.2019 06:18 -3,8 C 3,3 C -5,6 C 88 % 1017,9 hPa 0,0 l/m 18,7 km/h (3 Bft) O-NO 58 0 min 0,000 mm 0,0 UV-I 0 W/m -5,5 C -13,8 C 27,4 km/h (4 Bft) 92,68 %
19.01.2019 06:20 -3,8 C 3,3 C -5,6 C 88 % 1017,9 hPa 0,0 l/m 13,6 km/h (3 Bft) O-NO 74 0 min 0,000 mm 0,0 UV-I 0 W/m -5,5 C -10,6 C 19,3 km/h (3 Bft) 98,00 %
19.01.2019 06:22 -3,8 C 3,3 C -5,6 C 88 % 1018,0 hPa 0,0 l/m 14,2 km/h (3 Bft) O-NO 57 0 min 0,000 mm 0,0 UV-I 0 W/m -5,5 C -11,0 C 17,7 km/h (3 Bft) 100,00 %
19.01.2019 06:24 -3,8 C 3,3 C -5,0 C 88 % 1018,0 hPa 0,0 l/m 18,0 km/h (3 Bft) O 83 0 min 0,000 mm 0,0 UV-I 0 W/m -5,5 C -13,4 C 25,7 km/h (4 Bft) 100,00 %
19.01.2019 06:26 -3,8 C 3,3 C -5,0 C 88 % 1018,0 hPa 0,0 l/m 17,5 km/h (3 Bft) O 92 0 min 0,000 mm 0,0 UV-I 0 W/m -5,5 C -13,2 C 22,5 km/h (4 Bft) 97,37 %
19.01.2019 06:28 -3,8 C 3,3 C -5,0 C 88 % 1018,0 hPa 0,0 l/m 18,1 km/h (3 Bft) O-NO 71 0 min 0,000 mm 0,0 UV-I 0 W/m -5,5 C -13,5 C 22,5 km/h (4 Bft) 100,00 %
19.01.2019 06:30 -3,8 C 3,3 C -5,6 C 88 % 1018,0 hPa 0,0 l/m 16,3 km/h (3 Bft) O-NO 64 0 min 0,000 mm 0,0 UV-I 0 W/m -5,5 C -12,4 C 22,5 km/h (4 Bft) 100,00 %
19.01.2019 06:32 -3,8 C 3,3 C -5,6 C 88 % 1018,0 hPa 0,0 l/m 16,6 km/h (3 Bft) O-NO 66 0 min 0,000 mm 0,0 UV-I 0 W/m -5,5 C -12,6 C 24,1 km/h (4 Bft) 100,00 %
19.01.2019 06:34 -3,8 C 3,3 C -5,6 C 88 % 1017,9 hPa 0,0 l/m 13,6 km/h (3 Bft) O 87 0 min 0,000 mm 0,0 UV-I 0 W/m -5,5 C -10,6 C 19,3 km/h (3 Bft) 100,00 %
19.01.2019 06:36 -3,8 C 3,3 C -5,6 C 87 % 1018,0 hPa 0,0 l/m 17,0 km/h (3 Bft) O-NO 70 0 min 0,000 mm 0,0 UV-I 0 W/m -5,6 C -12,9 C 24,1 km/h (4 Bft) 100,00 %
19.01.2019 06:38 -3,8 C 3,3 C -5,6 C 87 % 1017,9 hPa 0,0 l/m 19,5 km/h (3 Bft) O 91 0 min 0,000 mm 0,0 UV-I 0 W/m -5,6 C -14,3 C 25,7 km/h (4 Bft) 100,00 %
19.01.2019 06:40 -3,8 C 3,3 C -5,6 C 87 % 1017,9 hPa 0,0 l/m 16,3 km/h (3 Bft) O 88 0 min 0,000 mm 0,0 UV-I 0 W/m -5,6 C -12,4 C 22,5 km/h (4 Bft) 100,00 %
19.01.2019 06:42 -3,8 C 3,3 C -5,6 C 87 % 1017,9 hPa 0,0 l/m 16,0 km/h (3 Bft) O 88 0 min 0,000 mm 0,0 UV-I 0 W/m -5,6 C -12,2 C 24,1 km/h (4 Bft) 100,00 %
19.01.2019 06:44 -3,8 C 3,3 C -5,6 C 87 % 1017,9 hPa 0,0 l/m 19,1 km/h (3 Bft) NO 55 0 min 0,000 mm 0,0 UV-I 0 W/m -5,6 C -14,1 C 24,1 km/h (4 Bft) 100,00 %
19.01.2019 06:46 -3,8 C 3,3 C -5,6 C 87 % 1017,8 hPa 0,0 l/m 17,9 km/h (3 Bft) O 88 0 min 0,000 mm 0,0 UV-I 0 W/m -5,6 C -13,4 C 24,1 km/h (4 Bft) 100,00 %
19.01.2019 06:48 -3,8 C 3,3 C -5,6 C 87 % 1017,9 hPa 0,0 l/m 17,9 km/h (3 Bft) O-NO 59 0 min 0,000 mm 0,0 UV-I 0 W/m -5,6 C -13,4 C 22,5 km/h (4 Bft) 95,74 %
19.01.2019 06:50 -3,8 C 3,3 C -5,6 C 87 % 1017,8 hPa 0,0 l/m 16,3 km/h (3 Bft) O-NO 70 0 min 0,000 mm 0,0 UV-I 0 W/m -5,6 C -12,4 C 19,3 km/h (3 Bft) 100,00 %
19.01.2019 06:52 -3,8 C 3,3 C -5,6 C 87 % 1017,8 hPa 0,0 l/m 20,0 km/h (4 Bft) O-NO 61 0 min 0,000 mm 0,0 UV-I 0 W/m -5,6 C -14,5 C 27,4 km/h (4 Bft) 100,00 %
19.01.2019 06:54 -3,8 C 3,3 C -5,6 C 87 % 1017,8 hPa 0,0 l/m 19,6 km/h (3 Bft) O 79 0 min 0,000 mm 0,0 UV-I 0 W/m -5,6 C -14,3 C 24,1 km/h (4 Bft) 97,87 %
19.01.2019 06:56 -3,8 C 3,3 C -5,6 C 87 % 1017,8 hPa 0,0 l/m 20,1 km/h (4 Bft) O 87 0 min 0,000 mm 0,0 UV-I 0 W/m -5,6 C -14,6 C 24,1 km/h (4 Bft) 97,37 %
19.01.2019 06:58 -3,8 C 3,3 C -5,6 C 87 % 1017,8 hPa 0,0 l/m 20,6 km/h (4 Bft) O-NO 68 0 min 0,000 mm 0,0 UV-I 0 W/m -5,6 C -14,8 C 29,0 km/h (5 Bft) 98,21 %
19.01.2019 07:00 -3,8 C 3,3 C -5,0 C 87 % 1017,8 hPa 0,0 l/m 19,6 km/h (3 Bft) NO 56 0 min 0,025 mm 0,0 UV-I 0 W/m -5,6 C -14,3 C 27,4 km/h (4 Bft) 96,00 %
19.01.2019 07:02 -3,8 C 3,3 C -5,6 C 87 % 1017,8 hPa 0,0 l/m 18,2 km/h (3 Bft) O 80 0 min 0,000 mm 0,0 UV-I 0 W/m -5,6 C -13,6 C 24,1 km/h (4 Bft) 97,14 %
19.01.2019 07:04 -3,8 C 3,3 C -5,0 C 86 % 1017,8 hPa 0,0 l/m 19,7 km/h (3 Bft) O-NO 65 0 min 0,000 mm 0,0 UV-I 0 W/m -5,8 C -14,4 C 27,4 km/h (4 Bft) 98,00 %
19.01.2019 07:06 -3,7 C 3,3 C -5,0 C 86 % 1017,8 hPa 0,0 l/m 21,6 km/h (4 Bft) O 81 0 min 0,000 mm 0,0 UV-I 0 W/m -5,7 C -15,2 C 27,4 km/h (4 Bft) 97,87 %
19.01.2019 07:08 -3,7 C 3,3 C -5,0 C 86 % 1017,8 hPa 0,0 l/m 21,8 km/h (4 Bft) O-NO 78 0 min 0,000 mm 0,0 UV-I 0 W/m -5,7 C -15,3 C 27,4 km/h (4 Bft) 93,62 %
19.01.2019 07:10 -3,7 C 3,3 C -5,0 C 86 % 1017,8 hPa 0,0 l/m 23,6 km/h (4 Bft) O-NO 68 0 min 0,000 mm 0,0 UV-I 0 W/m -5,7 C -16,1 C 29,0 km/h (5 Bft) 92,00 %
19.01.2019 07:12 -3,7 C 3,3 C -5,0 C 86 % 1017,8 hPa 0,0 l/m 22,5 km/h (4 Bft) NO 56 0 min 0,000 mm 0,0 UV-I 0 W/m -5,7 C -15,6 C 30,6 km/h (5 Bft) 96,00 %
19.01.2019 07:15 -3,7 C 3,3 C -5,0 C 86 % 1017,8 hPa 0,0 l/m 19,8 km/h (3 Bft) O-NO 68 0 min 0,000 mm 0,0 UV-I 0 W/m -5,7 C -14,3 C 25,7 km/h (4 Bft) 95,77 %
19.01.2019 07:16 -3,7 C 3,9 C -5,0 C 86 % 1017,8 hPa 0,0 l/m 20,1 km/h (4 Bft) O-NO 67 0 min 0,000 mm 0,0 UV-I 0 W/m -5,7 C -14,5 C 24,1 km/h (4 Bft) 92,86 %
19.01.2019 07:18 -3,7 C 3,3 C -5,0 C 86 % 1017,7 hPa 0,0 l/m 17,6 km/h (3 Bft) O 86 0 min 0,000 mm 0,0 UV-I 0 W/m -5,7 C -13,1 C 27,4 km/h (4 Bft) 96,00 %
19.01.2019 07:20 -3,7 C 3,3 C -5,0 C 86 % 1017,7 hPa 0,0 l/m 19,5 km/h (3 Bft) O 82 0 min 0,000 mm 0,0 UV-I 0 W/m -5,7 C -14,1 C 27,4 km/h (4 Bft) 95,74 %
19.01.2019 07:22 -3,7 C 3,3 C -5,6 C 86 % 1017,7 hPa 0,0 l/m 20,9 km/h (4 Bft) O 86 0 min 0,000 mm 0,0 UV-I 0 W/m -5,7 C -14,9 C 27,4 km/h (4 Bft) 93,18 %
19.01.2019 07:24 -3,7 C 3,3 C -5,6 C 86 % 1017,8 hPa 0,0 l/m 18,6 km/h (3 Bft) O-NO 59 0 min 0,000 mm 0,0 UV-I 0 W/m -5,7 C -13,7 C 24,1 km/h (4 Bft) 94,64 %
19.01.2019 07:26 -3,7 C 3,3 C -5,6 C 86 % 1017,7 hPa 0,0 l/m 17,2 km/h (3 Bft) O-NO 70 0 min 0,000 mm 0,0 UV-I 0 W/m -5,7 C -12,9 C 27,4 km/h (4 Bft) 97,44 %
19.01.2019 07:28 -3,7 C 3,3 C -5,6 C 86 % 1017,8 hPa 0,0 l/m 19,6 km/h (3 Bft) O-NO 64 0 min 0,000 mm 0,0 UV-I 0 W/m -5,7 C -14,2 C 29,0 km/h (5 Bft) 92,73 %
19.01.2019 07:30 -3,7 C 3,3 C -5,6 C 86 % 1017,8 hPa 0,0 l/m 18,5 km/h (3 Bft) NO 53 0 min 0,000 mm 0,0 UV-I 0 W/m -5,7 C -13,6 C 22,5 km/h (4 Bft) 94,44 %
19.01.2019 07:32 -3,7 C 3,3 C -5,6 C 86 % 1017,8 hPa 0,0 l/m 16,2 km/h (3 Bft) O 89 0 min 0,000 mm 0,0 UV-I 0 W/m -5,7 C -12,2 C 22,5 km/h (4 Bft) 100,00 %
19.01.2019 07:34 -3,8 C 3,3 C -5,6 C 86 % 1017,8 hPa 0,0 l/m 20,4 km/h (4 Bft) O-NO 69 0 min 0,000 mm 0,0 UV-I 0 W/m -5,8 C -14,7 C 27,4 km/h (4 Bft) 100,00 %
19.01.2019 07:36 -3,7 C 3,3 C -5,6 C 86 % 1017,8 hPa 0,0 l/m 22,0 km/h (4 Bft) O 90 0 min 0,000 mm 0,0 UV-I 0 W/m -5,7 C -15,4 C 29,0 km/h (5 Bft) 96,43 %
19.01.2019 07:38 -3,7 C 3,3 C -5,6 C 85 % 1017,7 hPa 0,0 l/m 21,5 km/h (4 Bft) O-NO 67 0 min 0,000 mm 0,0 UV-I 4 W/m -5,8 C -15,2 C 30,6 km/h (5 Bft) 98,11 %
19.01.2019 07:40 -3,7 C 3,3 C -5,6 C 85 % 1017,8 hPa 0,0 l/m 19,8 km/h (3 Bft) O-NO 58 0 min 0,000 mm 0,0 UV-I 5 W/m -5,8 C -14,3 C 27,4 km/h (4 Bft) 100,00 %
19.01.2019 07:42 -3,7 C 3,9 C -5,6 C 85 % 1017,7 hPa 0,0 l/m 18,4 km/h (3 Bft) O 90 0 min 0,000 mm 0,0 UV-I 5 W/m -5,8 C -13,5 C 25,7 km/h (4 Bft) 100,00 %
19.01.2019 07:44 -3,7 C 3,3 C -5,6 C 85 % 1017,7 hPa 0,0 l/m 17,7 km/h (3 Bft) O-SO 106 0 min 0,000 mm 0,0 UV-I 5 W/m -5,8 C -13,1 C 25,7 km/h (4 Bft) 100,00 %
19.01.2019 07:46 -3,7 C 3,3 C -5,6 C 85 % 1017,7 hPa 0,0 l/m 18,7 km/h (3 Bft) O 84 0 min 0,000 mm 0,0 UV-I 5 W/m -5,8 C -13,7 C 24,1 km/h (4 Bft) 98,00 %
19.01.2019 07:48 -3,7 C 3,3 C -5,6 C 85 % 1017,7 hPa 0,0 l/m 21,2 km/h (4 Bft) O 96 0 min 0,000 mm 0,0 UV-I 6 W/m -5,8 C -15,0 C 29,0 km/h (5 Bft) 100,00 %
19.01.2019 07:50 -3,7 C 3,3 C -5,6 C 85 % 1017,8 hPa 0,0 l/m 20,9 km/h (4 Bft) O-NO 67 0 min 0,000 mm 0,0 UV-I 7 W/m -5,8 C -14,9 C 30,6 km/h (5 Bft) 98,11 %
19.01.2019 07:52 -3,7 C 3,3 C -5,6 C 85 % 1017,8 hPa 0,0 l/m 18,9 km/h (3 Bft) O 88 0 min 0,000 mm 0,0 UV-I 7 W/m -5,8 C -13,8 C 24,1 km/h (4 Bft) 100,00 %
19.01.2019 07:54 -3,7 C 3,3 C -5,6 C 85 % 1017,8 hPa 0,0 l/m 21,9 km/h (4 Bft) O-SO 112 0 min 0,000 mm 0,0 UV-I 8 W/m -5,8 C -15,4 C 33,8 km/h (5 Bft) 100,00 %
19.01.2019 07:56 -3,7 C 3,3 C -5,6 C 85 % 1017,9 hPa 0,0 l/m 22,5 km/h (4 Bft) O-NO 62 0 min 0,000 mm 0,0 UV-I 9 W/m -5,8 C -15,6 C 30,6 km/h (5 Bft) 100,00 %
19.01.2019 07:58 -3,7 C 3,3 C -5,6 C 85 % 1017,9 hPa 0,0 l/m 20,0 km/h (4 Bft) O 92 2 min 0,000 mm 0,0 UV-I 11 W/m -5,8 C -14,4 C 27,4 km/h (4 Bft) 100,00 %
19.01.2019 08:00 -3,7 C 3,3 C -5,6 C 85 % 1017,9 hPa 0,0 l/m 18,3 km/h (3 Bft) O-SO 103 2 min 0,026 mm 0,0 UV-I 11 W/m -5,8 C -13,5 C 24,1 km/h (4 Bft) 100,00 %
19.01.2019 08:02 -3,7 C 3,3 C -5,6 C 85 % 1017,9 hPa 0,0 l/m 18,2 km/h (3 Bft) O-NO 68 0 min 0,000 mm 0,0 UV-I 12 W/m -5,8 C -13,4 C 25,7 km/h (4 Bft) 100,00 %
19.01.2019 08:04 -3,7 C 3,3 C -5,6 C 85 % 1017,9 hPa 0,0 l/m 14,5 km/h (3 Bft) O-NO 74 0 min 0,000 mm 0,0 UV-I 13 W/m -5,8 C -11,1 C 20,9 km/h (4 Bft) 98,11 %
19.01.2019 08:06 -3,8 C 3,3 C -5,6 C 85 % 1017,9 hPa 0,0 l/m 16,2 km/h (3 Bft) O-NO 67 0 min 0,000 mm 0,0 UV-I 14 W/m -5,9 C -12,4 C 20,9 km/h (4 Bft) 100,00 %
19.01.2019 08:08 -3,8 C 3,3 C -5,6 C 85 % 1017,9 hPa 0,0 l/m 19,0 km/h (3 Bft) O 84 0 min 0,000 mm 0,0 UV-I 17 W/m -5,9 C -14,0 C 24,1 km/h (4 Bft) 100,00 %
19.01.2019 08:10 -3,8 C 3,3 C -5,6 C 85 % 1017,9 hPa 0,0 l/m 19,7 km/h (3 Bft) O-NO 74 0 min 0,000 mm 0,0 UV-I 19 W/m -5,9 C -14,4 C 27,4 km/h (4 Bft) 100,00 %
19.01.2019 08:12 -3,8 C 3,3 C -5,6 C 85 % 1018,0 hPa 0,0 l/m 21,8 km/h (4 Bft) O 86 0 min 0,000 mm 0,0 UV-I 20 W/m -5,9 C -15,4 C 29,0 km/h (5 Bft) 97,56 %
19.01.2019 08:14 -3,8 C 3,3 C -5,6 C 85 % 1018,0 hPa 0,0 l/m 16,1 km/h (3 Bft) O 96 0 min 0,000 mm 0,0 UV-I 22 W/m -5,9 C -12,3 C 25,7 km/h (4 Bft) 98,11 %
19.01.2019 08:16 -3,8 C 3,3 C -5,6 C 85 % 1018,0 hPa 0,0 l/m 15,2 km/h (3 Bft) O-NO 76 0 min 0,000 mm 0,0 UV-I 24 W/m -5,9 C -11,7 C 22,5 km/h (4 Bft) 100,00 %
19.01.2019 08:18 -3,8 C 3,3 C -5,0 C 85 % 1018,0 hPa 0,0 l/m 18,4 km/h (3 Bft) O-NO 65 0 min 0,000 mm 0,0 UV-I 25 W/m -5,9 C -13,7 C 25,7 km/h (4 Bft) 100,00 %
19.01.2019 08:20 -3,8 C 3,3 C -5,0 C 85 % 1018,0 hPa 0,0 l/m 17,0 km/h (3 Bft) O-NO 61 0 min 0,000 mm 0,0 UV-I 27 W/m -5,9 C -12,9 C 22,5 km/h (4 Bft) 97,96 %
19.01.2019 08:22 -3,8 C 3,3 C -5,0 C 85 % 1018,0 hPa 0,0 l/m 18,6 km/h (3 Bft) O-NO 65 0 min 0,000 mm 0,0 UV-I 29 W/m -5,9 C -13,8 C 24,1 km/h (4 Bft) 95,12 %
19.01.2019 08:24 -3,8 C 3,3 C -5,0 C 85 % 1018,0 hPa 0,0 l/m 16,3 km/h (3 Bft) O-NO 72 0 min 0,000 mm 0,0 UV-I 32 W/m -5,9 C -12,4 C 22,5 km/h (4 Bft) 98,11 %
19.01.2019 08:26 -3,8 C 3,3 C -5,0 C 85 % 1018,0 hPa 0,0 l/m 18,7 km/h (3 Bft) O-NO 61 0 min 0,000 mm 0,0 UV-I 34 W/m -5,9 C -13,8 C 22,5 km/h (4 Bft) 97,56 %
19.01.2019 08:28 -3,8 C 3,3 C -5,0 C 85 % 1018,0 hPa 0,0 l/m 18,9 km/h (3 Bft) O-SO 102 0 min 0,000 mm 0,0 UV-I 37 W/m -5,9 C -14,0 C 24,1 km/h (4 Bft) 94,00 %
19.01.2019 08:30 -3,8 C 3,3 C -5,0 C 85 % 1018,0 hPa 0,0 l/m 19,2 km/h (3 Bft) O 84 0 min 0,000 mm 0,0 UV-I 41 W/m -5,9 C -14,1 C 25,7 km/h (4 Bft) 98,11 %
19.01.2019 08:32 -3,8 C 3,3 C -5,0 C 85 % 1017,9 hPa 0,0 l/m 17,6 km/h (3 Bft) O-NO 62 0 min 0,000 mm 0,0 UV-I 43 W/m -5,9 C -13,2 C 27,4 km/h (4 Bft) 97,37 %
19.01.2019 08:34 -3,8 C 3,3 C -5,0 C 85 % 1017,9 hPa 0,0 l/m 17,4 km/h (3 Bft) O 92 0 min 0,000 mm 0,0 UV-I 45 W/m -5,9 C -13,1 C 22,5 km/h (4 Bft) 96,43 %
19.01.2019 08:36 -3,8 C 3,3 C -5,0 C 85 % 1018,0 hPa 0,0 l/m 19,5 km/h (3 Bft) O-NO 78 0 min 0,000 mm 0,0 UV-I 48 W/m -5,9 C -14,3 C 27,4 km/h (4 Bft) 95,83 %
19.01.2019 08:38 -3,8 C 3,3 C -5,0 C 85 % 1018,0 hPa 0,0 l/m 16,3 km/h (3 Bft) O-NO 74 0 min 0,000 mm 0,0 UV-I 51 W/m -5,9 C -12,4 C 20,9 km/h (4 Bft) 96,72 %
19.01.2019 08:40 -3,8 C 3,3 C -5,0 C 85 % 1018,0 hPa 0,0 l/m 17,7 km/h (3 Bft) O-NO 77 0 min 0,000 mm 0,0 UV-I 53 W/m -5,9 C -13,3 C 24,1 km/h (4 Bft) 96,43 %
19.01.2019 08:42 -3,7 C 3,3 C -4,4 C 85 % 1018,0 hPa 0,0 l/m 17,1 km/h (3 Bft) O 90 0 min 0,000 mm 0,0 UV-I 56 W/m -5,8 C -12,8 C 25,7 km/h (4 Bft) 95,12 %
19.01.2019 08:44 -3,7 C 3,3 C -4,4 C 85 % 1018,0 hPa 0,0 l/m 17,0 km/h (3 Bft) O-NO 70 0 min 0,000 mm 0,0 UV-I 59 W/m -5,8 C -12,7 C 22,5 km/h (4 Bft) 96,23 %
19.01.2019 08:46 -3,7 C 3,3 C -4,4 C 86 % 1018,0 hPa 0,0 l/m 16,0 km/h (3 Bft) O-SO 108 0 min 0,000 mm 0,0 UV-I 62 W/m -5,7 C -12,1 C 20,9 km/h (4 Bft) 97,62 %
19.01.2019 08:48 -3,7 C 3,3 C -4,4 C 86 % 1018,0 hPa 0,0 l/m 16,0 km/h (3 Bft) O-NO 65 0 min 0,000 mm 0,0 UV-I 63 W/m -5,7 C -12,1 C 22,5 km/h (4 Bft) 98,00 %
19.01.2019 08:50 -3,7 C 3,3 C -4,4 C 86 % 1018,0 hPa 0,0 l/m 15,4 km/h (3 Bft) O-NO 69 0 min 0,000 mm 0,0 UV-I 63 W/m -5,7 C -11,7 C 20,9 km/h (4 Bft) 97,50 %
19.01.2019 08:52 -3,7 C 3,3 C -4,4 C 86 % 1018,0 hPa 0,0 l/m 16,0 km/h (3 Bft) O-NO 77 0 min 0,000 mm 0,0 UV-I 62 W/m -5,7 C -12,1 C 22,5 km/h (4 Bft) 96,00 %
19.01.2019 08:54 -3,7 C 3,3 C -4,4 C 86 % 1018,0 hPa 0,0 l/m 17,8 km/h (3 Bft) O-NO 74 0 min 0,000 mm 0,0 UV-I 60 W/m -5,7 C -13,2 C 24,1 km/h (4 Bft) 97,56 %
19.01.2019 08:56 -3,7 C 3,3 C -4,4 C 86 % 1018,0 hPa 0,0 l/m 19,5 km/h (3 Bft) O-NO 76 0 min 0,000 mm 0,0 UV-I 60 W/m -5,7 C -14,1 C 27,4 km/h (4 Bft) 97,73 %
19.01.2019 08:58 -3,7 C 3,3 C -4,4 C 86 % 1018,0 hPa 0,0 l/m 18,6 km/h (3 Bft) O 80 0 min 0,000 mm 0,0 UV-I 60 W/m -5,7 C -13,7 C 24,1 km/h (4 Bft) 94,64 %
19.01.2019 09:00 -3,7 C 3,3 C -4,4 C 86 % 1018,0 hPa 0,0 l/m 19,1 km/h (3 Bft) O-NO 77 0 min 0,025 mm 0,0 UV-I 62 W/m -5,7 C -13,9 C 27,4 km/h (4 Bft) 97,73 %
19.01.2019 09:02 -3,7 C 3,3 C -4,4 C 86 % 1018,0 hPa 0,0 l/m 17,3 km/h (3 Bft) O-NO 74 0 min 0,000 mm 0,0 UV-I 64 W/m -5,7 C -12,9 C 27,4 km/h (4 Bft) 94,64 %
19.01.2019 09:05 -3,6 C 3,3 C -4,4 C 86 % 1018,0 hPa 0,0 l/m 19,0 km/h (3 Bft) O 90 0 min 0,000 mm 0,0 UV-I 71 W/m -5,6 C -13,8 C 25,7 km/h (4 Bft) 95,16 %
19.01.2019 09:06 -3,6 C 3,3 C -4,4 C 86 % 1018,0 hPa 0,0 l/m 17,6 km/h (3 Bft) O-NO 61 0 min 0,000 mm 0,0 UV-I 79 W/m -5,6 C -13,0 C 22,5 km/h (4 Bft) 94,12 %
19.01.2019 09:08 -3,6 C 3,3 C -4,4 C 86 % 1018,1 hPa 0,0 l/m 16,3 km/h (3 Bft) O-NO 59 0 min 0,000 mm 0,0 UV-I 82 W/m -5,6 C -12,2 C 22,5 km/h (4 Bft) 96,61 %
19.01.2019 09:10 -3,6 C 3,3 C -4,4 C 86 % 1018,1 hPa 0,0 l/m 18,8 km/h (3 Bft) O 86 0 min 0,000 mm 0,0 UV-I 84 W/m -5,6 C -13,6 C 25,7 km/h (4 Bft) 94,74 %
19.01.2019 09:12 -3,6 C 3,3 C -4,4 C 86 % 1018,1 hPa 0,0 l/m 16,7 km/h (3 Bft) O-SO 102 0 min 0,000 mm 0,0 UV-I 87 W/m -5,6 C -12,4 C 20,9 km/h (4 Bft) 90,00 %
19.01.2019 09:14 -3,6 C 3,3 C -4,4 C 86 % 1018,1 hPa 0,0 l/m 13,5 km/h (3 Bft) O 82 0 min 0,000 mm 0,0 UV-I 93 W/m -5,6 C -10,3 C 19,3 km/h (3 Bft) 96,23 %
19.01.2019 09:16 -3,6 C 3,3 C -4,4 C 86 % 1018,1 hPa 0,0 l/m 14,3 km/h (3 Bft) O 86 0 min 0,000 mm 0,0 UV-I 90 W/m -5,6 C -10,9 C 19,3 km/h (3 Bft) 95,12 %
19.01.2019 09:18 -3,5 C 3,3 C -4,4 C 86 % 1018,1 hPa 0,0 l/m 16,1 km/h (3 Bft) O-NO 76 0 min 0,000 mm 0,0 UV-I 86 W/m -5,5 C -11,9 C 22,5 km/h (4 Bft) 94,00 %
19.01.2019 09:20 -3,5 C 3,3 C -3,9 C 86 % 1018,1 hPa 0,0 l/m 16,6 km/h (3 Bft) O 96 0 min 0,000 mm 0,0 UV-I 99 W/m -5,5 C -12,2 C 22,5 km/h (4 Bft) 96,00 %
19.01.2019 09:22 -3,5 C 3,3 C -3,9 C 86 % 1018,1 hPa 0,0 l/m 17,5 km/h (3 Bft) O-NO 72 0 min 0,000 mm 0,0 UV-I 107 W/m -5,5 C -12,8 C 24,1 km/h (4 Bft) 94,44 %
19.01.2019 09:24 -3,5 C 3,3 C -3,9 C 86 % 1018,1 hPa 0,0 l/m 16,8 km/h (3 Bft) O 91 0 min 0,000 mm 0,0 UV-I 102 W/m -5,5 C -12,4 C 22,5 km/h (4 Bft) 94,00 %
19.01.2019 09:26 -3,4 C 3,3 C -3,9 C 86 % 1018,2 hPa 0,0 l/m 13,9 km/h (3 Bft) NO 41 0 min 0,000 mm 0,0 UV-I 103 W/m -5,4 C -10,3 C 19,3 km/h (3 Bft) 87,23 %
19.01.2019 09:28 -3,4 C 3,3 C -3,9 C 86 % 1018,2 hPa 0,0 l/m 15,3 km/h (3 Bft) O-NO 77 0 min 0,000 mm 0,0 UV-I 109 W/m -5,4 C -11,3 C 19,3 km/h (3 Bft) 92,00 %
19.01.2019 09:30 -3,4 C 3,3 C -3,9 C 85 % 1018,1 hPa 0,0 l/m 16,6 km/h (3 Bft) O-NO 75 0 min 0,000 mm 0,0 UV-I 119 W/m -5,5 C -12,1 C 20,9 km/h (4 Bft) 94,34 %
19.01.2019 09:32 -3,4 C 3,3 C -3,9 C 86 % 1018,1 hPa 0,0 l/m 13,4 km/h (3 Bft) O 95 2 min 0,000 mm 0,0 UV-I 131 W/m -5,4 C -10,0 C 20,9 km/h (4 Bft) 91,43 %
19.01.2019 09:34 -3,4 C 3,3 C -3,9 C 85 % 1018,1 hPa 0,0 l/m 15,2 km/h (3 Bft) O-NO 67 2 min 0,000 mm 0,0 UV-I 148 W/m -5,5 C -11,2 C 19,3 km/h (3 Bft) 94,00 %
19.01.2019 09:36 -3,3 C 3,9 C -3,9 C 85 % 1018,1 hPa 0,0 l/m 17,4 km/h (3 Bft) O-NO 71 2 min 0,000 mm 0,0 UV-I 157 W/m -5,5 C -12,5 C 24,1 km/h (4 Bft) 96,00 %
19.01.2019 09:38 -3,3 C 3,3 C -3,9 C 85 % 1018,1 hPa 0,0 l/m 17,5 km/h (3 Bft) O 84 2 min 0,000 mm 0,0 UV-I 162 W/m -5,5 C -12,5 C 24,1 km/h (4 Bft) 94,29 %
19.01.2019 09:40 -3,3 C 3,3 C -3,9 C 85 % 1018,0 hPa 0,0 l/m 16,6 km/h (3 Bft) O-NO 75 2 min 0,000 mm 0,0 UV-I 145 W/m -5,5 C -12,0 C 24,1 km/h (4 Bft) 95,16 %
19.01.2019 09:42 -3,3 C 3,9 C -3,9 C 85 % 1018,1 hPa 0,0 l/m 15,6 km/h (3 Bft) O-NO 66 0 min 0,000 mm 0,0 UV-I 128 W/m -5,5 C -11,4 C 20,9 km/h (4 Bft) 97,56 %
19.01.2019 09:44 -3,2 C 3,3 C -3,9 C 85 % 1018,0 hPa 0,0 l/m 17,7 km/h (3 Bft) O-NO 69 2 min 0,000 mm 0,0 UV-I 160 W/m -5,4 C -12,5 C 25,7 km/h (4 Bft) 93,18 %
19.01.2019 09:46 -3,2 C 3,3 C -3,3 C 86 % 1018,1 hPa 0,0 l/m 15,4 km/h (3 Bft) O 96 2 min 0,000 mm 0,0 UV-I 175 W/m -5,2 C -11,1 C 20,9 km/h (4 Bft) 96,00 %
19.01.2019 09:48 -3,2 C 3,3 C -3,3 C 86 % 1018,1 hPa 0,0 l/m 15,4 km/h (3 Bft) O 80 2 min 0,000 mm 0,0 UV-I 171 W/m -5,2 C -11,1 C 20,9 km/h (4 Bft) 98,00 %
19.01.2019 09:50 -3,1 C 3,3 C -3,3 C 86 % 1018,1 hPa 0,0 l/m 16,0 km/h (3 Bft) O 81 2 min 0,000 mm 0,0 UV-I 201 W/m -5,1 C -11,4 C 24,1 km/h (4 Bft) 100,00 %
19.01.2019 09:52 -3,1 C 3,9 C -3,3 C 86 % 1018,1 hPa 0,0 l/m 15,9 km/h (3 Bft) O-SO 104 2 min 0,000 mm 0,0 UV-I 200 W/m -5,1 C -11,3 C 20,9 km/h (4 Bft) 97,37 %
19.01.2019 09:54 -3,0 C 3,3 C -3,3 C 86 % 1018,1 hPa 0,0 l/m 13,8 km/h (3 Bft) O-SO 121 2 min 0,000 mm 0,0 UV-I 191 W/m -5,0 C -9,8 C 19,3 km/h (3 Bft) 96,23 %
19.01.2019 09:56 -3,0 C 3,3 C -3,3 C 85 % 1018,2 hPa 0,0 l/m 16,1 km/h (3 Bft) O 93 2 min 0,000 mm 0,0 UV-I 164 W/m -5,2 C -11,3 C 24,1 km/h (4 Bft) 100,00 %
19.01.2019 09:58 -3,0 C 3,3 C -3,3 C 85 % 1018,2 hPa 0,0 l/m 18,5 km/h (3 Bft) O-NO 77 2 min 0,000 mm 0,0 UV-I 174 W/m -5,2 C -12,7 C 27,4 km/h (4 Bft) 100,00 %
19.01.2019 10:00 -3,0 C 3,9 C -3,3 C 85 % 1018,2 hPa 0,0 l/m 16,1 km/h (3 Bft) O-NO 61 2 min 0,051 mm 0,0 UV-I 183 W/m -5,2 C -11,3 C 20,9 km/h (4 Bft) 100,00 %
19.01.2019 10:02 -2,9 C 3,9 C -3,3 C 85 % 1018,2 hPa 0,0 l/m 15,1 km/h (3 Bft) O-NO 74 2 min 0,000 mm 0,0 UV-I 173 W/m -5,1 C -10,6 C 24,1 km/h (4 Bft) 100,00 %
19.01.2019 10:05 -2,9 C 3,3 C -3,3 C 85 % 1018,2 hPa 0,0 l/m 11,4 km/h (2 Bft) O-NO 63 3 min 0,000 mm 0,0 UV-I 154 W/m -5,1 C -7,9 C 16,1 km/h (3 Bft) 100,00 %
19.01.2019 10:06 -2,9 C 3,9 C -3,3 C 85 % 1018,2 hPa 0,0 l/m 10,8 km/h (2 Bft) O 97 0 min 0,000 mm 0,0 UV-I 141 W/m -5,1 C -7,4 C 16,1 km/h (3 Bft) 100,00 %
19.01.2019 10:08 -2,9 C 3,9 C -3,3 C 85 % 1018,1 hPa 0,0 l/m 13,2 km/h (3 Bft) O-SO 117 0 min 0,000 mm 0,0 UV-I 141 W/m -5,1 C -9,2 C 20,9 km/h (4 Bft) 100,00 %
19.01.2019 10:10 -2,9 C 3,9 C -3,3 C 85 % 1018,1 hPa 0,0 l/m 14,8 km/h (3 Bft) O-SO 111 0 min 0,000 mm 0,0 UV-I 143 W/m -5,1 C -10,4 C 20,9 km/h (4 Bft) 98,11 %
19.01.2019 10:12 -2,9 C 3,9 C -2,8 C 85 % 1018,2 hPa 0,0 l/m 21,4 km/h (4 Bft) O 86 0 min 0,000 mm 0,0 UV-I 152 W/m -5,1 C -14,1 C 29,0 km/h (5 Bft) 100,00 %
19.01.2019 10:14 -2,9 C 3,9 C -2,8 C 84 % 1018,2 hPa 0,0 l/m 18,8 km/h (3 Bft) O-NO 66 0 min 0,000 mm 0,0 UV-I 154 W/m -5,2 C -12,8 C 22,5 km/h (4 Bft) 100,00 %
19.01.2019 10:16 -2,9 C 3,9 C -2,8 C 84 % 1018,3 hPa 0,0 l/m 19,2 km/h (3 Bft) O 87 2 min 0,000 mm 0,0 UV-I 162 W/m -5,2 C -13,0 C 24,1 km/h (4 Bft) 100,00 %
19.01.2019 10:18 -2,9 C 3,9 C -2,8 C 84 % 1018,2 hPa 0,0 l/m 15,3 km/h (3 Bft) NO 51 2 min 0,000 mm 0,0 UV-I 183 W/m -5,2 C -10,7 C 25,7 km/h (4 Bft) 97,37 %
19.01.2019 10:20 -2,9 C 3,9 C -2,8 C 85 % 1018,2 hPa 0,0 l/m 16,8 km/h (3 Bft) O-SO 104 2 min 0,000 mm 0,0 UV-I 191 W/m -5,1 C -11,6 C 22,5 km/h (4 Bft) 100,00 %
19.01.2019 10:22 -2,8 C 3,9 C -2,8 C 84 % 1018,3 hPa 0,0 l/m 16,0 km/h (3 Bft) O 90 2 min 0,000 mm 0,0 UV-I 194 W/m -5,1 C -11,0 C 20,9 km/h (4 Bft) 100,00 %
19.01.2019 10:24 -2,8 C 3,9 C -2,8 C 84 % 1018,3 hPa 0,0 l/m 17,6 km/h (3 Bft) O 79 2 min 0,000 mm 0,0 UV-I 197 W/m -5,1 C -12,0 C 22,5 km/h (4 Bft) 100,00 %
19.01.2019 10:26 -2,8 C 3,9 C -2,2 C 85 % 1018,3 hPa 0,0 l/m 17,9 km/h (3 Bft) O 94 2 min 0,000 mm 0,0 UV-I 217 W/m -5,0 C -12,1 C 20,9 km/h (4 Bft) 98,11 %
19.01.2019 10:28 -2,7 C 3,9 C -2,2 C 85 % 1018,3 hPa 0,0 l/m 20,1 km/h (4 Bft) O-NO 63 2 min 0,000 mm 0,0 UV-I 240 W/m -4,9 C -13,2 C 29,0 km/h (5 Bft) 100,00 %
19.01.2019 10:30 -2,7 C 3,9 C -2,2 C 84 % 1018,3 hPa 0,0 l/m 16,3 km/h (3 Bft) O 99 2 min 0,000 mm 0,0 UV-I 246 W/m -5,0 C -11,1 C 25,7 km/h (4 Bft) 95,74 %
19.01.2019 10:32 -2,7 C 3,9 C -2,2 C 84 % 1018,3 hPa 0,0 l/m 14,2 km/h (3 Bft) O-NO 74 2 min 0,000 mm 0,0 UV-I 250 W/m -5,0 C -9,7 C 20,9 km/h (4 Bft) 100,00 %
19.01.2019 10:34 -2,6 C 3,9 C -2,2 C 84 % 1018,3 hPa 0,0 l/m 17,3 km/h (3 Bft) O-NO 72 2 min 0,000 mm 0,0 UV-I 243 W/m -4,9 C -11,5 C 24,1 km/h (4 Bft) 97,37 %
19.01.2019 10:36 -2,6 C 3,9 C -2,2 C 84 % 1018,3 hPa 0,0 l/m 17,5 km/h (3 Bft) O 88 2 min 0,000 mm 0,0 UV-I 245 W/m -4,9 C -11,7 C 25,7 km/h (4 Bft) 97,44 %
19.01.2019 10:38 -2,5 C 3,9 C -1,7 C 84 % 1018,4 hPa 0,0 l/m 17,0 km/h (3 Bft) O 90 2 min 0,000 mm 0,0 UV-I 252 W/m -4,8 C -11,2 C 27,4 km/h (4 Bft) 96,88 %
19.01.2019 10:40 -2,5 C 3,9 C -1,7 C 84 % 1018,3 hPa 0,0 l/m 20,0 km/h (4 Bft) O 97 2 min 0,000 mm 0,0 UV-I 254 W/m -4,8 C -12,9 C 25,7 km/h (4 Bft) 100,00 %
19.01.2019 10:42 -2,5 C 3,9 C -1,7 C 83 % 1018,3 hPa 0,0 l/m 17,5 km/h (3 Bft) O 87 2 min 0,000 mm 0,0 UV-I 225 W/m -5,0 C -11,5 C 25,7 km/h (4 Bft) 96,23 %
19.01.2019 10:44 -2,4 C 3,9 C -1,7 C 83 % 1018,3 hPa 0,0 l/m 15,8 km/h (3 Bft) O 98 2 min 0,000 mm 0,0 UV-I 237 W/m -4,9 C -10,4 C 20,9 km/h (4 Bft) 97,87 %
19.01.2019 10:46 -2,4 C 3,9 C -1,1 C 83 % 1018,3 hPa 0,0 l/m 13,8 km/h (3 Bft) O-SO 113 2 min 0,000 mm 0,4 UV-I 263 W/m -4,9 C -9,1 C 19,3 km/h (3 Bft) 95,12 %
19.01.2019 10:48 -2,3 C 3,9 C -1,1 C 83 % 1018,3 hPa 0,0 l/m 16,0 km/h (3 Bft) O 88 2 min 0,000 mm 0,5 UV-I 275 W/m -4,8 C -10,4 C 25,7 km/h (4 Bft) 97,87 %
19.01.2019 10:50 -2,3 C 3,9 C -1,1 C 83 % 1018,2 hPa 0,0 l/m 17,0 km/h (3 Bft) O-NO 71 2 min 0,000 mm 0,5 UV-I 296 W/m -4,8 C -11,0 C 22,5 km/h (4 Bft) 95,74 %
19.01.2019 10:52 -2,3 C 3,9 C -1,1 C 83 % 1018,2 hPa 0,0 l/m 16,8 km/h (3 Bft) O 80 2 min 0,000 mm 0,5 UV-I 271 W/m -4,8 C -10,9 C 24,1 km/h (4 Bft) 98,11 %
19.01.2019 10:54 -2,3 C 3,9 C -1,1 C 83 % 1018,2 hPa 0,0 l/m 17,7 km/h (3 Bft) O-NO 69 2 min 0,000 mm 0,5 UV-I 272 W/m -4,8 C -11,4 C 24,1 km/h (4 Bft) 95,45 %
19.01.2019 10:56 -2,3 C 3,9 C -1,1 C 82 % 1018,2 hPa 0,0 l/m 20,4 km/h (4 Bft) O 97 2 min 0,000 mm 0,5 UV-I 255 W/m -4,9 C -12,8 C 25,7 km/h (4 Bft) 100,00 %
19.01.2019 10:58 -2,3 C 3,9 C -1,7 C 82 % 1018,2 hPa 0,0 l/m 20,8 km/h (4 Bft) O 81 2 min 0,000 mm 0,5 UV-I 206 W/m -4,9 C -13,0 C 27,4 km/h (4 Bft) 97,56 %
19.01.2019 11:00 -2,3 C 3,9 C -1,7 C 82 % 1018,2 hPa 0,0 l/m 19,7 km/h (3 Bft) NO 55 2 min 0,076 mm 0,5 UV-I 196 W/m -4,9 C -12,5 C 29,0 km/h (5 Bft) 95,74 %
19.01.2019 11:02 -2,3 C 3,9 C -1,7 C 82 % 1018,2 hPa 0,0 l/m 16,9 km/h (3 Bft) O 93 2 min 0,000 mm 0,5 UV-I 200 W/m -4,9 C -10,9 C 25,7 km/h (4 Bft) 95,74 %
19.01.2019 11:04 -2,3 C 3,9 C -1,7 C 82 % 1018,2 hPa 0,0 l/m 20,2 km/h (4 Bft) O-NO 74 2 min 0,000 mm 0,5 UV-I 216 W/m -4,9 C -12,7 C 25,7 km/h (4 Bft) 98,11 %
19.01.2019 11:06 -2,3 C 3,9 C -1,1 C 82 % 1018,2 hPa 0,0 l/m 16,5 km/h (3 Bft) NO 53 2 min 0,000 mm 0,5 UV-I 239 W/m -4,9 C -10,7 C 24,1 km/h (4 Bft) 97,37 %
19.01.2019 11:08 -2,3 C 3,9 C -1,1 C 82 % 1018,1 hPa 0,0 l/m 15,8 km/h (3 Bft) O 88 2 min 0,000 mm 0,5 UV-I 230 W/m -4,9 C -10,3 C 22,5 km/h (4 Bft) 98,21 %
19.01.2019 11:10 -2,2 C 3,9 C -1,1 C 82 % 1018,2 hPa 0,0 l/m 15,5 km/h (3 Bft) O-NO 57 2 min 0,000 mm 0,5 UV-I 243 W/m -4,8 C -10,0 C 20,9 km/h (4 Bft) 94,74 %
19.01.2019 11:12 -2,2 C 3,9 C -1,1 C 82 % 1018,1 hPa 0,0 l/m 17,6 km/h (3 Bft) O 95 2 min 0,000 mm 0,5 UV-I 258 W/m -4,8 C -11,2 C 22,5 km/h (4 Bft) 96,43 %
19.01.2019 11:14 -2,1 C 3,9 C -1,1 C 82 % 1018,1 hPa 0,0 l/m 17,4 km/h (3 Bft) O-NO 70 2 min 0,000 mm 0,5 UV-I 267 W/m -4,7 C -11,0 C 24,1 km/h (4 Bft) 97,87 %
19.01.2019 11:16 -2,1 C 3,9 C -1,1 C 82 % 1018,2 hPa 0,0 l/m 16,4 km/h (3 Bft) O-NO 67 2 min 0,000 mm 0,5 UV-I 288 W/m -4,7 C -10,4 C 20,9 km/h (4 Bft) 95,74 %
19.01.2019 11:18 -2,1 C 3,9 C -0,6 C 82 % 1018,1 hPa 0,0 l/m 20,3 km/h (4 Bft) O 80 2 min 0,000 mm 0,5 UV-I 298 W/m -4,7 C -12,5 C 27,4 km/h (4 Bft) 97,44 %
19.01.2019 11:20 -2,1 C 3,9 C -0,6 C 81 % 1018,1 hPa 0,0 l/m 18,3 km/h (3 Bft) O-NO 67 2 min 0,000 mm 0,5 UV-I 306 W/m -4,9 C -11,5 C 24,1 km/h (4 Bft) 94,34 %
19.01.2019 11:22 -2,1 C 3,9 C -0,6 C 81 % 1018,0 hPa 0,0 l/m 19,1 km/h (3 Bft) O-NO 71 2 min 0,000 mm 0,5 UV-I 291 W/m -4,9 C -11,9 C 24,1 km/h (4 Bft) 97,56 %
19.01.2019 11:24 -2,0 C 3,9 C -0,6 C 82 % 1018,0 hPa 0,0 l/m 18,1 km/h (3 Bft) SO 144 2 min 0,000 mm 0,5 UV-I 272 W/m -4,7 C -11,2 C 22,5 km/h (4 Bft) 97,73 %
19.01.2019 11:26 -2,0 C 3,9 C -0,6 C 81 % 1018,0 hPa 0,0 l/m 18,9 km/h (3 Bft) O-NO 71 2 min 0,000 mm 0,5 UV-I 260 W/m -4,8 C -11,7 C 25,7 km/h (4 Bft) 98,11 %
19.01.2019 11:29 -2,0 C 3,9 C -1,1 C 81 % 1017,9 hPa 0,0 l/m 19,2 km/h (3 Bft) O-NO 67 3 min 0,000 mm 0,5 UV-I 239 W/m -4,8 C -11,8 C 27,4 km/h (4 Bft) 100,00 %
19.01.2019 11:30 -2,1 C 3,9 C -1,1 C 80 % 1017,9 hPa 0,0 l/m 20,8 km/h (4 Bft) O-NO 72 1 min 0,000 mm 0,5 UV-I 226 W/m -5,1 C -12,7 C 24,1 km/h (4 Bft) 100,00 %
19.01.2019 11:32 -2,1 C 3,9 C -1,1 C 80 % 1017,9 hPa 0,0 l/m 19,4 km/h (3 Bft) O-NO 78 2 min 0,000 mm 0,5 UV-I 234 W/m -5,1 C -12,0 C 27,4 km/h (4 Bft) 100,00 %
19.01.2019 11:34 -2,0 C 3,9 C -1,1 C 81 % 1017,9 hPa 0,0 l/m 19,4 km/h (3 Bft) O-NO 67 2 min 0,000 mm 0,5 UV-I 226 W/m -4,8 C -11,9 C 24,1 km/h (4 Bft) 100,00 %
19.01.2019 11:36 -2,0 C 3,9 C -1,1 C 81 % 1017,9 hPa 0,0 l/m 18,6 km/h (3 Bft) O-NO 57 2 min 0,000 mm 0,5 UV-I 232 W/m -4,8 C -11,5 C 27,4 km/h (4 Bft) 100,00 %
19.01.2019 11:38 -2,1 C 3,9 C -1,1 C 80 % 1017,9 hPa 0,0 l/m 18,2 km/h (3 Bft) O 101 2 min 0,000 mm 0,5 UV-I 240 W/m -5,1 C -11,4 C 24,1 km/h (4 Bft) 100,00 %
19.01.2019 11:40 -2,1 C 3,9 C -1,1 C 80 % 1017,8 hPa 0,0 l/m 16,5 km/h (3 Bft) O-NO 69 2 min 0,000 mm 0,5 UV-I 235 W/m -5,1 C -10,4 C 24,1 km/h (4 Bft) 100,00 %
19.01.2019 11:42 -2,0 C 3,9 C -1,1 C 81 % 1017,8 hPa 0,0 l/m 16,1 km/h (3 Bft) O 90 2 min 0,000 mm 0,5 UV-I 218 W/m -4,8 C -10,1 C 20,9 km/h (4 Bft) 97,87 %
19.01.2019 11:44 -2,0 C 3,9 C -1,1 C 81 % 1017,8 hPa 0,0 l/m 14,8 km/h (3 Bft) O 90 2 min 0,000 mm 0,5 UV-I 217 W/m -4,8 C -9,3 C 22,5 km/h (4 Bft) 97,37 %
19.01.2019 11:46 -2,0 C 3,9 C -0,6 C 80 % 1017,8 hPa 0,0 l/m 18,2 km/h (3 Bft) O-NO 67 2 min 0,000 mm 0,5 UV-I 219 W/m -5,0 C -11,3 C 25,7 km/h (4 Bft) 98,00 %
19.01.2019 11:48 -2,0 C 3,9 C -0,6 C 80 % 1017,8 hPa 0,0 l/m 16,1 km/h (3 Bft) O-NO 66 2 min 0,000 mm 0,5 UV-I 216 W/m -5,0 C -10,1 C 20,9 km/h (4 Bft) 96,00 %
19.01.2019 11:50 -2,0 C 3,9 C -0,6 C 80 % 1017,8 hPa 0,0 l/m 20,6 km/h (4 Bft) O-SO 103 2 min 0,000 mm 0,6 UV-I 230 W/m -5,0 C -12,5 C 27,4 km/h (4 Bft) 97,37 %
19.01.2019 11:52 -1,9 C 3,9 C -0,6 C 80 % 1017,7 hPa 0,0 l/m 20,7 km/h (4 Bft) O 81 2 min 0,000 mm 0,6 UV-I 239 W/m -4,9 C -12,4 C 25,7 km/h (4 Bft) 98,21 %
19.01.2019 11:54 -1,9 C 3,9 C -0,6 C 80 % 1017,8 hPa 0,0 l/m 17,0 km/h (3 Bft) O 79 2 min 0,000 mm 0,6 UV-I 257 W/m -4,9 C -10,5 C 24,1 km/h (4 Bft) 97,62 %
19.01.2019 11:56 -1,8 C 3,9 C 0,0 C 80 % 1017,8 hPa 0,0 l/m 13,0 km/h (3 Bft) O 82 2 min 0,000 mm 0,6 UV-I 264 W/m -4,8 C -7,8 C 19,3 km/h (3 Bft) 98,00 %
19.01.2019 11:58 -1,8 C 3,9 C 0,0 C 80 % 1017,8 hPa 0,0 l/m 16,7 km/h (3 Bft) O-SO 110 2 min 0,000 mm 0,6 UV-I 284 W/m -4,8 C -10,2 C 22,5 km/h (4 Bft) 96,00 %
19.01.2019 12:00 -1,7 C 3,9 C 0,0 C 80 % 1017,7 hPa 0,0 l/m 15,3 km/h (3 Bft) O 86 2 min 0,000 mm 0,6 UV-I 292 W/m -4,7 C -9,2 C 20,9 km/h (4 Bft) 97,37 %
19.01.2019 12:02 -1,6 C 3,9 C 0,0 C 80 % 1017,7 hPa 0,0 l/m 15,3 km/h (3 Bft) O-NO 78 2 min 0,102 mm 0,6 UV-I 298 W/m -4,6 C -9,1 C 20,9 km/h (4 Bft) 98,00 %
19.01.2019 12:04 -1,6 C 3,9 C 0,0 C 79 % 1017,7 hPa 0,0 l/m 17,4 km/h (3 Bft) O-NO 58 2 min 0,000 mm 0,6 UV-I 274 W/m -4,8 C -10,3 C 22,5 km/h (4 Bft) 98,00 %
19.01.2019 12:06 -1,6 C 3,9 C 0,0 C 79 % 1017,7 hPa 0,0 l/m 16,4 km/h (3 Bft) O 80 2 min 0,000 mm 0,6 UV-I 259 W/m -4,8 C -9,8 C 22,5 km/h (4 Bft) 97,37 %
19.01.2019 12:08 -1,6 C 3,9 C 0,6 C 78 % 1017,6 hPa 0,0 l/m 21,4 km/h (4 Bft) O 92 2 min 0,000 mm 0,6 UV-I 295 W/m -4,9 C -12,4 C 25,7 km/h (4 Bft) 98,31 %
19.01.2019 12:10 -1,6 C 3,9 C 0,6 C 78 % 1017,6 hPa 0,0 l/m 16,5 km/h (3 Bft) O 80 2 min 0,000 mm 0,6 UV-I 312 W/m -4,9 C -9,8 C 22,5 km/h (4 Bft) 97,37 %
19.01.2019 12:12 -1,5 C 3,9 C 0,6 C 78 % 1017,6 hPa 0,0 l/m 15,8 km/h (3 Bft) O 98 2 min 0,000 mm 0,6 UV-I 270 W/m -4,8 C -9,3 C 24,1 km/h (4 Bft) 100,00 %
19.01.2019 12:14 -1,4 C 3,9 C 0,6 C 78 % 1017,6 hPa 0,0 l/m 16,0 km/h (3 Bft) O 96 2 min 0,000 mm 0,6 UV-I 273 W/m -4,7 C -9,3 C 20,9 km/h (4 Bft) 100,00 %
19.01.2019 12:16 -1,4 C 3,9 C 0,6 C 78 % 1017,6 hPa 0,0 l/m 16,5 km/h (3 Bft) O 86 2 min 0,000 mm 0,6 UV-I 264 W/m -4,7 C -9,6 C 24,1 km/h (4 Bft) 100,00 %
19.01.2019 12:18 -1,4 C 3,9 C 0,6 C 78 % 1017,6 hPa 0,0 l/m 17,5 km/h (3 Bft) O-NO 67 2 min 0,000 mm 0,6 UV-I 261 W/m -4,7 C -10,1 C 22,5 km/h (4 Bft) 100,00 %
19.01.2019 12:20 -1,4 C 3,9 C 0,6 C 78 % 1017,6 hPa 0,0 l/m 15,0 km/h (3 Bft) O-SO 109 2 min 0,000 mm 0,6 UV-I 269 W/m -4,7 C -8,7 C 22,5 km/h (4 Bft) 100,00 %
19.01.2019 12:22 -1,4 C 3,9 C 0,6 C 78 % 1017,6 hPa 0,0 l/m 14,2 km/h (3 Bft) O 88 2 min 0,000 mm 0,6 UV-I 246 W/m -4,7 C -8,2 C 17,7 km/h (3 Bft) 100,00 %
19.01.2019 12:24 -1,3 C 3,9 C 0,0 C 78 % 1017,6 hPa 0,0 l/m 13,5 km/h (3 Bft) O 80 2 min 0,000 mm 0,6 UV-I 238 W/m -4,6 C -7,6 C 17,7 km/h (3 Bft) 97,56 %
19.01.2019 12:26 -1,4 C 3,9 C 0,0 C 78 % 1017,6 hPa 0,0 l/m 19,0 km/h (3 Bft) O 101 2 min 0,000 mm 0,6 UV-I 234 W/m -4,7 C -10,9 C 24,1 km/h (4 Bft) 100,00 %
19.01.2019 12:28 -1,4 C 3,9 C 0,0 C 78 % 1017,6 hPa 0,0 l/m 17,4 km/h (3 Bft) O-NO 76 2 min 0,000 mm 0,6 UV-I 236 W/m -4,7 C -10,1 C 24,1 km/h (4 Bft) 97,37 %
19.01.2019 12:30 -1,4 C 3,9 C 0,0 C 78 % 1017,5 hPa 0,0 l/m 17,0 km/h (3 Bft) O-SO 112 2 min 0,000 mm 0,6 UV-I 261 W/m -4,7 C -9,9 C 20,9 km/h (4 Bft) 100,00 %
19.01.2019 12:32 -1,4 C 3,9 C 0,6 C 78 % 1017,5 hPa 0,0 l/m 18,3 km/h (3 Bft) O 92 2 min 0,000 mm 0,6 UV-I 254 W/m -4,7 C -10,6 C 25,7 km/h (4 Bft) 100,00 %
19.01.2019 12:34 -1,4 C 3,9 C 0,0 C 78 % 1017,4 hPa 0,0 l/m 18,1 km/h (3 Bft) O 80 2 min 0,000 mm 0,6 UV-I 275 W/m -4,7 C -10,5 C 24,1 km/h (4 Bft) 97,87 %
19.01.2019 12:36 -1,4 C 3,9 C 0,0 C 78 % 1017,4 hPa 0,0 l/m 16,1 km/h (3 Bft) O-NO 78 2 min 0,000 mm 0,6 UV-I 301 W/m -4,7 C -9,3 C 25,7 km/h (4 Bft) 98,11 %
19.01.2019 12:38 -1,3 C 3,9 C 0,6 C 78 % 1017,4 hPa 0,0 l/m 15,0 km/h (3 Bft) O-SO 113 2 min 0,000 mm 0,6 UV-I 315 W/m -4,6 C -8,6 C 19,3 km/h (3 Bft) 97,37 %
19.01.2019 12:40 -1,3 C 3,9 C 0,6 C 78 % 1017,3 hPa 0,0 l/m 15,0 km/h (3 Bft) O-SO 102 2 min 0,000 mm 0,6 UV-I 269 W/m -4,6 C -8,6 C 20,9 km/h (4 Bft) 94,34 %
19.01.2019 12:42 -1,2 C 3,9 C 0,6 C 78 % 1017,3 hPa 0,0 l/m 15,6 km/h (3 Bft) O 95 2 min 0,000 mm 0,6 UV-I 276 W/m -4,5 C -8,8 C 25,7 km/h (4 Bft) 98,00 %
19.01.2019 12:44 -1,2 C 3,9 C 0,6 C 78 % 1017,3 hPa 0,0 l/m 17,7 km/h (3 Bft) O-NO 74 2 min 0,000 mm 0,6 UV-I 282 W/m -4,5 C -10,0 C 22,5 km/h (4 Bft) 97,37 %
19.01.2019 12:46 -1,2 C 3,9 C 0,6 C 77 % 1017,2 hPa 0,0 l/m 16,6 km/h (3 Bft) O-SO 111 2 min 0,000 mm 0,6 UV-I 261 W/m -4,7 C -9,4 C 24,1 km/h (4 Bft) 98,11 %
19.01.2019 12:48 -1,2 C 3,9 C 0,6 C 78 % 1017,2 hPa 0,0 l/m 15,8 km/h (3 Bft) O 87 2 min 0,000 mm 0,6 UV-I 283 W/m -4,5 C -8,9 C 22,5 km/h (4 Bft) 97,37 %
19.01.2019 12:50 -1,2 C 3,9 C 1,1 C 78 % 1017,2 hPa 0,0 l/m 14,8 km/h (3 Bft) O-NO 72 2 min 0,000 mm 0,6 UV-I 302 W/m -4,5 C -8,3 C 19,3 km/h (3 Bft) 98,21 %
19.01.2019 12:52 -1,2 C 3,9 C 0,6 C 78 % 1017,2 hPa 0,0 l/m 18,3 km/h (3 Bft) O-NO 58 2 min 0,000 mm 0,6 UV-I 319 W/m -4,5 C -10,3 C 24,1 km/h (4 Bft) 94,00 %
19.01.2019 12:54 -1,2 C 3,9 C 0,6 C 77 % 1017,2 hPa 0,0 l/m 16,3 km/h (3 Bft) O 81 2 min 0,000 mm 0,6 UV-I 314 W/m -4,7 C -9,2 C 22,5 km/h (4 Bft) 95,12 %
19.01.2019 12:56 -1,1 C 3,9 C 0,6 C 77 % 1017,2 hPa 0,0 l/m 14,5 km/h (3 Bft) O 99 2 min 0,000 mm 0,6 UV-I 282 W/m -4,6 C -8,0 C 19,3 km/h (3 Bft) 84,00 %
19.01.2019 12:58 -1,1 C 3,9 C 0,6 C 77 % 1017,1 hPa 0,0 l/m 12,0 km/h (2 Bft) O 79 2 min 0,000 mm 0,6 UV-I 272 W/m -4,6 C -6,3 C 17,7 km/h (3 Bft) 95,74 %
19.01.2019 13:00 -1,1 C 3,9 C 0,6 C 78 % 1017,1 hPa 0,0 l/m 14,7 km/h (3 Bft) O-SO 109 2 min 0,101 mm 0,5 UV-I 280 W/m -4,4 C -8,1 C 20,9 km/h (4 Bft) 96,00 %
19.01.2019 13:02 -1,0 C 3,9 C 1,1 C 78 % 1017,1 hPa 0,0 l/m 16,8 km/h (3 Bft) O 94 2 min 0,000 mm 0,5 UV-I 278 W/m -4,3 C -9,3 C 20,9 km/h (4 Bft) 97,56 %
19.01.2019 13:04 -1,0 C 3,9 C 1,1 C 77 % 1017,1 hPa 0,0 l/m 14,4 km/h (3 Bft) O 96 2 min 0,000 mm 0,5 UV-I 257 W/m -4,5 C -7,8 C 20,9 km/h (4 Bft) 95,12 %
19.01.2019 13:06 -1,0 C 3,9 C 1,1 C 77 % 1017,1 hPa 0,0 l/m 16,4 km/h (3 Bft) O 92 2 min 0,000 mm 0,5 UV-I 268 W/m -4,5 C -9,0 C 20,9 km/h (4 Bft) 96,23 %
19.01.2019 13:09 -1,0 C 3,9 C 1,1 C 78 % 1017,0 hPa 0,0 l/m 14,7 km/h (3 Bft) O 101 3 min 0,000 mm 0,5 UV-I 273 W/m -4,3 C -8,0 C 22,5 km/h (4 Bft) 97,18 %
19.01.2019 13:10 -1,0 C 3,9 C 1,1 C 77 % 1017,0 hPa 0,0 l/m 17,6 km/h (3 Bft) O-SO 105 1 min 0,000 mm 0,5 UV-I 253 W/m -4,5 C -9,7 C 20,9 km/h (4 Bft) 93,33 %
19.01.2019 13:12 -0,9 C 3,9 C 1,1 C 78 % 1017,0 hPa 0,0 l/m 15,0 km/h (3 Bft) O-SO 103 2 min 0,000 mm 0,5 UV-I 229 W/m -4,2 C -8,1 C 19,3 km/h (3 Bft) 100,00 %
19.01.2019 13:14 -1,0 C 3,9 C 1,1 C 77 % 1016,9 hPa 0,0 l/m 13,3 km/h (3 Bft) O-SO 107 2 min 0,000 mm 0,5 UV-I 276 W/m -4,5 C -7,1 C 19,3 km/h (3 Bft) 100,00 %
19.01.2019 13:16 -0,9 C 3,9 C 1,1 C 78 % 1016,9 hPa 0,0 l/m 9,6 km/h (2 Bft) O-SO 104 2 min 0,000 mm 0,5 UV-I 267 W/m -4,2 C -4,1 C 16,1 km/h (3 Bft) 100,00 %
19.01.2019 13:18 -0,9 C 3,9 C 1,1 C 78 % 1016,9 hPa 0,0 l/m 13,4 km/h (3 Bft) O-NO 67 2 min 0,000 mm 0,5 UV-I 236 W/m -4,2 C -7,0 C 17,7 km/h (3 Bft) 100,00 %
19.01.2019 13:20 -0,9 C 3,9 C 0,6 C 78 % 1016,9 hPa 0,0 l/m 13,6 km/h (3 Bft) O 86 2 min 0,000 mm 0,5 UV-I 224 W/m -4,2 C -7,2 C 19,3 km/h (3 Bft) 100,00 %
19.01.2019 13:22 -0,9 C 3,9 C 0,6 C 78 % 1016,9 hPa 0,0 l/m 12,5 km/h (3 Bft) O-NO 78 2 min 0,000 mm 0,5 UV-I 217 W/m -4,2 C -6,4 C 17,7 km/h (3 Bft) 98,00 %
19.01.2019 13:24 -0,9 C 3,9 C 0,6 C 77 % 1016,9 hPa 0,0 l/m 15,2 km/h (3 Bft) NO 50 2 min 0,000 mm 0,5 UV-I 205 W/m -4,4 C -8,2 C 19,3 km/h (3 Bft) 98,11 %
19.01.2019 13:26 -1,1 C 3,9 C 0,6 C 77 % 1016,9 hPa 0,0 l/m 15,8 km/h (3 Bft) O-NO 58 2 min 0,000 mm 0,5 UV-I 203 W/m -4,6 C -8,8 C 19,3 km/h (3 Bft) 100,00 %
19.01.2019 13:28 -1,1 C 3,9 C 0,6 C 77 % 1016,9 hPa 0,0 l/m 15,5 km/h (3 Bft) O 92 0 min 0,000 mm 0,5 UV-I 188 W/m -4,6 C -8,6 C 20,9 km/h (4 Bft) 100,00 %
19.01.2019 13:30 -1,1 C 3,9 C 0,0 C 77 % 1016,9 hPa 0,0 l/m 17,1 km/h (3 Bft) O 92 0 min 0,000 mm 0,1 UV-I 181 W/m -4,6 C -9,6 C 22,5 km/h (4 Bft) 100,00 %
19.01.2019 13:32 -1,2 C 3,9 C 0,0 C 77 % 1016,9 hPa 0,0 l/m 13,6 km/h (3 Bft) O 90 0 min 0,000 mm 0,0 UV-I 179 W/m -4,7 C -7,5 C 19,3 km/h (3 Bft) 98,11 %
19.01.2019 13:34 -1,1 C 3,9 C 0,6 C 78 % 1016,9 hPa 0,0 l/m 11,7 km/h (2 Bft) O-SO 103 0 min 0,000 mm 0,0 UV-I 185 W/m -4,4 C -6,0 C 19,3 km/h (3 Bft) 97,56 %
19.01.2019 13:36 -1,1 C 3,9 C 0,6 C 78 % 1016,8 hPa 0,0 l/m 16,4 km/h (3 Bft) O 90 2 min 0,000 mm 0,0 UV-I 207 W/m -4,4 C -9,2 C 22,5 km/h (4 Bft) 98,00 %
19.01.2019 13:39 -1,1 C 3,9 C 0,6 C 77 % 1016,8 hPa 0,0 l/m 20,0 km/h (4 Bft) O-SO 105 3 min 0,000 mm 0,0 UV-I 214 W/m -4,6 C -11,1 C 27,4 km/h (4 Bft) 100,00 %
19.01.2019 13:40 -1,1 C 3,9 C 0,6 C 77 % 1016,8 hPa 0,0 l/m 18,2 km/h (3 Bft) O 98 1 min 0,000 mm 0,0 UV-I 204 W/m -4,6 C -10,1 C 24,1 km/h (4 Bft) 94,12 %
19.01.2019 13:42 -1,1 C 3,9 C 0,6 C 77 % 1016,8 hPa 0,0 l/m 19,8 km/h (3 Bft) O 88 2 min 0,000 mm 0,0 UV-I 203 W/m -4,6 C -11,0 C 27,4 km/h (4 Bft) 100,00 %
19.01.2019 13:44 -1,1 C 3,9 C 0,0 C 77 % 1016,8 hPa 0,0 l/m 17,1 km/h (3 Bft) O-NO 78 2 min 0,000 mm 0,0 UV-I 193 W/m -4,6 C -9,6 C 22,5 km/h (4 Bft) 100,00 %
19.01.2019 13:46 -1,1 C 3,9 C 0,0 C 77 % 1016,8 hPa 0,0 l/m 18,4 km/h (3 Bft) O 96 2 min 0,000 mm 0,0 UV-I 192 W/m -4,6 C -10,3 C 25,7 km/h (4 Bft) 98,11 %
19.01.2019 13:48 -1,2 C 3,9 C 0,6 C 77 % 1016,8 hPa 0,0 l/m 18,5 km/h (3 Bft) O 96 2 min 0,000 mm 0,0 UV-I 190 W/m -4,7 C -10,4 C 24,1 km/h (4 Bft) 100,00 %
19.01.2019 13:50 -1,2 C 3,9 C 0,6 C 77 % 1016,8 hPa 0,0 l/m 19,6 km/h (3 Bft) O 80 2 min 0,000 mm 0,0 UV-I 198 W/m -4,7 C -11,0 C 24,1 km/h (4 Bft) 100,00 %
19.01.2019 13:52 -1,2 C 3,9 C 0,0 C 77 % 1016,8 hPa 0,0 l/m 17,0 km/h (3 Bft) O-SO 111 2 min 0,000 mm 0,0 UV-I 204 W/m -4,7 C -9,6 C 24,1 km/h (4 Bft) 100,00 %
19.01.2019 13:54 -1,2 C 3,9 C 0,6 C 78 % 1016,8 hPa 0,0 l/m 16,8 km/h (3 Bft) O 97 2 min 0,000 mm 0,0 UV-I 199 W/m -4,5 C -9,5 C 22,5 km/h (4 Bft) 100,00 %
19.01.2019 13:56 -1,2 C 3,9 C 0,6 C 78 % 1016,7 hPa 0,0 l/m 15,1 km/h (3 Bft) O-NO 65 2 min 0,000 mm 0,0 UV-I 198 W/m -4,5 C -8,5 C 20,9 km/h (4 Bft) 100,00 %
19.01.2019 13:58 -1,1 C 3,9 C 0,0 C 78 % 1016,8 hPa 0,0 l/m 16,0 km/h (3 Bft) O-NO 75 2 min 0,000 mm 0,0 UV-I 190 W/m -4,4 C -8,9 C 24,1 km/h (4 Bft) 100,00 %
19.01.2019 14:00 -1,1 C 3,9 C 0,0 C 78 % 1016,8 hPa 0,0 l/m 18,2 km/h (3 Bft) O-NO 58 2 min 0,102 mm 0,0 UV-I 183 W/m -4,4 C -10,1 C 24,1 km/h (4 Bft) 100,00 %
19.01.2019 14:02 -1,1 C 3,9 C 0,0 C 78 % 1016,8 hPa 0,0 l/m 13,8 km/h (3 Bft) O-NO 65 2 min 0,000 mm 0,0 UV-I 174 W/m -4,4 C -7,5 C 17,7 km/h (3 Bft) 100,00 %
19.01.2019 14:04 -1,2 C 3,9 C 0,0 C 79 % 1016,7 hPa 0,0 l/m 16,3 km/h (3 Bft) O-NO 57 2 min 0,000 mm 0,0 UV-I 169 W/m -4,4 C -9,2 C 22,5 km/h (4 Bft) 98,11 %
19.01.2019 14:06 -1,2 C 3,9 C 0,0 C 79 % 1016,7 hPa 0,0 l/m 19,2 km/h (3 Bft) O 80 2 min 0,000 mm 0,0 UV-I 170 W/m -4,4 C -10,8 C 24,1 km/h (4 Bft) 97,37 %
19.01.2019 14:08 -1,2 C 3,9 C 0,0 C 78 % 1016,7 hPa 0,0 l/m 17,6 km/h (3 Bft) O 79 2 min 0,000 mm 0,0 UV-I 174 W/m -4,5 C -10,0 C 22,5 km/h (4 Bft) 96,00 %
19.01.2019 14:10 -1,2 C 3,9 C 0,0 C 79 % 1016,7 hPa 0,0 l/m 20,0 km/h (4 Bft) O 82 2 min 0,000 mm 0,0 UV-I 172 W/m -4,4 C -11,2 C 24,1 km/h (4 Bft) 98,11 %
19.01.2019 14:12 -1,2 C 3,9 C 0,0 C 79 % 1016,7 hPa 0,0 l/m 17,1 km/h (3 Bft) O 90 2 min 0,000 mm 0,0 UV-I 163 W/m -4,4 C -9,7 C 20,9 km/h (4 Bft) 97,14 %
19.01.2019 14:14 -1,2 C 3,9 C 0,0 C 79 % 1016,6 hPa 0,0 l/m 14,6 km/h (3 Bft) O-SO 121 2 min 0,000 mm 0,0 UV-I 160 W/m -4,4 C -8,2 C 22,5 km/h (4 Bft) 98,11 %
19.01.2019 14:16 -1,2 C 3,9 C 0,0 C 79 % 1016,7 hPa 0,0 l/m 14,0 km/h (3 Bft) O-NO 71 0 min 0,000 mm 0,0 UV-I 156 W/m -4,4 C -7,8 C 20,9 km/h (4 Bft) 95,12 %
19.01.2019 14:18 -1,2 C 3,9 C 0,0 C 78 % 1016,6 hPa 0,0 l/m 18,3 km/h (3 Bft) O-NO 76 0 min 0,000 mm 0,0 UV-I 155 W/m -4,5 C -10,3 C 22,5 km/h (4 Bft) 94,64 %
19.01.2019 14:20 -1,2 C 3,9 C 0,0 C 78 % 1016,6 hPa 0,0 l/m 16,6 km/h (3 Bft) O 89 0 min 0,000 mm 0,0 UV-I 154 W/m -4,5 C -9,4 C 24,1 km/h (4 Bft) 92,00 %
19.01.2019 14:22 -1,2 C 3,9 C 0,0 C 79 % 1016,6 hPa 0,0 l/m 16,1 km/h (3 Bft) O 89 0 min 0,000 mm 0,0 UV-I 153 W/m -4,4 C -9,1 C 24,1 km/h (4 Bft) 97,87 %
19.01.2019 14:24 -1,2 C 3,9 C 0,0 C 79 % 1016,6 hPa 0,0 l/m 13,3 km/h (3 Bft) O-NO 70 2 min 0,000 mm 0,0 UV-I 158 W/m -4,4 C -7,3 C 19,3 km/h (3 Bft) 97,87 %
19.01.2019 14:26 -1,2 C 3,9 C 0,0 C 79 % 1016,6 hPa 0,0 l/m 18,3 km/h (3 Bft) O 88 2 min 0,000 mm 0,0 UV-I 157 W/m -4,4 C -10,3 C 24,1 km/h (4 Bft) 97,22 %
19.01.2019 14:28 -1,2 C 3,9 C 0,0 C 78 % 1016,6 hPa 0,0 l/m 18,6 km/h (3 Bft) O 96 2 min 0,000 mm 0,0 UV-I 161 W/m -4,5 C -10,5 C 24,1 km/h (4 Bft) 96,36 %
19.01.2019 14:30 -1,2 C 3,9 C 0,0 C 78 % 1016,6 hPa 0,0 l/m 16,0 km/h (3 Bft) O 84 2 min 0,000 mm 0,0 UV-I 162 W/m -4,5 C -9,0 C 20,9 km/h (4 Bft) 95,24 %
19.01.2019 14:32 -1,2 C 3,9 C 0,0 C 78 % 1016,6 hPa 0,0 l/m 18,0 km/h (3 Bft) O-NO 59 2 min 0,000 mm 0,0 UV-I 159 W/m -4,5 C -10,2 C 22,5 km/h (4 Bft) 96,00 %
19.01.2019 14:34 -1,2 C 3,9 C 0,0 C 79 % 1016,6 hPa 0,0 l/m 15,0 km/h (3 Bft) O-SO 113 2 min 0,000 mm 0,0 UV-I 156 W/m -4,4 C -8,4 C 20,9 km/h (4 Bft) 92,68 %
19.01.2019 14:36 -1,2 C 3,9 C 0,0 C 79 % 1016,5 hPa 0,0 l/m 14,6 km/h (3 Bft) O 99 2 min 0,000 mm 0,0 UV-I 149 W/m -4,4 C -8,2 C 24,1 km/h (4 Bft) 98,00 %
19.01.2019 14:38 -1,2 C 3,9 C 0,0 C 79 % 1016,6 hPa 0,0 l/m 16,5 km/h (3 Bft) O-SO 107 2 min 0,000 mm 0,0 UV-I 143 W/m -4,4 C -9,3 C 20,9 km/h (4 Bft) 98,00 %
19.01.2019 14:40 -1,2 C 3,9 C 0,0 C 79 % 1016,6 hPa 0,0 l/m 16,1 km/h (3 Bft) O 95 2 min 0,000 mm 0,0 UV-I 142 W/m -4,4 C -9,1 C 22,5 km/h (4 Bft) 97,56 %
19.01.2019 14:42 -1,2 C 3,9 C 0,0 C 79 % 1016,5 hPa 0,0 l/m 16,1 km/h (3 Bft) O-NO 70 2 min 0,000 mm 0,0 UV-I 142 W/m -4,4 C -9,1 C 22,5 km/h (4 Bft) 95,74 %
19.01.2019 14:44 -1,2 C 3,9 C -0,6 C 79 % 1016,5 hPa 0,0 l/m 15,5 km/h (3 Bft) O 100 2 min 0,000 mm 0,0 UV-I 144 W/m -4,4 C -8,7 C 20,9 km/h (4 Bft) 96,00 %
19.01.2019 14:46 -1,2 C 3,9 C 0,0 C 79 % 1016,5 hPa 0,0 l/m 14,1 km/h (3 Bft) O-NO 69 2 min 0,000 mm 0,0 UV-I 143 W/m -4,4 C -7,9 C 20,9 km/h (4 Bft) 97,73 %
19.01.2019 14:48 -1,2 C 3,9 C 0,0 C 80 % 1016,4 hPa 0,0 l/m 16,0 km/h (3 Bft) O-NO 58 2 min 0,000 mm 0,0 UV-I 145 W/m -4,2 C -9,0 C 20,9 km/h (4 Bft) 98,21 %
19.01.2019 14:50 -1,2 C 3,9 C 0,0 C 80 % 1016,4 hPa 0,0 l/m 14,5 km/h (3 Bft) O 91 2 min 0,000 mm 0,0 UV-I 141 W/m -4,2 C -8,1 C 19,3 km/h (3 Bft) 100,00 %
19.01.2019 14:52 -1,2 C 3,9 C 0,0 C 80 % 1016,5 hPa 0,0 l/m 14,2 km/h (3 Bft) O-SO 115 2 min 0,000 mm 0,0 UV-I 135 W/m -4,2 C -7,9 C 19,3 km/h (3 Bft) 97,87 %
19.01.2019 14:54 -1,2 C 3,9 C -0,6 C 80 % 1016,4 hPa 0,0 l/m 14,5 km/h (3 Bft) O 98 2 min 0,000 mm 0,0 UV-I 134 W/m -4,2 C -8,1 C 19,3 km/h (3 Bft) 97,56 %
19.01.2019 14:56 -1,2 C 3,9 C -0,6 C 80 % 1016,4 hPa 0,0 l/m 13,6 km/h (3 Bft) O 88 2 min 0,000 mm 0,0 UV-I 131 W/m -4,2 C -7,5 C 17,7 km/h (3 Bft) 100,00 %
19.01.2019 14:58 -1,2 C 3,9 C -0,6 C 80 % 1016,4 hPa 0,0 l/m 15,4 km/h (3 Bft) O 84 2 min 0,000 mm 0,0 UV-I 132 W/m -4,2 C -8,7 C 19,3 km/h (3 Bft) 100,00 %
19.01.2019 15:00 -1,2 C 3,9 C -0,6 C 80 % 1016,4 hPa 0,0 l/m 13,5 km/h (3 Bft) O 80 2 min 0,076 mm 0,0 UV-I 131 W/m -4,2 C -7,5 C 17,7 km/h (3 Bft) 98,00 %
19.01.2019 15:02 -1,2 C 3,9 C -0,6 C 81 % 1016,5 hPa 0,0 l/m 14,7 km/h (3 Bft) O-NO 63 2 min 0,000 mm 0,0 UV-I 129 W/m -4,0 C -8,2 C 17,7 km/h (3 Bft) 97,56 %
19.01.2019 15:04 -1,2 C 3,9 C -0,6 C 80 % 1016,4 hPa 0,0 l/m 13,5 km/h (3 Bft) O-SO 103 2 min 0,000 mm 0,0 UV-I 124 W/m -4,2 C -7,5 C 16,1 km/h (3 Bft) 100,00 %
19.01.2019 15:06 -1,2 C 3,9 C -0,6 C 81 % 1016,4 hPa 0,0 l/m 9,9 km/h (2 Bft) O 92 2 min 0,000 mm 0,0 UV-I 123 W/m -4,0 C -4,7 C 14,5 km/h (3 Bft) 100,00 %
19.01.2019 15:08 -1,2 C 3,9 C -0,6 C 81 % 1016,4 hPa 0,0 l/m 13,0 km/h (3 Bft) O 93 2 min 0,000 mm 0,0 UV-I 121 W/m -4,0 C -7,1 C 20,9 km/h (4 Bft) 100,00 %
19.01.2019 15:10 -1,2 C 3,9 C -0,6 C 80 % 1016,4 hPa 0,0 l/m 15,2 km/h (3 Bft) O-NO 76 2 min 0,000 mm 0,0 UV-I 119 W/m -4,2 C -8,6 C 19,3 km/h (3 Bft) 100,00 %
19.01.2019 15:12 -1,2 C 3,9 C -0,6 C 80 % 1016,4 hPa 0,0 l/m 15,1 km/h (3 Bft) O-NO 68 2 min 0,000 mm 0,0 UV-I 120 W/m -4,2 C -8,5 C 19,3 km/h (3 Bft) 100,00 %
19.01.2019 15:14 -1,2 C 3,9 C -0,6 C 80 % 1016,4 hPa 0,0 l/m 16,5 km/h (3 Bft) O 96 2 min 0,000 mm 0,0 UV-I 118 W/m -4,2 C -9,3 C 20,9 km/h (4 Bft) 97,37 %
19.01.2019 15:16 -1,2 C 3,9 C -0,6 C 80 % 1016,4 hPa 0,0 l/m 14,2 km/h (3 Bft) O-NO 65 2 min 0,000 mm 0,0 UV-I 117 W/m -4,2 C -7,9 C 19,3 km/h (3 Bft) 100,00 %
19.01.2019 15:18 -1,2 C 3,9 C -1,1 C 81 % 1016,4 hPa 0,0 l/m 14,1 km/h (3 Bft) O-NO 64 2 min 0,000 mm 0,0 UV-I 111 W/m -4,0 C -7,9 C 17,7 km/h (3 Bft) 96,83 %
19.01.2019 15:20 -1,2 C 3,9 C -1,1 C 80 % 1016,3 hPa 0,0 l/m 16,4 km/h (3 Bft) O-NO 67 2 min 0,000 mm 0,0 UV-I 110 W/m -4,2 C -9,3 C 20,9 km/h (4 Bft) 89,47 %
19.01.2019 15:22 -1,2 C 3,9 C -1,1 C 80 % 1016,3 hPa 0,0 l/m 14,3 km/h (3 Bft) O 80 2 min 0,000 mm 0,0 UV-I 112 W/m -4,2 C -8,0 C 19,3 km/h (3 Bft) 98,00 %
19.01.2019 15:24 -1,2 C 3,9 C -1,1 C 80 % 1016,3 hPa 0,0 l/m 13,6 km/h (3 Bft) O-NO 66 2 min 0,000 mm 0,0 UV-I 114 W/m -4,2 C -7,5 C 20,9 km/h (4 Bft) 97,87 %
19.01.2019 15:26 -1,2 C 3,9 C -1,1 C 80 % 1016,3 hPa 0,0 l/m 14,5 km/h (3 Bft) O-NO 59 2 min 0,000 mm 0,0 UV-I 111 W/m -4,2 C -8,1 C 19,3 km/h (3 Bft) 96,23 %
19.01.2019 15:28 -1,2 C 3,9 C -1,1 C 80 % 1016,3 hPa 0,0 l/m 15,4 km/h (3 Bft) O 88 2 min 0,000 mm 0,0 UV-I 112 W/m -4,2 C -8,7 C 20,9 km/h (4 Bft) 97,73 %
19.01.2019 15:30 -1,2 C 3,9 C -1,1 C 80 % 1016,3 hPa 0,0 l/m 13,4 km/h (3 Bft) O 90 2 min 0,000 mm 0,0 UV-I 111 W/m -4,2 C -7,4 C 17,7 km/h (3 Bft) 95,12 %
19.01.2019 15:32 -1,2 C 3,9 C -1,1 C 80 % 1016,3 hPa 0,0 l/m 12,1 km/h (2 Bft) O 86 2 min 0,000 mm 0,0 UV-I 107 W/m -4,2 C -6,5 C 16,1 km/h (3 Bft) 96,23 %
19.01.2019 15:34 -1,2 C 3,9 C -1,1 C 80 % 1016,3 hPa 0,0 l/m 14,7 km/h (3 Bft) O-NO 68 2 min 0,000 mm 0,0 UV-I 104 W/m -4,2 C -8,2 C 20,9 km/h (4 Bft) 98,00 %
19.01.2019 15:36 -1,2 C 3,9 C -1,1 C 80 % 1016,2 hPa 0,0 l/m 14,7 km/h (3 Bft) O-NO 66 2 min 0,000 mm 0,0 UV-I 96 W/m -4,2 C -8,2 C 19,3 km/h (3 Bft) 100,00 %
19.01.2019 15:38 -1,2 C 3,9 C -1,1 C 80 % 1016,2 hPa 0,0 l/m 11,7 km/h (2 Bft) O-NO 71 2 min 0,000 mm 0,0 UV-I 99 W/m -4,2 C -6,2 C 17,7 km/h (3 Bft) 96,08 %
19.01.2019 15:40 -1,2 C 3,9 C -1,1 C 81 % 1016,2 hPa 0,0 l/m 12,4 km/h (3 Bft) O 88 2 min 0,000 mm 0,0 UV-I 105 W/m -4,0 C -6,7 C 17,7 km/h (3 Bft) 100,00 %
19.01.2019 15:42 -1,2 C 3,9 C -1,1 C 81 % 1016,2 hPa 0,0 l/m 11,7 km/h (2 Bft) O-NO 78 2 min 0,000 mm 0,0 UV-I 109 W/m -4,0 C -6,2 C 16,1 km/h (3 Bft) 100,00 %
19.01.2019 15:44 -1,2 C 3,9 C -1,1 C 81 % 1016,2 hPa 0,0 l/m 9,8 km/h (2 Bft) O-SO 115 2 min 0,000 mm 0,0 UV-I 112 W/m -4,0 C -4,6 C 14,5 km/h (3 Bft) 100,00 %
19.01.2019 15:46 -1,2 C 3,9 C -1,1 C 80 % 1016,2 hPa 0,0 l/m 9,0 km/h (2 Bft) O 88 2 min 0,000 mm 0,0 UV-I 114 W/m -4,2 C -3,9 C 12,9 km/h (3 Bft) 100,00 %
19.01.2019 15:48 -1,2 C 3,9 C -1,1 C 81 % 1016,2 hPa 0,0 l/m 10,2 km/h (2 Bft) O-NO 69 2 min 0,000 mm 0,0 UV-I 116 W/m -4,0 C -4,9 C 16,1 km/h (3 Bft) 100,00 %
19.01.2019 15:50 -1,2 C 3,9 C -1,1 C 80 % 1016,2 hPa 0,0 l/m 13,1 km/h (3 Bft) O 82 2 min 0,000 mm 0,0 UV-I 109 W/m -4,2 C -7,2 C 16,1 km/h (3 Bft) 100,00 %
19.01.2019 15:52 -1,2 C 3,9 C -1,7 C 80 % 1016,2 hPa 0,0 l/m 12,4 km/h (3 Bft) O 87 2 min 0,000 mm 0,0 UV-I 103 W/m -4,2 C -6,7 C 16,1 km/h (3 Bft) 100,00 %
19.01.2019 15:54 -1,2 C 3,9 C -1,7 C 80 % 1016,2 hPa 0,0 l/m 11,8 km/h (2 Bft) O-NO 78 2 min 0,000 mm 0,0 UV-I 100 W/m -4,2 C -6,2 C 16,1 km/h (3 Bft) 100,00 %
19.01.2019 15:56 -1,2 C 3,9 C -1,7 C 80 % 1016,2 hPa 0,0 l/m 14,2 km/h (3 Bft) O-NO 61 2 min 0,000 mm 0,0 UV-I 96 W/m -4,2 C -7,9 C 19,3 km/h (3 Bft) 100,00 %
19.01.2019 15:58 -1,2 C 3,9 C -1,7 C 80 % 1016,1 hPa 0,0 l/m 16,4 km/h (3 Bft) O 98 2 min 0,000 mm 0,0 UV-I 93 W/m -4,2 C -9,3 C 20,9 km/h (4 Bft) 100,00 %
19.01.2019 16:00 -1,2 C 3,9 C -1,7 C 80 % 1016,2 hPa 0,0 l/m 12,9 km/h (3 Bft) O-NO 69 2 min 0,051 mm 0,0 UV-I 82 W/m -4,2 C -7,0 C 19,3 km/h (3 Bft) 95,74 %
19.01.2019 16:02 -1,2 C 3,9 C -1,7 C 79 % 1016,1 hPa 0,0 l/m 17,7 km/h (3 Bft) O 90 2 min 0,000 mm 0,0 UV-I 74 W/m -4,4 C -10,0 C 24,1 km/h (4 Bft) 98,11 %
19.01.2019 16:04 -1,2 C 3,9 C -1,7 C 80 % 1016,1 hPa 0,0 l/m 13,8 km/h (3 Bft) O 80 2 min 0,000 mm 0,0 UV-I 66 W/m -4,2 C -7,7 C 20,9 km/h (4 Bft) 97,87 %
19.01.2019 16:06 -1,2 C 3,9 C -1,7 C 80 % 1016,1 hPa 0,0 l/m 15,6 km/h (3 Bft) O-NO 58 2 min 0,000 mm 0,0 UV-I 56 W/m -4,2 C -8,8 C 19,3 km/h (3 Bft) 97,87 %
19.01.2019 16:08 -1,2 C 3,9 C -1,7 C 80 % 1016,2 hPa 0,0 l/m 13,3 km/h (3 Bft) O-NO 76 2 min 0,000 mm 0,0 UV-I 48 W/m -4,2 C -7,3 C 17,7 km/h (3 Bft) 97,56 %
19.01.2019 16:10 -1,3 C 3,9 C -2,2 C 80 % 1016,2 hPa 0,0 l/m 15,6 km/h (3 Bft) O-NO 71 2 min 0,000 mm 0,0 UV-I 42 W/m -4,3 C -8,9 C 19,3 km/h (3 Bft) 98,00 %
19.01.2019 16:12 -1,3 C 3,9 C -2,2 C 80 % 1016,2 hPa 0,0 l/m 16,6 km/h (3 Bft) O-NO 69 2 min 0,000 mm 0,0 UV-I 38 W/m -4,3 C -9,5 C 22,5 km/h (4 Bft) 98,00 %
19.01.2019 16:14 -1,3 C 3,9 C -2,2 C 80 % 1016,2 hPa 0,0 l/m 16,8 km/h (3 Bft) O-NO 68 2 min 0,000 mm 0,0 UV-I 35 W/m -4,3 C -9,6 C 22,5 km/h (4 Bft) 97,87 %
19.01.2019 16:16 -1,4 C 3,9 C -2,2 C 79 % 1016,2 hPa 0,0 l/m 17,2 km/h (3 Bft) O-NO 78 2 min 0,000 mm 0,0 UV-I 33 W/m -4,6 C -10,0 C 20,9 km/h (4 Bft) 97,56 %
19.01.2019 16:18 -1,4 C 3,9 C -2,2 C 79 % 1016,2 hPa 0,0 l/m 14,7 km/h (3 Bft) O 81 2 min 0,000 mm 0,0 UV-I 31 W/m -4,6 C -8,5 C 17,7 km/h (3 Bft) 95,12 %
19.01.2019 16:20 -1,4 C 3,9 C -2,2 C 79 % 1016,2 hPa 0,0 l/m 17,9 km/h (3 Bft) O-NO 67 2 min 0,000 mm 0,0 UV-I 29 W/m -4,6 C -10,4 C 25,7 km/h (4 Bft) 92,45 %
19.01.2019 16:22 -1,4 C 3,9 C -2,2 C 79 % 1016,2 hPa 0,0 l/m 19,9 km/h (4 Bft) O-NO 71 2 min 0,000 mm 0,0 UV-I 28 W/m -4,6 C -11,4 C 24,1 km/h (4 Bft) 97,44 %
19.01.2019 16:24 -1,4 C 3,9 C -2,2 C 79 % 1016,2 hPa 0,0 l/m 18,1 km/h (3 Bft) O 80 2 min 0,000 mm 0,0 UV-I 26 W/m -4,6 C -10,5 C 25,7 km/h (4 Bft) 90,91 %
19.01.2019 16:26 -1,4 C 3,9 C -2,2 C 79 % 1016,1 hPa 0,0 l/m 19,0 km/h (3 Bft) O-SO 103 2 min 0,000 mm 0,0 UV-I 26 W/m -4,6 C -10,9 C 25,7 km/h (4 Bft) 95,83 %
19.01.2019 16:28 -1,5 C 3,9 C -2,2 C 80 % 1016,1 hPa 0,0 l/m 17,7 km/h (3 Bft) O 90 2 min 0,000 mm 0,0 UV-I 25 W/m -4,5 C -10,4 C 25,7 km/h (4 Bft) 88,57 %
19.01.2019 16:30 -1,5 C 3,9 C -2,2 C 79 % 1016,1 hPa 0,0 l/m 16,1 km/h (3 Bft) O 83 2 min 0,000 mm 0,0 UV-I 22 W/m -4,7 C -9,5 C 22,5 km/h (4 Bft) 93,55 %
19.01.2019 16:32 -1,6 C 3,9 C -2,8 C 79 % 1016,1 hPa 0,0 l/m 15,6 km/h (3 Bft) O 88 0 min 0,000 mm 0,0 UV-I 12 W/m -4,8 C -9,3 C 22,5 km/h (4 Bft) 95,12 %
19.01.2019 16:34 -1,6 C 3,9 C -2,8 C 79 % 1016,1 hPa 0,0 l/m 14,5 km/h (3 Bft) O 101 0 min 0,000 mm 0,0 UV-I 18 W/m -4,8 C -8,6 C 19,3 km/h (3 Bft) 90,00 %
19.01.2019 16:36 -1,6 C 3,9 C -2,8 C 80 % 1016,1 hPa 0,0 l/m 12,2 km/h (2 Bft) O 101 0 min 0,000 mm 0,0 UV-I 17 W/m -4,6 C -7,0 C 19,3 km/h (3 Bft) 94,00 %
19.01.2019 16:38 -1,6 C 3,9 C -2,8 C 80 % 1016,1 hPa 0,0 l/m 14,9 km/h (3 Bft) O-NO 78 0 min 0,000 mm 0,0 UV-I 12 W/m -4,6 C -8,9 C 27,4 km/h (4 Bft) 95,12 %
19.01.2019 16:40 -1,6 C 3,9 C -2,8 C 80 % 1016,1 hPa 0,0 l/m 16,2 km/h (3 Bft) O 91 0 min 0,000 mm 0,0 UV-I 11 W/m -4,6 C -9,7 C 22,5 km/h (4 Bft) 90,00 %
19.01.2019 16:42 -1,7 C 3,9 C -2,8 C 80 % 1016,2 hPa 0,0 l/m 15,6 km/h (3 Bft) SO 130 0 min 0,000 mm 0,0 UV-I 11 W/m -4,7 C -9,4 C 24,1 km/h (4 Bft) 90,00 %
19.01.2019 16:44 -1,7 C 3,9 C -2,8 C 80 % 1016,1 hPa 0,0 l/m 16,6 km/h (3 Bft) O-SO 112 0 min 0,000 mm 0,0 UV-I 11 W/m -4,7 C -10,0 C 22,5 km/h (4 Bft) 90,24 %
19.01.2019 16:46 -1,7 C 3,9 C -2,8 C 79 % 1016,1 hPa 0,0 l/m 17,7 km/h (3 Bft) O 92 0 min 0,000 mm 0,0 UV-I 9 W/m -4,8 C -10,6 C 24,1 km/h (4 Bft) 90,24 %
19.01.2019 16:48 -1,7 C 3,9 C -2,8 C 79 % 1016,1 hPa 0,0 l/m 15,4 km/h (3 Bft) O 85 0 min 0,000 mm 0,0 UV-I 9 W/m -4,8 C -9,3 C 20,9 km/h (4 Bft) 94,34 %
19.01.2019 16:50 -1,7 C 3,9 C -2,8 C 80 % 1016,1 hPa 0,0 l/m 18,8 km/h (3 Bft) O 93 0 min 0,000 mm 0,0 UV-I 7 W/m -4,7 C -11,2 C 29,0 km/h (5 Bft) 94,74 %
19.01.2019 16:52 -1,7 C 3,9 C -2,8 C 79 % 1016,1 hPa 0,0 l/m 20,8 km/h (4 Bft) O-SO 107 0 min 0,000 mm 0,0 UV-I 7 W/m -4,8 C -12,2 C 32,2 km/h (5 Bft) 96,23 %
19.01.2019 16:54 -1,7 C 3,9 C -2,8 C 80 % 1016,0 hPa 0,0 l/m 17,0 km/h (3 Bft) O-NO 68 0 min 0,000 mm 0,0 UV-I 5 W/m -4,7 C -10,2 C 27,4 km/h (4 Bft) 98,00 %
19.01.2019 16:56 -1,7 C 3,9 C -2,8 C 80 % 1016,0 hPa 0,0 l/m 17,8 km/h (3 Bft) O-SO 113 0 min 0,000 mm 0,0 UV-I 5 W/m -4,7 C -10,7 C 22,5 km/h (4 Bft) 96,00 %
19.01.2019 16:58 -1,8 C 3,9 C -3,3 C 80 % 1016,0 hPa 0,0 l/m 16,2 km/h (3 Bft) SO 126 0 min 0,000 mm 0,0 UV-I 4 W/m -4,8 C -9,9 C 25,7 km/h (4 Bft) 97,14 %
19.01.2019 17:00 -1,8 C 3,9 C -3,3 C 80 % 1016,0 hPa 0,0 l/m 16,2 km/h (3 Bft) O-SO 123 0 min 0,025 mm 0,0 UV-I 0 W/m -4,8 C -9,9 C 24,1 km/h (4 Bft) 98,21 %
19.01.2019 17:02 -1,8 C 3,9 C -3,3 C 80 % 1016,1 hPa 0,0 l/m 14,9 km/h (3 Bft) O-SO 110 0 min 0,000 mm 0,0 UV-I 0 W/m -4,8 C -9,1 C 19,3 km/h (3 Bft) 95,45 %
19.01.2019 17:04 -1,8 C 3,9 C -3,3 C 80 % 1016,1 hPa 0,0 l/m 13,8 km/h (3 Bft) O 89 0 min 0,000 mm 0,0 UV-I 0 W/m -4,8 C -8,4 C 19,3 km/h (3 Bft) 96,23 %
19.01.2019 17:06 -1,8 C 3,9 C -3,3 C 80 % 1016,1 hPa 0,0 l/m 18,5 km/h (3 Bft) O 99 0 min 0,000 mm 0,0 UV-I 0 W/m -4,8 C -11,2 C 24,1 km/h (4 Bft) 97,78 %
19.01.2019 17:08 -1,8 C 3,9 C -3,3 C 80 % 1016,1 hPa 0,0 l/m 13,9 km/h (3 Bft) O-NO 67 0 min 0,000 mm 0,0 UV-I 0 W/m -4,8 C -8,4 C 19,3 km/h (3 Bft) 97,87 %
19.01.2019 17:10 -1,8 C 3,9 C -3,3 C 80 % 1016,1 hPa 0,0 l/m 13,9 km/h (3 Bft) O-SO 113 0 min 0,000 mm 0,0 UV-I 0 W/m -4,8 C -8,4 C 17,7 km/h (3 Bft) 98,00 %
19.01.2019 17:12 -1,9 C 3,9 C -3,3 C 80 % 1016,1 hPa 0,0 l/m 16,0 km/h (3 Bft) O 82 0 min 0,000 mm 0,0 UV-I 0 W/m -4,9 C -9,9 C 20,9 km/h (4 Bft) 97,37 %
19.01.2019 17:14 -1,9 C 3,9 C -3,3 C 80 % 1016,1 hPa 0,0 l/m 14,8 km/h (3 Bft) O-SO 102 0 min 0,000 mm 0,0 UV-I 0 W/m -4,9 C -9,2 C 20,9 km/h (4 Bft) 97,87 %
19.01.2019 17:16 -1,9 C 3,9 C -3,3 C 81 % 1016,1 hPa 0,0 l/m 17,6 km/h (3 Bft) O-NO 57 0 min 0,000 mm 0,0 UV-I 0 W/m -4,7 C -10,8 C 24,1 km/h (4 Bft) 100,00 %
19.01.2019 17:18 -1,9 C 3,9 C -3,3 C 81 % 1016,1 hPa 0,0 l/m 14,6 km/h (3 Bft) NO 39 0 min 0,000 mm 0,0 UV-I 0 W/m -4,7 C -9,0 C 19,3 km/h (3 Bft) 98,21 %
19.01.2019 17:20 -1,9 C 3,9 C -3,3 C 81 % 1016,1 hPa 0,0 l/m 14,1 km/h (3 Bft) O-NO 75 0 min 0,000 mm 0,0 UV-I 0 W/m -4,7 C -8,7 C 20,9 km/h (4 Bft) 100,00 %
19.01.2019 17:22 -2,0 C 3,9 C -3,3 C 81 % 1016,1 hPa 0,0 l/m 13,6 km/h (3 Bft) O 90 0 min 0,000 mm 0,0 UV-I 0 W/m -4,8 C -8,5 C 19,3 km/h (3 Bft) 100,00 %
19.01.2019 17:24 -2,0 C 3,9 C -3,3 C 81 % 1016,1 hPa 0,0 l/m 11,4 km/h (2 Bft) O-NO 68 0 min 0,000 mm 0,0 UV-I 0 W/m -4,8 C -6,8 C 16,1 km/h (3 Bft) 100,00 %
19.01.2019 17:26 -2,0 C 3,9 C -3,3 C 81 % 1016,1 hPa 0,0 l/m 13,5 km/h (3 Bft) O 84 0 min 0,000 mm 0,0 UV-I 0 W/m -4,8 C -8,4 C 17,7 km/h (3 Bft) 98,00 %
19.01.2019 17:28 -2,1 C 3,9 C -3,3 C 82 % 1016,1 hPa 0,0 l/m 11,4 km/h (2 Bft) O-NO 61 0 min 0,000 mm 0,0 UV-I 0 W/m -4,7 C -6,9 C 14,5 km/h (3 Bft) 100,00 %
19.01.2019 17:30 -2,1 C 3,9 C -3,3 C 82 % 1016,1 hPa 0,0 l/m 12,9 km/h (3 Bft) O-NO 63 0 min 0,000 mm 0,0 UV-I 0 W/m -4,7 C -8,1 C 17,7 km/h (3 Bft) 100,00 %
19.01.2019 17:32 -2,2 C 3,9 C -3,3 C 82 % 1016,1 hPa 0,0 l/m 11,2 km/h (2 Bft) O-NO 73 0 min 0,000 mm 0,0 UV-I 0 W/m -4,8 C -6,9 C 14,5 km/h (3 Bft) 100,00 %
19.01.2019 17:34 -2,2 C 3,9 C -3,3 C 82 % 1016,1 hPa 0,0 l/m 11,2 km/h (2 Bft) O 80 0 min 0,000 mm 0,0 UV-I 0 W/m -4,8 C -6,9 C 16,1 km/h (3 Bft) 100,00 %
19.01.2019 17:36 -2,2 C 3,9 C -3,3 C 82 % 1016,0 hPa 0,0 l/m 10,1 km/h (2 Bft) O-NO 69 0 min 0,000 mm 0,0 UV-I 0 W/m -4,8 C -6,0 C 16,1 km/h (3 Bft) 98,00 %
19.01.2019 17:38 -2,2 C 3,9 C -3,3 C 82 % 1016,1 hPa 0,0 l/m 11,3 km/h (2 Bft) O-NO 68 0 min 0,000 mm 0,0 UV-I 0 W/m -4,8 C -7,0 C 16,1 km/h (3 Bft) 100,00 %
19.01.2019 17:40 -2,2 C 3,9 C -3,3 C 82 % 1016,1 hPa 0,0 l/m 13,5 km/h (3 Bft) O-NO 66 0 min 0,000 mm 0,0 UV-I 0 W/m -4,8 C -8,6 C 17,7 km/h (3 Bft) 98,11 %
19.01.2019 17:42 -2,3 C 3,9 C -3,3 C 82 % 1016,0 hPa 0,0 l/m 10,0 km/h (2 Bft) NO 56 0 min 0,000 mm 0,0 UV-I 0 W/m -4,9 C -6,0 C 16,1 km/h (3 Bft) 97,44 %
19.01.2019 17:44 -2,3 C 3,9 C -3,3 C 82 % 1016,0 hPa 0,0 l/m 12,3 km/h (3 Bft) O-NO 69 0 min 0,000 mm 0,0 UV-I 0 W/m -4,9 C -7,9 C 17,7 km/h (3 Bft) 98,00 %
19.01.2019 17:46 -2,3 C 3,9 C -3,3 C 82 % 1016,0 hPa 0,0 l/m 10,2 km/h (2 Bft) O-NO 66 0 min 0,000 mm 0,0 UV-I 0 W/m -4,9 C -6,2 C 12,9 km/h (3 Bft) 93,62 %
19.01.2019 17:48 -2,3 C 3,9 C -3,3 C 82 % 1016,0 hPa 0,0 l/m 10,5 km/h (2 Bft) O-NO 73 0 min 0,000 mm 0,0 UV-I 0 W/m -4,9 C -6,4 C 12,9 km/h (3 Bft) 92,68 %
19.01.2019 17:50 -2,3 C 3,9 C -3,9 C 82 % 1016,0 hPa 0,0 l/m 10,0 km/h (2 Bft) O-NO 72 0 min 0,000 mm 0,0 UV-I 0 W/m -4,9 C -6,0 C 12,9 km/h (3 Bft) 98,00 %
19.01.2019 17:52 -2,4 C 3,9 C -3,9 C 83 % 1016,0 hPa 0,0 l/m 11,4 km/h (2 Bft) O-SO 103 0 min 0,000 mm 0,0 UV-I 0 W/m -4,9 C -7,3 C 16,1 km/h (3 Bft) 97,73 %
19.01.2019 17:54 -2,4 C 3,9 C -3,9 C 83 % 1016,0 hPa 0,0 l/m 10,6 km/h (2 Bft) O-NO 71 0 min 0,000 mm 0,0 UV-I 0 W/m -4,9 C -6,6 C 16,1 km/h (3 Bft) 98,00 %
19.01.2019 17:56 -2,4 C 3,9 C -3,9 C 83 % 1015,9 hPa 0,0 l/m 11,8 km/h (2 Bft) O-NO 76 0 min 0,000 mm 0,0 UV-I 0 W/m -4,9 C -7,6 C 17,7 km/h (3 Bft) 89,66 %
19.01.2019 17:58 -2,4 C 3,9 C -3,9 C 83 % 1015,9 hPa 0,0 l/m 11,9 km/h (2 Bft) O-NO 64 0 min 0,000 mm 0,0 UV-I 0 W/m -4,9 C -7,7 C 17,7 km/h (3 Bft) 98,59 %
19.01.2019 18:00 -2,4 C 3,9 C -3,9 C 83 % 1015,9 hPa 0,0 l/m 11,5 km/h (2 Bft) O-NO 69 0 min 0,026 mm 0,0 UV-I 0 W/m -4,9 C -7,4 C 17,7 km/h (3 Bft) 100,00 %
19.01.2019 18:02 -2,4 C 3,9 C -3,9 C 83 % 1015,9 hPa 0,0 l/m 13,1 km/h (3 Bft) O-NO 69 0 min 0,000 mm 0,0 UV-I 0 W/m -4,9 C -8,6 C 19,3 km/h (3 Bft) 100,00 %
19.01.2019 18:04 -2,4 C 3,9 C -3,9 C 83 % 1015,9 hPa 0,0 l/m 14,4 km/h (3 Bft) O-NO 66 0 min 0,000 mm 0,0 UV-I 0 W/m -4,9 C -9,5 C 17,7 km/h (3 Bft) 100,00 %
19.01.2019 18:06 -2,5 C 3,9 C -3,9 C 83 % 1015,9 hPa 0,0 l/m 13,7 km/h (3 Bft) O-NO 69 0 min 0,000 mm 0,0 UV-I 0 W/m -5,0 C -9,1 C 19,3 km/h (3 Bft) 98,59 %
19.01.2019 18:08 -2,5 C 3,9 C -3,9 C 83 % 1015,9 hPa 0,0 l/m 13,8 km/h (3 Bft) O-NO 69 0 min 0,000 mm 0,0 UV-I 0 W/m -5,0 C -9,2 C 19,3 km/h (3 Bft) 97,56 %
19.01.2019 18:10 -2,4 C 3,9 C -3,3 C 83 % 1015,9 hPa 0,0 l/m 14,3 km/h (3 Bft) O 81 0 min 0,000 mm 0,0 UV-I 0 W/m -4,9 C -9,4 C 17,7 km/h (3 Bft) 100,00 %
19.01.2019 18:12 -2,4 C 3,9 C -3,3 C 83 % 1015,9 hPa 0,0 l/m 13,3 km/h (3 Bft) O-NO 76 0 min 0,000 mm 0,0 UV-I 0 W/m -4,9 C -8,7 C 20,9 km/h (4 Bft) 100,00 %
19.01.2019 18:14 -2,4 C 3,9 C -3,3 C 83 % 1015,9 hPa 0,0 l/m 13,0 km/h (3 Bft) O-NO 74 0 min 0,000 mm 0,0 UV-I 0 W/m -4,9 C -8,5 C 17,7 km/h (3 Bft) 97,87 %
19.01.2019 18:16 -2,4 C 3,9 C -3,3 C 83 % 1015,9 hPa 0,0 l/m 12,4 km/h (3 Bft) O-NO 57 0 min 0,000 mm 0,0 UV-I 0 W/m -4,9 C -8,1 C 17,7 km/h (3 Bft) 100,00 %
19.01.2019 18:18 -2,5 C 3,9 C -3,3 C 83 % 1015,9 hPa 0,0 l/m 14,2 km/h (3 Bft) O 86 0 min 0,000 mm 0,0 UV-I 0 W/m -5,0 C -9,5 C 19,3 km/h (3 Bft) 100,00 %
19.01.2019 18:20 -2,5 C 3,9 C -3,9 C 83 % 1015,9 hPa 0,0 l/m 13,6 km/h (3 Bft) O-NO 63 0 min 0,000 mm 0,0 UV-I 0 W/m -5,0 C -9,1 C 19,3 km/h (3 Bft) 97,87 %
19.01.2019 18:22 -2,5 C 3,9 C -3,3 C 83 % 1015,9 hPa 0,0 l/m 17,5 km/h (3 Bft) O-NO 67 0 min 0,000 mm 0,0 UV-I 0 W/m -5,0 C -11,5 C 20,9 km/h (4 Bft) 97,44 %
19.01.2019 18:24 -2,5 C 3,9 C -3,3 C 83 % 1015,9 hPa 0,0 l/m 15,5 km/h (3 Bft) O-NO 59 0 min 0,000 mm 0,0 UV-I 0 W/m -5,0 C -10,3 C 20,9 km/h (4 Bft) 98,00 %
19.01.2019 18:26 -2,5 C 3,9 C -3,3 C 83 % 1015,9 hPa 0,0 l/m 14,4 km/h (3 Bft) O-NO 64 0 min 0,000 mm 0,0 UV-I 0 W/m -5,0 C -9,6 C 19,3 km/h (3 Bft) 96,00 %
19.01.2019 18:28 -2,5 C 3,9 C -3,9 C 83 % 1015,9 hPa 0,0 l/m 14,5 km/h (3 Bft) O-NO 65 0 min 0,000 mm 0,0 UV-I 0 W/m -5,0 C -9,7 C 17,7 km/h (3 Bft) 98,00 %
19.01.2019 18:30 -2,6 C 3,9 C -3,9 C 83 % 1015,9 hPa 0,0 l/m 12,3 km/h (3 Bft) O-NO 78 0 min 0,000 mm 0,0 UV-I 0 W/m -5,1 C -8,2 C 16,1 km/h (3 Bft) 97,37 %
19.01.2019 18:32 -2,6 C 3,9 C -3,9 C 83 % 1015,9 hPa 0,0 l/m 14,5 km/h (3 Bft) O-NO 77 0 min 0,000 mm 0,0 UV-I 0 W/m -5,1 C -9,8 C 20,9 km/h (4 Bft) 97,87 %
19.01.2019 18:34 -2,6 C 3,9 C -3,9 C 83 % 1015,9 hPa 0,0 l/m 16,8 km/h (3 Bft) O-NO 74 0 min 0,000 mm 0,0 UV-I 0 W/m -5,1 C -11,2 C 20,9 km/h (4 Bft) 96,23 %
19.01.2019 18:36 -2,6 C 3,9 C -3,3 C 83 % 1015,9 hPa 0,0 l/m 17,9 km/h (3 Bft) O-NO 57 0 min 0,000 mm 0,0 UV-I 0 W/m -5,1 C -11,9 C 24,1 km/h (4 Bft) 97,14 %
19.01.2019 18:38 -2,5 C 3,9 C -3,3 C 83 % 1015,9 hPa 0,0 l/m 16,6 km/h (3 Bft) O 94 0 min 0,000 mm 0,0 UV-I 0 W/m -5,0 C -11,0 C 22,5 km/h (4 Bft) 98,31 %
19.01.2019 18:40 -2,5 C 3,9 C -3,3 C 83 % 1016,0 hPa 0,0 l/m 16,3 km/h (3 Bft) O-NO 71 0 min 0,000 mm 0,0 UV-I 0 W/m -5,0 C -10,8 C 20,9 km/h (4 Bft) 95,65 %
19.01.2019 18:42 -2,5 C 3,9 C -3,9 C 83 % 1015,9 hPa 0,0 l/m 14,5 km/h (3 Bft) O 92 0 min 0,000 mm 0,0 UV-I 0 W/m -5,0 C -9,7 C 20,9 km/h (4 Bft) 97,06 %
19.01.2019 18:44 -2,5 C 3,9 C -3,9 C 83 % 1015,9 hPa 0,0 l/m 15,0 km/h (3 Bft) O 98 0 min 0,000 mm 0,0 UV-I 0 W/m -5,0 C -10,0 C 22,5 km/h (4 Bft) 100,00 %
19.01.2019 18:46 -2,6 C 3,9 C -3,3 C 83 % 1015,9 hPa 0,0 l/m 18,0 km/h (3 Bft) O-NO 74 0 min 0,000 mm 0,0 UV-I 0 W/m -5,1 C -11,9 C 29,0 km/h (5 Bft) 93,62 %
19.01.2019 18:48 -2,5 C 3,9 C -3,3 C 83 % 1015,9 hPa 0,0 l/m 18,3 km/h (3 Bft) O 90 0 min 0,000 mm 0,0 UV-I 0 W/m -5,0 C -12,0 C 25,7 km/h (4 Bft) 98,00 %
19.01.2019 18:50 -2,5 C 3,9 C -3,3 C 83 % 1015,9 hPa 0,0 l/m 17,2 km/h (3 Bft) O 91 0 min 0,000 mm 0,0 UV-I 0 W/m -5,0 C -11,4 C 24,1 km/h (4 Bft) 96,00 %
19.01.2019 18:52 -2,5 C 3,9 C -3,3 C 83 % 1015,9 hPa 0,0 l/m 17,6 km/h (3 Bft) O-NO 59 0 min 0,000 mm 0,0 UV-I 0 W/m -5,0 C -11,6 C 25,7 km/h (4 Bft) 95,45 %
19.01.2019 18:54 -2,6 C 3,9 C -3,3 C 83 % 1015,9 hPa 0,0 l/m 16,1 km/h (3 Bft) O-NO 65 0 min 0,000 mm 0,0 UV-I 0 W/m -5,1 C -10,8 C 24,1 km/h (4 Bft) 95,24 %
19.01.2019 18:56 -2,6 C 3,9 C -3,9 C 83 % 1015,9 hPa 0,0 l/m 16,0 km/h (3 Bft) O 96 0 min 0,000 mm 0,0 UV-I 0 W/m -5,1 C -10,8 C 20,9 km/h (4 Bft) 96,15 %
19.01.2019 18:58 -2,6 C 3,9 C -3,9 C 83 % 1015,9 hPa 0,0 l/m 16,8 km/h (3 Bft) O 80 0 min 0,000 mm 0,0 UV-I 0 W/m -5,1 C -11,2 C 22,5 km/h (4 Bft) 98,11 %
19.01.2019 19:00 -2,6 C 3,9 C -3,9 C 83 % 1015,9 hPa 0,0 l/m 17,4 km/h (3 Bft) O-NO 71 0 min 0,025 mm 0,0 UV-I 0 W/m -5,1 C -11,6 C 24,1 km/h (4 Bft) 97,22 %
19.01.2019 19:02 -2,6 C 3,9 C -3,9 C 83 % 1015,9 hPa 0,0 l/m 16,2 km/h (3 Bft) O-NO 69 0 min 0,000 mm 0,0 UV-I 0 W/m -5,1 C -10,9 C 27,4 km/h (4 Bft) 96,43 %
19.01.2019 19:04 -2,6 C 3,9 C -3,9 C 83 % 1015,9 hPa 0,0 l/m 16,7 km/h (3 Bft) O-NO 71 0 min 0,000 mm 0,0 UV-I 0 W/m -5,1 C -11,2 C 22,5 km/h (4 Bft) 94,74 %
19.01.2019 19:06 -2,6 C 3,9 C -3,3 C 83 % 1015,9 hPa 0,0 l/m 19,4 km/h (3 Bft) O-NO 78 0 min 0,000 mm 0,0 UV-I 0 W/m -5,1 C -12,7 C 25,7 km/h (4 Bft) 98,21 %
19.01.2019 19:08 -2,6 C 3,9 C -3,3 C 83 % 1015,9 hPa 0,0 l/m 16,0 km/h (3 Bft) O 88 0 min 0,000 mm 0,0 UV-I 0 W/m -5,1 C -10,8 C 20,9 km/h (4 Bft) 97,56 %
19.01.2019 19:10 -2,6 C 3,9 C -3,3 C 83 % 1015,8 hPa 0,0 l/m 17,3 km/h (3 Bft) O 92 0 min 0,000 mm 0,0 UV-I 0 W/m -5,1 C -11,5 C 25,7 km/h (4 Bft) 100,00 %
19.01.2019 19:12 -2,6 C 3,9 C -3,3 C 83 % 1015,8 hPa 0,0 l/m 17,2 km/h (3 Bft) O-NO 75 0 min 0,000 mm 0,0 UV-I 0 W/m -5,1 C -11,5 C 25,7 km/h (4 Bft) 100,00 %
19.01.2019 19:14 -2,7 C 3,9 C -3,9 C 83 % 1015,8 hPa 0,0 l/m 18,0 km/h (3 Bft) O-SO 102 0 min 0,000 mm 0,0 UV-I 0 W/m -5,2 C -12,1 C 27,4 km/h (4 Bft) 98,11 %
19.01.2019 19:16 -2,7 C 3,9 C -3,9 C 83 % 1015,8 hPa 0,0 l/m 14,2 km/h (3 Bft) O 85 0 min 0,000 mm 0,0 UV-I 0 W/m -5,2 C -9,7 C 24,1 km/h (4 Bft) 100,00 %
19.01.2019 19:18 -2,7 C 3,9 C -3,3 C 83 % 1015,8 hPa 0,0 l/m 20,4 km/h (4 Bft) O-NO 63 0 min 0,000 mm 0,0 UV-I 0 W/m -5,2 C -13,3 C 25,7 km/h (4 Bft) 100,00 %
19.01.2019 19:20 -2,7 C 3,9 C -3,3 C 83 % 1015,8 hPa 0,0 l/m 14,9 km/h (3 Bft) O-NO 78 0 min 0,000 mm 0,0 UV-I 0 W/m -5,2 C -10,2 C 19,3 km/h (3 Bft) 100,00 %
19.01.2019 19:22 -2,7 C 3,9 C -3,9 C 83 % 1015,8 hPa 0,0 l/m 16,1 km/h (3 Bft) O-NO 73 0 min 0,000 mm 0,0 UV-I 0 W/m -5,2 C -10,9 C 22,5 km/h (4 Bft) 100,00 %
19.01.2019 19:24 -2,7 C 3,9 C -3,9 C 83 % 1015,8 hPa 0,0 l/m 15,7 km/h (3 Bft) O 82 0 min 0,000 mm 0,0 UV-I 0 W/m -5,2 C -10,7 C 19,3 km/h (3 Bft) 100,00 %
19.01.2019 19:26 -2,7 C 3,9 C -3,9 C 83 % 1015,8 hPa 0,0 l/m 18,5 km/h (3 Bft) O-NO 72 0 min 0,000 mm 0,0 UV-I 0 W/m -5,2 C -12,3 C 25,7 km/h (4 Bft) 100,00 %
19.01.2019 19:28 -2,7 C 3,9 C -3,9 C 83 % 1015,8 hPa 0,0 l/m 15,6 km/h (3 Bft) O-SO 105 0 min 0,000 mm 0,0 UV-I 0 W/m -5,2 C -10,6 C 22,5 km/h (4 Bft) 96,43 %
19.01.2019 19:30 -2,7 C 3,9 C -3,9 C 84 % 1015,8 hPa 0,0 l/m 15,1 km/h (3 Bft) O 90 0 min 0,000 mm 0,0 UV-I 0 W/m -5,0 C -10,3 C 20,9 km/h (4 Bft) 100,00 %
19.01.2019 19:32 -2,7 C 3,9 C -3,9 C 84 % 1015,8 hPa 0,0 l/m 16,9 km/h (3 Bft) O 89 0 min 0,000 mm 0,0 UV-I 0 W/m -5,0 C -11,4 C 24,1 km/h (4 Bft) 97,56 %
19.01.2019 19:34 -2,8 C 3,9 C -3,9 C 84 % 1015,8 hPa 0,0 l/m 15,5 km/h (3 Bft) O-NO 71 0 min 0,000 mm 0,0 UV-I 0 W/m -5,1 C -10,7 C 20,9 km/h (4 Bft) 97,87 %
19.01.2019 19:36 -2,7 C 3,9 C -3,9 C 84 % 1015,8 hPa 0,0 l/m 16,0 km/h (3 Bft) O 80 0 min 0,000 mm 0,0 UV-I 0 W/m -5,0 C -10,9 C 22,5 km/h (4 Bft) 100,00 %
19.01.2019 19:38 -2,8 C 3,9 C -3,9 C 84 % 1015,8 hPa 0,0 l/m 15,0 km/h (3 Bft) O 84 0 min 0,000 mm 0,0 UV-I 0 W/m -5,1 C -10,4 C 22,5 km/h (4 Bft) 100,00 %
19.01.2019 19:40 -2,8 C 3,9 C -3,9 C 84 % 1015,8 hPa 0,0 l/m 17,1 km/h (3 Bft) O 85 0 min 0,000 mm 0,0 UV-I 0 W/m -5,1 C -11,7 C 24,1 km/h (4 Bft) 98,36 %
19.01.2019 19:42 -2,8 C 3,9 C -3,9 C 84 % 1015,7 hPa 0,0 l/m 15,9 km/h (3 Bft) O 96 0 min 0,000 mm 0,0 UV-I 0 W/m -5,1 C -10,9 C 22,5 km/h (4 Bft) 97,62 %
19.01.2019 19:44 -2,8 C 3,9 C -3,9 C 84 % 1015,7 hPa 0,0 l/m 17,7 km/h (3 Bft) O-NO 70 0 min 0,000 mm 0,0 UV-I 0 W/m -5,1 C -12,0 C 25,7 km/h (4 Bft) 100,00 %
19.01.2019 19:46 -2,8 C 3,9 C -3,9 C 84 % 1015,7 hPa 0,0 l/m 18,2 km/h (3 Bft) O 89 0 min 0,000 mm 0,0 UV-I 0 W/m -5,1 C -12,3 C 24,1 km/h (4 Bft) 100,00 %
19.01.2019 19:48 -2,8 C 3,9 C -3,9 C 84 % 1015,7 hPa 0,0 l/m 15,9 km/h (3 Bft) O 80 0 min 0,000 mm 0,0 UV-I 0 W/m -5,1 C -10,9 C 20,9 km/h (4 Bft) 100,00 %
19.01.2019 19:50 -2,8 C 3,9 C -3,9 C 84 % 1015,7 hPa 0,0 l/m 13,9 km/h (3 Bft) O-SO 113 0 min 0,000 mm 0,0 UV-I 0 W/m -5,1 C -9,6 C 27,4 km/h (4 Bft) 100,00 %
19.01.2019 19:52 -2,8 C 3,9 C -3,9 C 84 % 1015,7 hPa 0,0 l/m 19,9 km/h (4 Bft) O-SO 103 0 min 0,000 mm 0,0 UV-I 0 W/m -5,1 C -13,2 C 29,0 km/h (5 Bft) 100,00 %
19.01.2019 19:54 -2,8 C 3,9 C -3,9 C 84 % 1015,7 hPa 0,0 l/m 18,8 km/h (3 Bft) O 81 0 min 0,000 mm 0,0 UV-I 0 W/m -5,1 C -12,6 C 27,4 km/h (4 Bft) 97,37 %
19.01.2019 19:56 -2,8 C 3,9 C -3,9 C 84 % 1015,7 hPa 0,0 l/m 17,1 km/h (3 Bft) O-NO 73 0 min 0,000 mm 0,0 UV-I 0 W/m -5,1 C -11,7 C 25,7 km/h (4 Bft) 100,00 %
19.01.2019 19:58 -2,8 C 3,9 C -3,9 C 84 % 1015,7 hPa 0,0 l/m 16,5 km/h (3 Bft) O 89 0 min 0,000 mm 0,0 UV-I 0 W/m -5,1 C -11,3 C 22,5 km/h (4 Bft) 100,00 %
19.01.2019 20:00 -2,8 C 3,9 C -3,9 C 84 % 1015,7 hPa 0,0 l/m 17,7 km/h (3 Bft) O 101 0 min 0,026 mm 0,0 UV-I 0 W/m -5,1 C -12,0 C 22,5 km/h (4 Bft) 100,00 %
19.01.2019 20:02 -2,9 C 3,9 C -3,9 C 84 % 1015,8 hPa 0,0 l/m 14,7 km/h (3 Bft) NO 55 0 min 0,000 mm 0,0 UV-I 0 W/m -5,2 C -10,3 C 20,9 km/h (4 Bft) 97,87 %
19.01.2019 20:04 -2,9 C 3,9 C -3,9 C 84 % 1015,7 hPa 0,0 l/m 16,8 km/h (3 Bft) O 84 0 min 0,000 mm 0,0 UV-I 0 W/m -5,2 C -11,6 C 25,7 km/h (4 Bft) 98,11 %
19.01.2019 20:06 -2,9 C 3,9 C -3,9 C 84 % 1015,7 hPa 0,0 l/m 15,0 km/h (3 Bft) O 98 0 min 0,000 mm 0,0 UV-I 0 W/m -5,2 C -10,5 C 24,1 km/h (4 Bft) 95,74 %
19.01.2019 20:08 -2,9 C 3,9 C -3,9 C 84 % 1015,8 hPa 0,0 l/m 15,0 km/h (3 Bft) O 88 0 min 0,000 mm 0,0 UV-I 0 W/m -5,2 C -10,5 C 20,9 km/h (4 Bft) 100,00 %
19.01.2019 20:10 -2,9 C 3,9 C -3,9 C 84 % 1015,8 hPa 0,0 l/m 10,3 km/h (2 Bft) O-SO 105 0 min 0,000 mm 0,0 UV-I 0 W/m -5,2 C -6,9 C 19,3 km/h (3 Bft) 94,34 %
19.01.2019 20:12 -2,9 C 3,9 C -3,9 C 85 % 1015,7 hPa 0,0 l/m 15,6 km/h (3 Bft) O-NO 76 0 min 0,000 mm 0,0 UV-I 0 W/m -5,1 C -10,9 C 20,9 km/h (4 Bft) 98,11 %
19.01.2019 20:14 -2,9 C 3,9 C -3,9 C 85 % 1015,7 hPa 0,0 l/m 17,4 km/h (3 Bft) O-SO 108 0 min 0,000 mm 0,0 UV-I 0 W/m -5,1 C -12,0 C 22,5 km/h (4 Bft) 95,12 %
19.01.2019 20:16 -2,9 C 3,9 C -3,9 C 84 % 1015,7 hPa 0,0 l/m 14,4 km/h (3 Bft) NO 50 0 min 0,000 mm 0,0 UV-I 0 W/m -5,2 C -10,1 C 20,9 km/h (4 Bft) 96,00 %
19.01.2019 20:18 -2,9 C 3,9 C -3,9 C 84 % 1015,7 hPa 0,0 l/m 15,9 km/h (3 Bft) O 100 0 min 0,000 mm 0,0 UV-I 0 W/m -5,2 C -11,1 C 24,1 km/h (4 Bft) 94,00 %
19.01.2019 20:20 -2,9 C 3,9 C -3,9 C 84 % 1015,7 hPa 0,0 l/m 14,8 km/h (3 Bft) O 96 0 min 0,000 mm 0,0 UV-I 0 W/m -5,2 C -10,4 C 19,3 km/h (3 Bft) 97,62 %
19.01.2019 20:22 -3,0 C 3,9 C -3,9 C 84 % 1015,7 hPa 0,0 l/m 18,6 km/h (3 Bft) O 87 0 min 0,000 mm 0,0 UV-I 0 W/m -5,3 C -12,8 C 25,7 km/h (4 Bft) 93,62 %
19.01.2019 20:24 -2,9 C 3,9 C -3,9 C 84 % 1015,7 hPa 0,0 l/m 17,6 km/h (3 Bft) O-SO 105 0 min 0,000 mm 0,0 UV-I 0 W/m -5,2 C -12,1 C 29,0 km/h (5 Bft) 96,00 %
19.01.2019 20:26 -2,9 C 3,9 C -3,9 C 84 % 1015,7 hPa 0,0 l/m 18,0 km/h (3 Bft) O-NO 68 0 min 0,000 mm 0,0 UV-I 0 W/m -5,2 C -12,3 C 22,5 km/h (4 Bft) 92,11 %
19.01.2019 20:28 -2,9 C 3,9 C -3,9 C 84 % 1015,7 hPa 0,0 l/m 15,7 km/h (3 Bft) O-SO 105 0 min 0,000 mm 0,0 UV-I 0 W/m -5,2 C -10,9 C 20,9 km/h (4 Bft) 94,00 %
19.01.2019 20:30 -2,9 C 3,9 C -3,9 C 84 % 1015,7 hPa 0,0 l/m 16,8 km/h (3 Bft) O 86 0 min 0,000 mm 0,0 UV-I 0 W/m -5,2 C -11,6 C 25,7 km/h (4 Bft) 97,87 %
19.01.2019 20:32 -3,0 C 3,9 C -3,9 C 84 % 1015,7 hPa 0,0 l/m 16,5 km/h (3 Bft) O 90 0 min 0,000 mm 0,0 UV-I 0 W/m -5,3 C -11,6 C 24,1 km/h (4 Bft) 95,74 %
19.01.2019 20:34 -3,0 C 3,9 C -3,9 C 84 % 1015,7 hPa 0,0 l/m 14,4 km/h (3 Bft) O 83 0 min 0,000 mm 0,0 UV-I 0 W/m -5,3 C -10,2 C 19,3 km/h (3 Bft) 93,62 %
19.01.2019 20:36 -3,0 C 3,9 C -3,9 C 85 % 1015,6 hPa 0,0 l/m 13,8 km/h (3 Bft) O-NO 69 0 min 0,000 mm 0,0 UV-I 0 W/m -5,2 C -9,8 C 22,5 km/h (4 Bft) 96,00 %
19.01.2019 20:38 -3,0 C 3,9 C -3,9 C 85 % 1015,6 hPa 0,0 l/m 13,8 km/h (3 Bft) O-NO 61 0 min 0,000 mm 0,0 UV-I 0 W/m -5,2 C -9,8 C 20,9 km/h (4 Bft) 94,00 %
19.01.2019 20:40 -3,1 C 3,9 C -3,9 C 85 % 1015,6 hPa 0,0 l/m 15,0 km/h (3 Bft) O-NO 65 0 min 0,000 mm 0,0 UV-I 0 W/m -5,3 C -10,7 C 19,3 km/h (3 Bft) 89,47 %
19.01.2019 20:42 -3,1 C 3,9 C -3,9 C 85 % 1015,6 hPa 0,0 l/m 13,4 km/h (3 Bft) O 88 0 min 0,000 mm 0,0 UV-I 0 W/m -5,3 C -9,6 C 19,3 km/h (3 Bft) 94,00 %
19.01.2019 20:44 -3,1 C 3,9 C -3,9 C 85 % 1015,7 hPa 0,0 l/m 13,7 km/h (3 Bft) O 90 0 min 0,000 mm 0,0 UV-I 0 W/m -5,3 C -9,8 C 17,7 km/h (3 Bft) 94,00 %
19.01.2019 20:46 -3,1 C 3,9 C -3,9 C 85 % 1015,7 hPa 0,0 l/m 15,2 km/h (3 Bft) O-NO 78 0 min 0,000 mm 0,0 UV-I 0 W/m -5,3 C -10,9 C 20,9 km/h (4 Bft) 94,00 %
19.01.2019 20:48 -3,1 C 3,9 C -3,9 C 85 % 1015,6 hPa 0,0 l/m 17,0 km/h (3 Bft) O 88 0 min 0,000 mm 0,0 UV-I 0 W/m -5,3 C -12,0 C 25,7 km/h (4 Bft) 94,29 %
19.01.2019 20:50 -3,1 C 3,9 C -3,9 C 85 % 1015,6 hPa 0,0 l/m 14,5 km/h (3 Bft) O 90 0 min 0,000 mm 0,0 UV-I 0 W/m -5,3 C -10,4 C 19,3 km/h (3 Bft) 96,00 %
19.01.2019 20:52 -3,1 C 3,9 C -3,9 C 85 % 1015,6 hPa 0,0 l/m 16,2 km/h (3 Bft) O 85 0 min 0,000 mm 0,0 UV-I 0 W/m -5,3 C -11,5 C 20,9 km/h (4 Bft) 94,34 %
19.01.2019 20:54 -3,1 C 3,9 C -3,9 C 85 % 1015,5 hPa 0,0 l/m 14,5 km/h (3 Bft) O 84 0 min 0,000 mm 0,0 UV-I 0 W/m -5,3 C -10,4 C 20,9 km/h (4 Bft) 95,24 %
19.01.2019 20:56 -3,1 C 3,9 C -3,9 C 85 % 1015,6 hPa 0,0 l/m 14,7 km/h (3 Bft) O-NO 70 0 min 0,000 mm 0,0 UV-I 0 W/m -5,3 C -10,5 C 19,3 km/h (3 Bft) 93,18 %
19.01.2019 20:58 -3,1 C 3,9 C -3,9 C 85 % 1015,5 hPa 0,0 l/m 15,2 km/h (3 Bft) O-NO 69 0 min 0,000 mm 0,0 UV-I 0 W/m -5,3 C -10,9 C 19,3 km/h (3 Bft) 92,45 %
19.01.2019 21:00 -3,2 C 3,9 C -3,9 C 86 % 1015,5 hPa 0,0 l/m 13,6 km/h (3 Bft) O 84 0 min 0,025 mm 0,0 UV-I 0 W/m -5,2 C -9,9 C 19,3 km/h (3 Bft) 93,62 %
19.01.2019 21:02 -3,2 C 3,9 C -3,9 C 86 % 1015,5 hPa 0,0 l/m 13,8 km/h (3 Bft) O 79 0 min 0,000 mm 0,0 UV-I 0 W/m -5,2 C -10,0 C 19,3 km/h (3 Bft) 97,56 %
19.01.2019 21:04 -3,2 C 3,9 C -3,9 C 86 % 1015,6 hPa 0,0 l/m 16,2 km/h (3 Bft) O-SO 105 0 min 0,000 mm 0,0 UV-I 0 W/m -5,2 C -11,6 C 24,1 km/h (4 Bft) 93,62 %
19.01.2019 21:06 -3,2 C 3,9 C -3,9 C 86 % 1015,5 hPa 0,0 l/m 14,1 km/h (3 Bft) O 87 0 min 0,000 mm 0,0 UV-I 0 W/m -5,2 C -10,2 C 20,9 km/h (4 Bft) 95,74 %
19.01.2019 21:08 -3,2 C 3,9 C -3,9 C 86 % 1015,5 hPa 0,0 l/m 14,9 km/h (3 Bft) O-NO 78 0 min 0,000 mm 0,0 UV-I 0 W/m -5,2 C -10,8 C 17,7 km/h (3 Bft) 97,73 %
19.01.2019 21:10 -3,2 C 3,9 C -3,9 C 86 % 1015,5 hPa 0,0 l/m 14,6 km/h (3 Bft) O 81 0 min 0,000 mm 0,0 UV-I 0 W/m -5,2 C -10,6 C 20,9 km/h (4 Bft) 98,21 %
19.01.2019 21:12 -3,2 C 3,9 C -4,4 C 86 % 1015,5 hPa 0,0 l/m 12,7 km/h (3 Bft) O 100 0 min 0,000 mm 0,0 UV-I 0 W/m -5,2 C -9,2 C 17,7 km/h (3 Bft) 96,00 %
19.01.2019 21:14 -3,2 C 3,9 C -4,4 C 86 % 1015,6 hPa 0,0 l/m 13,7 km/h (3 Bft) O 80 0 min 0,000 mm 0,0 UV-I 0 W/m -5,2 C -10,0 C 20,9 km/h (4 Bft) 94,74 %
19.01.2019 21:16 -3,2 C 3,9 C -4,4 C 86 % 1015,6 hPa 0,0 l/m 14,8 km/h (3 Bft) O-NO 77 0 min 0,000 mm 0,0 UV-I 0 W/m -5,2 C -10,7 C 25,7 km/h (4 Bft) 96,23 %
19.01.2019 21:18 -3,3 C 3,9 C -3,9 C 86 % 1015,6 hPa 0,0 l/m 16,5 km/h (3 Bft) O-NO 73 0 min 0,000 mm 0,0 UV-I 0 W/m -5,3 C -11,9 C 20,9 km/h (4 Bft) 95,74 %
19.01.2019 21:20 -3,2 C 3,9 C -3,9 C 86 % 1015,5 hPa 0,0 l/m 15,8 km/h (3 Bft) O-NO 67 0 min 0,000 mm 0,0 UV-I 0 W/m -5,2 C -11,4 C 20,9 km/h (4 Bft) 92,11 %
19.01.2019 21:22 -3,2 C 3,9 C -4,4 C 86 % 1015,6 hPa 0,0 l/m 13,2 km/h (3 Bft) O-SO 105 0 min 0,000 mm 0,0 UV-I 0 W/m -5,2 C -9,6 C 17,7 km/h (3 Bft) 96,23 %
19.01.2019 21:24 -3,3 C 3,9 C -4,4 C 86 % 1015,6 hPa 0,0 l/m 11,7 km/h (2 Bft) O-NO 78 0 min 0,000 mm 0,0 UV-I 0 W/m -5,3 C -8,6 C 16,1 km/h (3 Bft) 95,12 %
19.01.2019 21:26 -3,3 C 3,9 C -4,4 C 86 % 1015,6 hPa 0,0 l/m 13,8 km/h (3 Bft) O 87 0 min 0,000 mm 0,0 UV-I 0 W/m -5,3 C -10,2 C 22,5 km/h (4 Bft) 92,45 %
19.01.2019 21:29 -3,3 C 3,9 C -4,4 C 86 % 1015,5 hPa 0,0 l/m 11,5 km/h (2 Bft) O-NO 76 0 min 0,000 mm 0,0 UV-I 0 W/m -5,3 C -8,4 C 17,7 km/h (3 Bft) 96,10 %
19.01.2019 21:30 -3,3 C 3,9 C -4,4 C 86 % 1015,5 hPa 0,0 l/m 17,2 km/h (3 Bft) O 84 0 min 0,000 mm 0,0 UV-I 0 W/m -5,3 C -12,4 C 22,5 km/h (4 Bft) 100,00 %
19.01.2019 21:32 -3,3 C 3,9 C -4,4 C 86 % 1015,5 hPa 0,0 l/m 17,3 km/h (3 Bft) O-NO 77 0 min 0,000 mm 0,0 UV-I 0 W/m -5,3 C -12,4 C 25,7 km/h (4 Bft) 98,08 %
19.01.2019 21:34 -3,3 C 3,9 C -4,4 C 86 % 1015,5 hPa 0,0 l/m 15,5 km/h (3 Bft) O 79 0 min 0,000 mm 0,0 UV-I 0 W/m -5,3 C -11,3 C 20,9 km/h (4 Bft) 95,83 %
19.01.2019 21:36 -3,3 C 3,9 C -4,4 C 86 % 1015,5 hPa 0,0 l/m 12,4 km/h (3 Bft) O-SO 103 0 min 0,000 mm 0,0 UV-I 0 W/m -5,3 C -9,1 C 16,1 km/h (3 Bft) 100,00 %
19.01.2019 21:38 -3,3 C 3,9 C -4,4 C 86 % 1015,5 hPa 0,0 l/m 13,5 km/h (3 Bft) O 97 0 min 0,000 mm 0,0 UV-I 0 W/m -5,3 C -9,9 C 19,3 km/h (3 Bft) 98,31 %
19.01.2019 21:40 -3,3 C 3,9 C -4,4 C 87 % 1015,5 hPa 0,0 l/m 14,4 km/h (3 Bft) O 94 0 min 0,000 mm 0,0 UV-I 0 W/m -5,1 C -10,6 C 19,3 km/h (3 Bft) 100,00 %
19.01.2019 21:42 -3,3 C 3,9 C -4,4 C 87 % 1015,5 hPa 0,0 l/m 11,8 km/h (2 Bft) O 88 0 min 0,000 mm 0,0 UV-I 0 W/m -5,1 C -8,6 C 16,1 km/h (3 Bft) 100,00 %
19.01.2019 21:44 -3,4 C 3,9 C -4,4 C 87 % 1015,5 hPa 0,0 l/m 13,5 km/h (3 Bft) O 92 0 min 0,000 mm 0,0 UV-I 0 W/m -5,2 C -10,1 C 20,9 km/h (4 Bft) 94,74 %
19.01.2019 21:46 -3,4 C 3,9 C -4,4 C 87 % 1015,5 hPa 0,0 l/m 12,1 km/h (2 Bft) O-NO 68 0 min 0,000 mm 0,0 UV-I 0 W/m -5,2 C -9,0 C 17,7 km/h (3 Bft) 97,87 %
19.01.2019 21:48 -3,4 C 3,9 C -4,4 C 87 % 1015,5 hPa 0,0 l/m 15,1 km/h (3 Bft) O-NO 67 0 min 0,000 mm 0,0 UV-I 0 W/m -5,2 C -11,2 C 22,5 km/h (4 Bft) 97,87 %
19.01.2019 21:50 -3,4 C 3,9 C -4,4 C 87 % 1015,5 hPa 0,0 l/m 13,8 km/h (3 Bft) O 94 0 min 0,000 mm 0,0 UV-I 0 W/m -5,2 C -10,3 C 19,3 km/h (3 Bft) 98,11 %
19.01.2019 21:52 -3,4 C 3,9 C -4,4 C 87 % 1015,5 hPa 0,0 l/m 14,3 km/h (3 Bft) O 90 0 min 0,000 mm 0,0 UV-I 0 W/m -5,2 C -10,6 C 19,3 km/h (3 Bft) 100,00 %
19.01.2019 21:54 -3,4 C 3,9 C -4,4 C 87 % 1015,5 hPa 0,0 l/m 13,8 km/h (3 Bft) O 89 0 min 0,000 mm 0,0 UV-I 0 W/m -5,2 C -10,3 C 19,3 km/h (3 Bft) 100,00 %
19.01.2019 21:56 -3,4 C 3,9 C -4,4 C 87 % 1015,5 hPa 0,0 l/m 13,1 km/h (3 Bft) O 93 0 min 0,000 mm 0,0 UV-I 0 W/m -5,2 C -9,8 C 20,9 km/h (4 Bft) 100,00 %
19.01.2019 21:58 -3,4 C 3,9 C -4,4 C 87 % 1015,5 hPa 0,0 l/m 11,5 km/h (2 Bft) O-NO 74 0 min 0,000 mm 0,0 UV-I 0 W/m -5,2 C -8,5 C 17,7 km/h (3 Bft) 100,00 %
19.01.2019 22:00 -3,5 C 3,9 C -4,4 C 87 % 1015,4 hPa 0,0 l/m 11,3 km/h (2 Bft) O 82 0 min 0,025 mm 0,0 UV-I 0 W/m -5,3 C -8,5 C 16,1 km/h (3 Bft) 100,00 %
19.01.2019 22:02 -3,5 C 3,9 C -4,4 C 87 % 1015,4 hPa 0,0 l/m 12,8 km/h (3 Bft) O 86 0 min 0,000 mm 0,0 UV-I 0 W/m -5,3 C -9,7 C 19,3 km/h (3 Bft) 100,00 %
19.01.2019 22:04 -3,5 C 3,9 C -4,4 C 87 % 1015,5 hPa 0,0 l/m 11,3 km/h (2 Bft) O 89 0 min 0,000 mm 0,0 UV-I 0 W/m -5,3 C -8,5 C 14,5 km/h (3 Bft) 100,00 %
19.01.2019 22:06 -3,5 C 3,9 C -4,4 C 87 % 1015,4 hPa 0,0 l/m 13,3 km/h (3 Bft) O 90 0 min 0,000 mm 0,0 UV-I 0 W/m -5,3 C -10,0 C 19,3 km/h (3 Bft) 97,56 %
19.01.2019 22:08 -3,5 C 3,9 C -4,4 C 87 % 1015,4 hPa 0,0 l/m 11,1 km/h (2 Bft) O-NO 67 0 min 0,000 mm 0,0 UV-I 0 W/m -5,3 C -8,3 C 16,1 km/h (3 Bft) 100,00 %
19.01.2019 22:10 -3,5 C 3,9 C -4,4 C 87 % 1015,4 hPa 0,0 l/m 14,6 km/h (3 Bft) O 94 0 min 0,000 mm 0,0 UV-I 0 W/m -5,3 C -11,0 C 20,9 km/h (4 Bft) 100,00 %
19.01.2019 22:12 -3,5 C 3,9 C -4,4 C 87 % 1015,4 hPa 0,0 l/m 12,7 km/h (3 Bft) O 81 0 min 0,000 mm 0,0 UV-I 0 W/m -5,3 C -9,6 C 17,7 km/h (3 Bft) 100,00 %
19.01.2019 22:14 -3,6 C 3,9 C -4,4 C 88 % 1015,4 hPa 0,0 l/m 13,8 km/h (3 Bft) O 82 0 min 0,000 mm 0,0 UV-I 0 W/m -5,3 C -10,5 C 20,9 km/h (4 Bft) 100,00 %
19.01.2019 22:16 -3,6 C 3,9 C -4,4 C 88 % 1015,5 hPa 0,0 l/m 14,2 km/h (3 Bft) O 85 0 min 0,000 mm 0,0 UV-I 0 W/m -5,3 C -10,8 C 17,7 km/h (3 Bft) 98,00 %
19.01.2019 22:18 -3,6 C 3,9 C -4,4 C 88 % 1015,4 hPa 0,0 l/m 11,8 km/h (2 Bft) O-NO 70 0 min 0,000 mm 0,0 UV-I 0 W/m -5,3 C -9,0 C 19,3 km/h (3 Bft) 100,00 %
19.01.2019 22:20 -3,6 C 3,9 C -4,4 C 88 % 1015,5 hPa 0,0 l/m 10,9 km/h (2 Bft) O-NO 74 0 min 0,000 mm 0,0 UV-I 0 W/m -5,3 C -8,2 C 14,5 km/h (3 Bft) 100,00 %
19.01.2019 22:22 -3,6 C 3,9 C -4,4 C 88 % 1015,5 hPa 0,0 l/m 12,2 km/h (2 Bft) O 80 0 min 0,000 mm 0,0 UV-I 0 W/m -5,3 C -9,3 C 17,7 km/h (3 Bft) 100,00 %
19.01.2019 22:24 -3,6 C 3,9 C -4,4 C 88 % 1015,5 hPa 0,0 l/m 12,2 km/h (2 Bft) O-NO 65 0 min 0,000 mm 0,0 UV-I 0 W/m -5,3 C -9,3 C 16,1 km/h (3 Bft) 96,23 %
19.01.2019 22:26 -3,6 C 3,9 C -4,4 C 88 % 1015,4 hPa 0,0 l/m 12,2 km/h (2 Bft) O 81 0 min 0,000 mm 0,0 UV-I 0 W/m -5,3 C -9,3 C 17,7 km/h (3 Bft) 96,00 %
19.01.2019 22:28 -3,7 C 3,9 C -4,4 C 88 % 1015,5 hPa 0,0 l/m 11,2 km/h (2 Bft) NO 56 0 min 0,000 mm 0,0 UV-I 0 W/m -5,4 C -8,6 C 17,7 km/h (3 Bft) 97,37 %
19.01.2019 22:30 -3,7 C 3,9 C -4,4 C 88 % 1015,5 hPa 0,0 l/m 12,0 km/h (2 Bft) O 80 0 min 0,000 mm 0,0 UV-I 0 W/m -5,4 C -9,3 C 16,1 km/h (3 Bft) 93,62 %
19.01.2019 22:32 -3,7 C 3,9 C -4,4 C 88 % 1015,5 hPa 0,0 l/m 9,5 km/h (2 Bft) O-NO 66 0 min 0,000 mm 0,0 UV-I 0 W/m -5,4 C -7,1 C 12,9 km/h (3 Bft) 96,00 %
19.01.2019 22:34 -3,7 C 3,9 C -4,4 C 88 % 1015,5 hPa 0,0 l/m 11,0 km/h (2 Bft) O-NO 76 0 min 0,000 mm 0,0 UV-I 0 W/m -5,4 C -8,4 C 14,5 km/h (3 Bft) 95,74 %
19.01.2019 22:36 -3,7 C 3,9 C -4,4 C 88 % 1015,5 hPa 0,0 l/m 12,8 km/h (3 Bft) O-NO 76 0 min 0,000 mm 0,0 UV-I 0 W/m -5,4 C -9,9 C 17,7 km/h (3 Bft) 96,00 %
19.01.2019 22:38 -3,7 C 3,9 C -4,4 C 88 % 1015,5 hPa 0,0 l/m 10,0 km/h (2 Bft) O-NO 71 0 min 0,000 mm 0,0 UV-I 0 W/m -5,4 C -7,5 C 14,5 km/h (3 Bft) 94,74 %
19.01.2019 22:40 -3,7 C 3,9 C -4,4 C 88 % 1015,5 hPa 0,0 l/m 11,7 km/h (2 Bft) O-NO 69 0 min 0,000 mm 0,0 UV-I 0 W/m -5,4 C -9,0 C 16,1 km/h (3 Bft) 95,45 %
19.01.2019 22:42 -3,7 C 3,9 C -4,4 C 88 % 1015,5 hPa 0,0 l/m 9,6 km/h (2 Bft) O-NO 74 0 min 0,000 mm 0,0 UV-I 0 W/m -5,4 C -7,2 C 14,5 km/h (3 Bft) 96,43 %
19.01.2019 22:44 -3,8 C 3,9 C -5,0 C 88 % 1015,5 hPa 0,0 l/m 8,1 km/h (2 Bft) O-NO 72 0 min 0,000 mm 0,0 UV-I 0 W/m -5,5 C -5,7 C 12,9 km/h (3 Bft) 96,00 %
19.01.2019 22:46 -3,8 C 3,9 C -5,0 C 89 % 1015,5 hPa 0,0 l/m 7,9 km/h (2 Bft) O-NO 76 0 min 0,000 mm 0,0 UV-I 0 W/m -5,3 C -5,5 C 12,9 km/h (3 Bft) 97,87 %
19.01.2019 22:48 -3,8 C 3,9 C -5,0 C 89 % 1015,5 hPa 0,0 l/m 7,1 km/h (2 Bft) O 80 0 min 0,000 mm 0,0 UV-I 0 W/m -5,3 C -4,6 C 12,9 km/h (3 Bft) 97,87 %
19.01.2019 22:50 -3,8 C 3,9 C -5,0 C 89 % 1015,6 hPa 0,0 l/m 7,3 km/h (2 Bft) O 95 0 min 0,000 mm 0,0 UV-I 0 W/m -5,3 C -4,8 C 11,3 km/h (2 Bft) 93,62 %
19.01.2019 22:52 -3,8 C 3,9 C -5,0 C 89 % 1015,5 hPa 0,0 l/m 6,1 km/h (2 Bft) O 84 0 min 0,000 mm 0,0 UV-I 0 W/m -5,3 C -3,8 C 12,9 km/h (3 Bft) 94,87 %
19.01.2019 22:54 -3,8 C 3,9 C -5,0 C 89 % 1015,5 hPa 0,0 l/m 6,2 km/h (2 Bft) NO 50 0 min 0,000 mm 0,0 UV-I 0 W/m -5,3 C -3,8 C 8,0 km/h (2 Bft) 97,87 %
19.01.2019 22:56 -3,9 C 3,9 C -5,0 C 89 % 1015,5 hPa 0,0 l/m 5,1 km/h (1 Bft) NO 54 0 min 0,000 mm 0,0 UV-I 0 W/m -5,4 C -3,9 C 9,7 km/h (2 Bft) 96,00 %
19.01.2019 22:59 -3,9 C 3,9 C -5,0 C 89 % 1015,5 hPa 0,0 l/m 6,7 km/h (2 Bft) O-NO 62 0 min 0,000 mm 0,0 UV-I 0 W/m -5,4 C -4,2 C 9,7 km/h (2 Bft) 97,26 %
19.01.2019 23:00 -3,9 C 3,9 C -5,0 C 89 % 1015,5 hPa 0,0 l/m 3,4 km/h (1 Bft) O-NO 66 0 min 0,000 mm 0,0 UV-I 0 W/m -5,4 C -3,9 C 4,8 km/h (1 Bft) 100,00 %
19.01.2019 23:02 -3,9 C 3,9 C -5,0 C 89 % 1015,5 hPa 0,0 l/m 6,0 km/h (2 Bft) O-NO 65 0 min 0,000 mm 0,0 UV-I 0 W/m -5,4 C -3,9 C 8,0 km/h (2 Bft) 100,00 %
19.01.2019 23:04 -4,0 C 3,9 C -5,0 C 89 % 1015,5 hPa 0,0 l/m 5,2 km/h (1 Bft) O-NO 76 0 min 0,000 mm 0,0 UV-I 0 W/m -5,5 C -4,0 C 8,0 km/h (2 Bft) 100,00 %
19.01.2019 23:06 -4,0 C 3,9 C -5,0 C 89 % 1015,6 hPa 0,0 l/m 5,4 km/h (1 Bft) O 84 0 min 0,000 mm 0,0 UV-I 0 W/m -5,5 C -4,0 C 6,4 km/h (2 Bft) 97,87 %
19.01.2019 23:09 -4,1 C 3,9 C -5,6 C 89 % 1015,5 hPa 0,0 l/m 3,7 km/h (1 Bft) O-NO 75 0 min 0,000 mm 0,0 UV-I 0 W/m -5,6 C -4,1 C 6,4 km/h (2 Bft) 100,00 %
19.01.2019 23:10 -4,1 C 3,9 C -5,6 C 90 % 1015,5 hPa 0,0 l/m 2,9 km/h (1 Bft) O-NO 76 0 min 0,000 mm 0,0 UV-I 0 W/m -5,5 C -4,1 C 4,8 km/h (1 Bft) 100,00 %
19.01.2019 23:12 -4,1 C 3,9 C -5,6 C 90 % 1015,5 hPa 0,0 l/m 4,0 km/h (1 Bft) O-NO 78 0 min 0,000 mm 0,0 UV-I 0 W/m -5,5 C -4,1 C 6,4 km/h (2 Bft) 100,00 %
19.01.2019 23:14 -4,1 C 3,9 C -5,6 C 90 % 1015,5 hPa 0,0 l/m 3,7 km/h (1 Bft) O-NO 78 0 min 0,000 mm 0,0 UV-I 0 W/m -5,5 C -4,1 C 6,4 km/h (2 Bft) 97,87 %
19.01.2019 23:16 -4,2 C 3,9 C -5,6 C 90 % 1015,5 hPa 0,0 l/m 4,8 km/h (1 Bft) O 79 0 min 0,000 mm 0,0 UV-I 0 W/m -5,6 C -4,2 C 6,4 km/h (2 Bft) 100,00 %
19.01.2019 23:19 -4,2 C 3,9 C -5,6 C 90 % 1015,5 hPa 0,0 l/m 3,9 km/h (1 Bft) O 80 0 min 0,000 mm 0,0 UV-I 0 W/m -5,6 C -4,2 C 6,4 km/h (2 Bft) 100,00 %
19.01.2019 23:20 -4,2 C 3,9 C -5,6 C 90 % 1015,5 hPa 0,0 l/m 4,3 km/h (1 Bft) O 85 0 min 0,000 mm 0,0 UV-I 0 W/m -5,6 C -4,2 C 4,8 km/h (1 Bft) 100,00 %
19.01.2019 23:22 -4,2 C 3,9 C -5,6 C 90 % 1015,5 hPa 0,0 l/m 3,5 km/h (1 Bft) O 84 0 min 0,000 mm 0,0 UV-I 0 W/m -5,6 C -4,2 C 6,4 km/h (2 Bft) 100,00 %
19.01.2019 23:24 -4,2 C 3,9 C -5,6 C 90 % 1015,6 hPa 0,0 l/m 3,5 km/h (1 Bft) O 84 0 min 0,000 mm 0,0 UV-I 0 W/m -5,6 C -4,2 C 4,8 km/h (1 Bft) 96,00 %
19.01.2019 23:26 -4,2 C 3,9 C -5,6 C 90 % 1015,5 hPa 0,0 l/m 4,5 km/h (1 Bft) O 94 0 min 0,000 mm 0,0 UV-I 0 W/m -5,6 C -4,2 C 6,4 km/h (2 Bft) 95,24 %
19.01.2019 23:28 -4,2 C 3,9 C -5,6 C 90 % 1015,5 hPa 0,0 l/m 4,4 km/h (1 Bft) O 83 0 min 0,000 mm 0,0 UV-I 0 W/m -5,6 C -4,2 C 6,4 km/h (2 Bft) 100,00 %
19.01.2019 23:30 -4,2 C 3,9 C -5,6 C 90 % 1015,5 hPa 0,0 l/m 4,0 km/h (1 Bft) O-NO 76 0 min 0,000 mm 0,0 UV-I 0 W/m -5,6 C -4,2 C 6,4 km/h (2 Bft) 100,00 %
19.01.2019 23:32 -4,2 C 3,9 C -5,6 C 90 % 1015,5 hPa 0,0 l/m 4,7 km/h (1 Bft) O-NO 63 0 min 0,000 mm 0,0 UV-I 0 W/m -5,6 C -4,2 C 8,0 km/h (2 Bft) 100,00 %
19.01.2019 23:34 -4,2 C 3,9 C -5,6 C 90 % 1015,5 hPa 0,0 l/m 3,9 km/h (1 Bft) O-NO 59 0 min 0,000 mm 0,0 UV-I 0 W/m -5,6 C -4,2 C 6,4 km/h (2 Bft) 97,87 %
19.01.2019 23:36 -4,2 C 3,9 C -5,6 C 90 % 1015,5 hPa 0,0 l/m 3,3 km/h (1 Bft) O-NO 63 0 min 0,000 mm 0,0 UV-I 0 W/m -5,6 C -4,2 C 4,8 km/h (1 Bft) 95,74 %
19.01.2019 23:38 -4,2 C 3,9 C -5,6 C 90 % 1015,5 hPa 0,0 l/m 4,6 km/h (1 Bft) O-NO 65 0 min 0,000 mm 0,0 UV-I 0 W/m -5,6 C -4,2 C 6,4 km/h (2 Bft) 95,74 %
19.01.2019 23:40 -4,2 C 3,9 C -5,6 C 90 % 1015,4 hPa 0,0 l/m 4,8 km/h (1 Bft) O 80 0 min 0,000 mm 0,0 UV-I 0 W/m -5,6 C -4,2 C 8,0 km/h (2 Bft) 98,00 %
19.01.2019 23:42 -4,2 C 3,9 C -5,6 C 90 % 1015,5 hPa 0,0 l/m 2,8 km/h (1 Bft) O 79 0 min 0,000 mm 0,0 UV-I 0 W/m -5,6 C -4,2 C 4,8 km/h (1 Bft) 97,87 %
19.01.2019 23:44 -4,3 C 3,9 C -5,6 C 90 % 1015,5 hPa 0,0 l/m 4,5 km/h (1 Bft) O-NO 65 0 min 0,000 mm 0,0 UV-I 0 W/m -5,7 C -4,3 C 6,4 km/h (2 Bft) 97,37 %
19.01.2019 23:46 -4,3 C 3,9 C -5,6 C 90 % 1015,5 hPa 0,0 l/m 3,5 km/h (1 Bft) O-NO 67 0 min 0,000 mm 0,0 UV-I 0 W/m -5,7 C -4,3 C 6,4 km/h (2 Bft) 96,23 %
19.01.2019 23:49 -4,3 C 3,9 C -5,6 C 90 % 1015,4 hPa 0,0 l/m 5,2 km/h (1 Bft) NO 56 0 min 0,000 mm 0,0 UV-I 0 W/m -5,7 C -4,3 C 8,0 km/h (2 Bft) 97,37 %
19.01.2019 23:50 -4,3 C 3,9 C -5,6 C 90 % 1015,4 hPa 0,0 l/m 6,1 km/h (2 Bft) O-NO 74 0 min 0,000 mm 0,0 UV-I 0 W/m -5,7 C -4,3 C 8,0 km/h (2 Bft) 91,67 %
19.01.2019 23:52 -4,3 C 3,9 C -5,6 C 90 % 1015,4 hPa 0,0 l/m 4,6 km/h (1 Bft) O-NO 67 0 min 0,000 mm 0,0 UV-I 0 W/m -5,7 C -4,3 C 6,4 km/h (2 Bft) 100,00 %
19.01.2019 23:54 -4,3 C 3,9 C -5,6 C 90 % 1015,4 hPa 0,0 l/m 4,0 km/h (1 Bft) O-NO 74 0 min 0,000 mm 0,0 UV-I 0 W/m -5,7 C -4,3 C 4,8 km/h (1 Bft) 100,00 %
19.01.2019 23:56 -4,3 C 3,9 C -5,6 C 90 % 1015,4 hPa 0,0 l/m 5,0 km/h (1 Bft) O-NO 76 0 min 0,000 mm 0,0 UV-I 0 W/m -5,7 C -4,3 C 8,0 km/h (2 Bft) 100,00 %
19.01.2019 23:59 -4,3 C 3,9 C -5,6 C 90 % 1015,3 hPa 0,0 l/m 5,3 km/h (1 Bft) O 81 0 min 0,000 mm 0,0 UV-I 0 W/m -5,7 C -4,3 C 8,0 km/h (2 Bft) 96,92 %
_ Min-Zeit 23:34 02:28 00:26 12:46 23:59 - 23:42 - - - - - - 08:06 07:10 00:18 00:02
Minimum _ -4,3 C 3,3 C -7,8 C 77 % 1015,3 hPa - 2,8 km/h (1 Bft) - - - - - - -5,9 C -16,1 C 4,8 km/h (1 Bft) 5,88 %
_ Max-Zeit 13:12 00:00 12:50 01:58 00:04 00:00 07:10 - - 10:05 12:02 11:50 12:52 15:02 00:00 07:54 00:00
Maximum _ -0,9 C 3,9 C 1,1 C 94 % 1020,7 hPa 0,0 l/m 23,6 km/h
O-NO (4 Bft)
- - 3 min 0,102 mm 0,6 UV-I 319 W/m -4,0 C -3,6 C 33,8 km/h
O-NO (5 Bft)
100,00 %
Durchschnitt _ -2,9 C 3,8 C -3,7 C 86 % 1017,3 hPa #0,0 l/m 14,0 km/h (3 Bft) O-NO - #6:37 h #0,787 mm 0,5 UV-I 151 W/m -5,0 C -9,6 C 19,5 km/h (3 Bft) 97,21 %